Wetterdaten: Samstag, 25.02.2023
Datum Zeit Temp. 2m Temp +5 cm Feuchte A. Luftdruck Regen Wind Richtung Richtung Sonnenschein UV Solar Taupunkt Windchill Windben
25.02.2023 00:00 1,3 C 0,6 C 86 % 1008,6 hPa 0,0 l/m 1,6 km/h (1 Bft) SW 225 0 min 0,0 UV-I 0 W/m -0,8 C 1,3 C 4,8 km/h (1 Bft)
25.02.2023 00:01 1,3 C 0,6 C 87 % 1008,6 hPa 0,0 l/m 0,0 km/h (0 Bft) SW 225 0 min 0,0 UV-I 0 W/m -0,6 C 1,3 C 1,6 km/h (1 Bft)
25.02.2023 00:02 1,4 C 0,6 C 87 % 1008,6 hPa 0,0 l/m 0,0 km/h (0 Bft) SW 225 0 min 0,0 UV-I 0 W/m -0,5 C 1,4 C 3,2 km/h (1 Bft)
25.02.2023 00:03 1,4 C 0,6 C 87 % 1008,6 hPa 0,0 l/m 3,2 km/h (1 Bft) SW 225 0 min 0,0 UV-I 0 W/m -0,5 C 1,4 C 6,4 km/h (2 Bft)
25.02.2023 00:04 1,3 C 0,6 C 87 % 1008,5 hPa 0,0 l/m 0,0 km/h (0 Bft) SW 225 0 min 0,0 UV-I 0 W/m -0,6 C 1,3 C 1,6 km/h (1 Bft)
25.02.2023 00:05 1,3 C 0,6 C 87 % 1008,6 hPa 0,0 l/m 3,2 km/h (1 Bft) SW 225 0 min 0,0 UV-I 0 W/m -0,6 C 1,3 C 6,4 km/h (2 Bft)
25.02.2023 00:06 1,3 C 0,6 C 87 % 1008,6 hPa 0,0 l/m 3,2 km/h (1 Bft) W-NW 292 0 min 0,0 UV-I 0 W/m -0,6 C 1,3 C 6,4 km/h (2 Bft)
25.02.2023 00:07 1,3 C 0,6 C 87 % 1008,6 hPa 0,0 l/m 3,2 km/h (1 Bft) N-NW 337 0 min 0,0 UV-I 0 W/m -0,6 C 1,3 C 8,0 km/h (2 Bft)
25.02.2023 00:08 1,3 C 0,6 C 87 % 1008,7 hPa 0,0 l/m 1,6 km/h (1 Bft) NW 315 0 min 0,0 UV-I 0 W/m -0,6 C 1,3 C 4,8 km/h (1 Bft)
25.02.2023 00:09 1,3 C 0,6 C 87 % 1008,5 hPa 0,0 l/m 1,6 km/h (1 Bft) NW 315 0 min 0,0 UV-I 0 W/m -0,6 C 1,3 C 4,8 km/h (1 Bft)
25.02.2023 00:10 1,3 C 0,6 C 87 % 1008,5 hPa 0,0 l/m 4,8 km/h (1 Bft) NW 315 0 min 0,0 UV-I 0 W/m -0,6 C 1,3 C 9,7 km/h (2 Bft)
25.02.2023 00:11 1,3 C 0,6 C 87 % 1008,6 hPa 0,0 l/m 4,8 km/h (1 Bft) W 270 0 min 0,0 UV-I 0 W/m -0,6 C 1,3 C 6,4 km/h (2 Bft)
25.02.2023 00:12 1,3 C 0,6 C 87 % 1008,6 hPa 0,0 l/m 3,2 km/h (1 Bft) W-SW 247 0 min 0,0 UV-I 0 W/m -0,6 C 1,3 C 6,4 km/h (2 Bft)
25.02.2023 00:13 1,3 C 0,6 C 87 % 1008,7 hPa 0,0 l/m 1,6 km/h (1 Bft) W-SW 247 0 min 0,0 UV-I 0 W/m -0,6 C 1,3 C 12,9 km/h (3 Bft)
25.02.2023 00:14 1,3 C 0,6 C 87 % 1008,7 hPa 0,0 l/m 3,2 km/h (1 Bft) N-NO 22 0 min 0,0 UV-I 0 W/m -0,6 C 1,3 C 11,3 km/h (2 Bft)
25.02.2023 00:15 1,3 C 0,6 C 87 % 1008,6 hPa 0,0 l/m 1,6 km/h (1 Bft) N-NO 22 0 min 0,0 UV-I 0 W/m -0,6 C 1,3 C 12,9 km/h (3 Bft)
25.02.2023 00:16 1,3 C 0,6 C 87 % 1008,6 hPa 0,0 l/m 1,6 km/h (1 Bft) N-NO 22 0 min 0,0 UV-I 0 W/m -0,6 C 1,3 C 3,2 km/h (1 Bft)
25.02.2023 00:17 1,3 C 0,6 C 87 % 1008,6 hPa 0,0 l/m 4,8 km/h (1 Bft) W 270 0 min 0,0 UV-I 0 W/m -0,6 C 1,3 C 9,7 km/h (2 Bft)
25.02.2023 00:18 1,3 C 0,6 C 86 % 1008,7 hPa 0,0 l/m 1,6 km/h (1 Bft) W-SW 247 0 min 0,0 UV-I 0 W/m -0,8 C 1,3 C 3,2 km/h (1 Bft)
25.02.2023 00:19 1,2 C 0,6 C 87 % 1008,7 hPa 0,0 l/m 1,6 km/h (1 Bft) W-NW 292 0 min 0,0 UV-I 0 W/m -0,7 C 1,2 C 3,2 km/h (1 Bft)
25.02.2023 00:20 1,2 C 0,0 C 86 % 1008,8 hPa 0,0 l/m 4,8 km/h (1 Bft) W-NW 292 0 min 0,0 UV-I 0 W/m -0,9 C 1,2 C 17,7 km/h (3 Bft)
25.02.2023 00:21 1,2 C 0,0 C 86 % 1008,6 hPa 0,0 l/m 6,4 km/h (2 Bft) W-NW 292 0 min 0,0 UV-I 0 W/m -0,9 C 1,2 C 17,7 km/h (3 Bft)
25.02.2023 00:22 1,2 C 0,0 C 86 % 1008,7 hPa 0,0 l/m 3,2 km/h (1 Bft) W 270 0 min 0,0 UV-I 0 W/m -0,9 C 1,2 C 4,8 km/h (1 Bft)
25.02.2023 00:23 1,2 C 0,6 C 86 % 1008,6 hPa 0,0 l/m 6,4 km/h (2 Bft) W-SW 247 0 min 0,0 UV-I 0 W/m -0,9 C 1,2 C 11,3 km/h (2 Bft)
25.02.2023 00:24 1,2 C 0,6 C 87 % 1008,6 hPa 0,0 l/m 4,8 km/h (1 Bft) W-NW 292 0 min 0,0 UV-I 0 W/m -0,7 C 1,2 C 6,4 km/h (2 Bft)
25.02.2023 00:25 1,2 C 0,6 C 87 % 1008,7 hPa 0,0 l/m 3,2 km/h (1 Bft) W-NW 292 0 min 0,0 UV-I 0 W/m -0,7 C 1,2 C 6,4 km/h (2 Bft)
25.02.2023 00:26 1,2 C 0,0 C 87 % 1008,8 hPa 0,0 l/m 1,6 km/h (1 Bft) W 270 0 min 0,0 UV-I 0 W/m -0,7 C 1,2 C 3,2 km/h (1 Bft)
25.02.2023 00:27 1,1 C 0,0 C 86 % 1008,8 hPa 0,0 l/m 1,6 km/h (1 Bft) W 270 0 min 0,0 UV-I 0 W/m -1,0 C 1,1 C 3,2 km/h (1 Bft)
25.02.2023 00:28 1,1 C 0,0 C 87 % 1008,7 hPa 0,0 l/m 3,2 km/h (1 Bft) W-SW 247 0 min 0,0 UV-I 0 W/m -0,8 C 1,1 C 4,8 km/h (1 Bft)
25.02.2023 00:29 1,1 C 0,0 C 87 % 1008,7 hPa 0,0 l/m 3,2 km/h (1 Bft) W-SW 247 0 min 0,0 UV-I 0 W/m -0,8 C 1,1 C 8,0 km/h (2 Bft)
25.02.2023 00:30 1,1 C 0,0 C 87 % 1008,7 hPa 0,0 l/m 1,6 km/h (1 Bft) W 270 0 min 0,0 UV-I 0 W/m -0,8 C 1,1 C 4,8 km/h (1 Bft)
25.02.2023 00:31 1,1 C 0,0 C 87 % 1008,7 hPa 0,0 l/m 1,6 km/h (1 Bft) SW 225 0 min 0,0 UV-I 0 W/m -0,8 C 1,1 C 4,8 km/h (1 Bft)
25.02.2023 00:32 1,0 C 0,0 C 87 % 1008,8 hPa 0,0 l/m 3,2 km/h (1 Bft) W 270 0 min 0,0 UV-I 0 W/m -0,9 C 1,0 C 4,8 km/h (1 Bft)
25.02.2023 00:33 1,0 C 0,0 C 87 % 1008,8 hPa 0,0 l/m 1,6 km/h (1 Bft) W-SW 247 0 min 0,0 UV-I 0 W/m -0,9 C 1,0 C 4,8 km/h (1 Bft)
25.02.2023 00:34 1,0 C 0,0 C 87 % 1008,8 hPa 0,0 l/m 3,2 km/h (1 Bft) W-SW 247 0 min 0,0 UV-I 0 W/m -0,9 C 1,0 C 4,8 km/h (1 Bft)
25.02.2023 00:35 1,0 C 0,0 C 87 % 1008,8 hPa 0,0 l/m 0,0 km/h (0 Bft) W-SW 247 0 min 0,0 UV-I 0 W/m -0,9 C 1,0 C 1,6 km/h (1 Bft)
25.02.2023 00:36 0,9 C 0,0 C 87 % 1008,8 hPa 0,0 l/m 3,2 km/h (1 Bft) W 270 0 min 0,0 UV-I 0 W/m -1,0 C 0,9 C 4,8 km/h (1 Bft)
25.02.2023 00:37 0,9 C 0,0 C 87 % 1008,8 hPa 0,0 l/m 1,6 km/h (1 Bft) NW 315 0 min 0,0 UV-I 0 W/m -1,0 C 0,9 C 6,4 km/h (2 Bft)
25.02.2023 00:38 0,9 C 0,0 C 87 % 1008,8 hPa 0,0 l/m 1,6 km/h (1 Bft) NW 315 0 min 0,0 UV-I 0 W/m -1,0 C 0,9 C 1,6 km/h (1 Bft)
25.02.2023 00:39 0,9 C 0,0 C 87 % 1008,8 hPa 0,0 l/m 0,0 km/h (0 Bft) NW 315 0 min 0,0 UV-I 0 W/m -1,0 C 0,9 C 1,6 km/h (1 Bft)
25.02.2023 00:40 0,9 C 0,0 C 87 % 1008,8 hPa 0,0 l/m 0,0 km/h (0 Bft) NW 315 0 min 0,0 UV-I 0 W/m -1,0 C 0,9 C 1,6 km/h (1 Bft)
25.02.2023 00:41 0,9 C 0,0 C 87 % 1008,9 hPa 0,0 l/m 0,0 km/h (0 Bft) NW 315 0 min 0,0 UV-I 0 W/m -1,0 C 0,9 C 1,6 km/h (1 Bft)
25.02.2023 00:42 0,9 C 0,0 C 87 % 1008,9 hPa 0,0 l/m 0,0 km/h (0 Bft) NW 315 0 min 0,0 UV-I 0 W/m -1,0 C 0,9 C 1,6 km/h (1 Bft)
25.02.2023 00:43 0,9 C 0,0 C 87 % 1008,9 hPa 0,0 l/m 0,0 km/h (0 Bft) NW 315 0 min 0,0 UV-I 0 W/m -1,0 C 0,9 C 1,6 km/h (1 Bft)
25.02.2023 00:44 0,8 C 0,0 C 87 % 1008,8 hPa 0,0 l/m 1,6 km/h (1 Bft) W-SW 247 0 min 0,0 UV-I 0 W/m -1,1 C 0,8 C 8,0 km/h (2 Bft)
25.02.2023 00:45 0,9 C 0,0 C 87 % 1008,9 hPa 0,0 l/m 1,6 km/h (1 Bft) W-SW 247 0 min 0,0 UV-I 0 W/m -1,0 C 0,9 C 3,2 km/h (1 Bft)
25.02.2023 00:46 0,8 C 0,0 C 87 % 1008,8 hPa 0,0 l/m 1,6 km/h (1 Bft) W 270 0 min 0,0 UV-I 0 W/m -1,1 C 0,8 C 4,8 km/h (1 Bft)
25.02.2023 00:47 0,9 C 0,0 C 87 % 1008,9 hPa 0,0 l/m 1,6 km/h (1 Bft) W 270 0 min 0,0 UV-I 0 W/m -1,0 C 0,9 C 3,2 km/h (1 Bft)
25.02.2023 00:48 0,9 C 0,0 C 87 % 1008,9 hPa 0,0 l/m 3,2 km/h (1 Bft) W 270 0 min 0,0 UV-I 0 W/m -1,0 C 0,9 C 6,4 km/h (2 Bft)
25.02.2023 00:49 0,9 C 0,0 C 87 % 1008,8 hPa 0,0 l/m 6,4 km/h (2 Bft) W-NW 292 0 min 0,0 UV-I 0 W/m -1,0 C 0,9 C 11,3 km/h (2 Bft)
25.02.2023 00:50 0,8 C 0,0 C 87 % 1008,8 hPa 0,0 l/m 4,8 km/h (1 Bft) W 270 0 min 0,0 UV-I 0 W/m -1,1 C 0,8 C 11,3 km/h (2 Bft)
25.02.2023 00:51 0,9 C 0,0 C 87 % 1008,9 hPa 0,0 l/m 3,2 km/h (1 Bft) W 270 0 min 0,0 UV-I 0 W/m -1,0 C 0,9 C 9,7 km/h (2 Bft)
25.02.2023 00:52 0,9 C 0,0 C 87 % 1008,9 hPa 0,0 l/m 3,2 km/h (1 Bft) W 270 0 min 0,0 UV-I 0 W/m -1,0 C 0,9 C 4,8 km/h (1 Bft)
25.02.2023 00:53 0,9 C 0,0 C 87 % 1008,8 hPa 0,0 l/m 6,4 km/h (2 Bft) W-SW 247 0 min 0,0 UV-I 0 W/m -1,0 C 0,9 C 12,9 km/h (3 Bft)
25.02.2023 00:54 0,9 C 0,0 C 87 % 1008,9 hPa 0,0 l/m 6,4 km/h (2 Bft) W 270 0 min 0,0 UV-I 0 W/m -1,0 C 0,9 C 11,3 km/h (2 Bft)
25.02.2023 00:55 0,9 C 0,0 C 87 % 1008,8 hPa 0,0 l/m 1,6 km/h (1 Bft) W-NW 292 0 min 0,0 UV-I 0 W/m -1,0 C 0,9 C 3,2 km/h (1 Bft)
25.02.2023 00:56 0,9 C 0,0 C 87 % 1008,9 hPa 0,0 l/m 1,6 km/h (1 Bft) W-NW 292 0 min 0,0 UV-I 0 W/m -1,0 C 0,9 C 4,8 km/h (1 Bft)
25.02.2023 00:57 0,9 C 0,0 C 87 % 1008,9 hPa 0,0 l/m 3,2 km/h (1 Bft) W 270 0 min 0,0 UV-I 0 W/m -1,0 C 0,9 C 4,8 km/h (1 Bft)
25.02.2023 00:58 0,9 C 0,0 C 87 % 1009,0 hPa 0,0 l/m 4,8 km/h (1 Bft) S-SW 202 0 min 0,0 UV-I 0 W/m -1,0 C 0,9 C 9,7 km/h (2 Bft)
25.02.2023 00:59 0,9 C 0,0 C 87 % 1009,0 hPa 0,0 l/m 1,6 km/h (1 Bft) S-SW 202 0 min 0,0 UV-I 0 W/m -1,0 C 0,9 C 3,2 km/h (1 Bft)
25.02.2023 01:00 0,9 C 0,0 C 87 % 1009,0 hPa 0,0 l/m 0,0 km/h (0 Bft) S-SW 202 0 min 0,0 UV-I 0 W/m -1,0 C 0,9 C 1,6 km/h (1 Bft)
25.02.2023 01:01 1,0 C 0,0 C 87 % 1008,9 hPa 0,0 l/m 0,0 km/h (0 Bft) N 0 0 min 0,0 UV-I 0 W/m -0,9 C 1,0 C 0,0 km/h (0 Bft)
25.02.2023 01:02 0,9 C 0,0 C 87 % 1009,0 hPa 0,0 l/m 0,0 km/h (0 Bft) SW 225 0 min 0,0 UV-I 0 W/m -1,0 C 0,9 C 1,6 km/h (1 Bft)
25.02.2023 01:03 1,0 C 0,0 C 87 % 1008,9 hPa 0,0 l/m 3,2 km/h (1 Bft) W 270 0 min 0,0 UV-I 0 W/m -0,9 C 1,0 C 8,0 km/h (2 Bft)
25.02.2023 01:04 1,0 C 0,0 C 87 % 1009,0 hPa 0,0 l/m 1,6 km/h (1 Bft) NW 315 0 min 0,0 UV-I 0 W/m -0,9 C 1,0 C 3,2 km/h (1 Bft)
25.02.2023 01:05 1,0 C 0,6 C 87 % 1009,0 hPa 0,0 l/m 4,8 km/h (1 Bft) NW 315 0 min 0,0 UV-I 0 W/m -0,9 C 1,0 C 8,0 km/h (2 Bft)
25.02.2023 01:06 1,0 C 0,6 C 87 % 1009,0 hPa 0,0 l/m 3,2 km/h (1 Bft) W-NW 292 0 min 0,0 UV-I 0 W/m -0,9 C 1,0 C 6,4 km/h (2 Bft)
25.02.2023 01:07 1,1 C 0,6 C 87 % 1008,9 hPa 0,0 l/m 4,8 km/h (1 Bft) W-NW 292 0 min 0,0 UV-I 0 W/m -0,8 C 1,1 C 8,0 km/h (2 Bft)
25.02.2023 01:08 1,1 C 0,6 C 87 % 1009,0 hPa 0,0 l/m 3,2 km/h (1 Bft) W-SW 247 0 min 0,0 UV-I 0 W/m -0,8 C 1,1 C 6,4 km/h (2 Bft)
25.02.2023 01:09 1,1 C 0,6 C 87 % 1009,0 hPa 0,0 l/m 1,6 km/h (1 Bft) NW 315 0 min 0,0 UV-I 0 W/m -0,8 C 1,1 C 8,0 km/h (2 Bft)
25.02.2023 01:10 1,1 C 0,6 C 87 % 1009,0 hPa 0,0 l/m 6,4 km/h (2 Bft) NW 315 0 min 0,0 UV-I 0 W/m -0,8 C 1,1 C 11,3 km/h (2 Bft)
25.02.2023 01:11 1,1 C 0,6 C 87 % 1009,1 hPa 0,0 l/m 0,0 km/h (0 Bft) NW 315 0 min 0,0 UV-I 0 W/m -0,8 C 1,1 C 1,6 km/h (1 Bft)
25.02.2023 01:12 1,1 C 0,6 C 87 % 1009,0 hPa 0,0 l/m 0,0 km/h (0 Bft) NW 315 0 min 0,0 UV-I 0 W/m -0,8 C 1,1 C 1,6 km/h (1 Bft)
25.02.2023 01:13 1,1 C 0,6 C 87 % 1009,0 hPa 0,0 l/m 0,0 km/h (0 Bft) NW 315 0 min 0,0 UV-I 0 W/m -0,8 C 1,1 C 1,6 km/h (1 Bft)
25.02.2023 01:14 1,1 C 0,6 C 87 % 1009,0 hPa 0,0 l/m 1,6 km/h (1 Bft) NW 315 0 min 0,0 UV-I 0 W/m -0,8 C 1,1 C 3,2 km/h (1 Bft)
25.02.2023 01:15 1,1 C 0,6 C 87 % 1009,0 hPa 0,0 l/m 1,6 km/h (1 Bft) NW 315 0 min 0,0 UV-I 0 W/m -0,8 C 1,1 C 3,2 km/h (1 Bft)
25.02.2023 01:16 1,1 C 0,6 C 87 % 1009,0 hPa 0,0 l/m 6,4 km/h (2 Bft) W 270 0 min 0,0 UV-I 0 W/m -0,8 C 1,1 C 11,3 km/h (2 Bft)
25.02.2023 01:17 1,1 C 0,6 C 87 % 1009,0 hPa 0,0 l/m 1,6 km/h (1 Bft) W-NW 292 0 min 0,0 UV-I 0 W/m -0,8 C 1,1 C 6,4 km/h (2 Bft)
25.02.2023 01:18 1,1 C 0,6 C 87 % 1009,0 hPa 0,0 l/m 0,0 km/h (0 Bft) W-NW 292 0 min 0,0 UV-I 0 W/m -0,8 C 1,1 C 1,6 km/h (1 Bft)
25.02.2023 01:19 1,1 C 0,6 C 87 % 1009,0 hPa 0,0 l/m 0,0 km/h (0 Bft) W-NW 292 0 min 0,0 UV-I 0 W/m -0,8 C 1,1 C 1,6 km/h (1 Bft)
25.02.2023 01:20 1,1 C 0,6 C 87 % 1008,9 hPa 0,0 l/m 1,6 km/h (1 Bft) W-NW 292 0 min 0,0 UV-I 0 W/m -0,8 C 1,1 C 3,2 km/h (1 Bft)
25.02.2023 01:21 1,1 C 0,6 C 87 % 1009,0 hPa 0,0 l/m 3,2 km/h (1 Bft) W-NW 292 0 min 0,0 UV-I 0 W/m -0,8 C 1,1 C 8,0 km/h (2 Bft)
25.02.2023 01:22 1,1 C 0,6 C 87 % 1009,0 hPa 0,0 l/m 1,6 km/h (1 Bft) W-NW 292 0 min 0,0 UV-I 0 W/m -0,8 C 1,1 C 3,2 km/h (1 Bft)
25.02.2023 01:23 1,1 C 0,6 C 87 % 1008,8 hPa 0,0 l/m 0,0 km/h (0 Bft) W-NW 292 0 min 0,0 UV-I 0 W/m -0,8 C 1,1 C 1,6 km/h (1 Bft)
25.02.2023 01:24 1,1 C 0,6 C 87 % 1008,9 hPa 0,0 l/m 0,0 km/h (0 Bft) N 0 0 min 0,0 UV-I 0 W/m -0,8 C 1,1 C 0,0 km/h (0 Bft)
25.02.2023 01:25 1,1 C 0,6 C 87 % 1008,9 hPa 0,0 l/m 1,6 km/h (1 Bft) W-NW 292 0 min 0,0 UV-I 0 W/m -0,8 C 1,1 C 6,4 km/h (2 Bft)
25.02.2023 01:26 1,1 C 0,6 C 87 % 1008,9 hPa 0,0 l/m 4,8 km/h (1 Bft) N 360 0 min 0,0 UV-I 0 W/m -0,8 C 1,1 C 12,9 km/h (3 Bft)
25.02.2023 01:27 1,1 C 0,6 C 87 % 1008,9 hPa 0,0 l/m 1,6 km/h (1 Bft) W-SW 247 0 min 0,0 UV-I 0 W/m -0,8 C 1,1 C 3,2 km/h (1 Bft)
25.02.2023 01:28 1,1 C 0,6 C 87 % 1009,0 hPa 0,0 l/m 1,6 km/h (1 Bft) W-SW 247 0 min 0,0 UV-I 0 W/m -0,8 C 1,1 C 4,8 km/h (1 Bft)
25.02.2023 01:29 1,2 C 0,6 C 87 % 1009,0 hPa 0,0 l/m 3,2 km/h (1 Bft) W-SW 247 0 min 0,0 UV-I 0 W/m -0,7 C 1,2 C 6,4 km/h (2 Bft)
25.02.2023 01:30 1,1 C 0,6 C 87 % 1009,0 hPa 0,0 l/m 3,2 km/h (1 Bft) W 270 0 min 0,0 UV-I 0 W/m -0,8 C 1,1 C 6,4 km/h (2 Bft)
25.02.2023 01:31 1,2 C 0,6 C 87 % 1009,1 hPa 0,0 l/m 1,6 km/h (1 Bft) W 270 0 min 0,0 UV-I 0 W/m -0,7 C 1,2 C 4,8 km/h (1 Bft)
25.02.2023 01:32 1,2 C 0,6 C 87 % 1009,0 hPa 0,0 l/m 0,0 km/h (0 Bft) W 270 0 min 0,0 UV-I 0 W/m -0,7 C 1,2 C 3,2 km/h (1 Bft)
25.02.2023 01:33 1,1 C 0,6 C 87 % 1009,0 hPa 0,0 l/m 6,4 km/h (2 Bft) W-NW 292 0 min 0,0 UV-I 0 W/m -0,8 C 1,1 C 11,3 km/h (2 Bft)
25.02.2023 01:34 1,2 C 0,6 C 87 % 1009,0 hPa 0,0 l/m 3,2 km/h (1 Bft) W 270 0 min 0,0 UV-I 0 W/m -0,7 C 1,2 C 4,8 km/h (1 Bft)
25.02.2023 01:35 1,1 C 0,6 C 87 % 1009,1 hPa 0,0 l/m 3,2 km/h (1 Bft) W-SW 247 0 min 0,0 UV-I 0 W/m -0,8 C 1,1 C 6,4 km/h (2 Bft)
25.02.2023 01:36 1,2 C 0,6 C 87 % 1009,1 hPa 0,0 l/m 3,2 km/h (1 Bft) W-NW 292 0 min 0,0 UV-I 0 W/m -0,7 C 1,2 C 8,0 km/h (2 Bft)
25.02.2023 01:37 1,2 C 0,6 C 87 % 1009,0 hPa 0,0 l/m 4,8 km/h (1 Bft) SW 225 0 min 0,0 UV-I 0 W/m -0,7 C 1,2 C 9,7 km/h (2 Bft)
25.02.2023 01:38 1,2 C 0,6 C 87 % 1009,1 hPa 0,0 l/m 9,7 km/h (2 Bft) W-NW 292 0 min 0,0 UV-I 0 W/m -0,7 C -1,9 C 19,3 km/h (3 Bft)
25.02.2023 01:39 1,2 C 0,6 C 87 % 1009,1 hPa 0,0 l/m 9,7 km/h (2 Bft) W 270 0 min 0,0 UV-I 0 W/m -0,7 C -1,9 C 16,1 km/h (3 Bft)
25.02.2023 01:40 1,2 C 0,6 C 87 % 1009,1 hPa 0,0 l/m 14,5 km/h (3 Bft) NW 315 0 min 0,0 UV-I 0 W/m -0,7 C -5,2 C 20,9 km/h (4 Bft)
25.02.2023 01:41 1,2 C 0,6 C 87 % 1009,0 hPa 0,0 l/m 4,8 km/h (1 Bft) W-NW 292 0 min 0,0 UV-I 0 W/m -0,7 C 1,2 C 20,9 km/h (4 Bft)
25.02.2023 01:42 1,2 C 0,6 C 87 % 1009,1 hPa 0,0 l/m 3,2 km/h (1 Bft) W-NW 292 0 min 0,0 UV-I 0 W/m -0,7 C 1,2 C 9,7 km/h (2 Bft)
25.02.2023 01:43 1,2 C 0,6 C 87 % 1009,1 hPa 0,0 l/m 1,6 km/h (1 Bft) W-SW 247 0 min 0,0 UV-I 0 W/m -0,7 C 1,2 C 4,8 km/h (1 Bft)
25.02.2023 01:44 1,2 C 0,6 C 87 % 1009,1 hPa 0,0 l/m 1,6 km/h (1 Bft) N-NW 337 0 min 0,0 UV-I 0 W/m -0,7 C 1,2 C 4,8 km/h (1 Bft)
25.02.2023 01:45 1,2 C 0,6 C 87 % 1009,1 hPa 0,0 l/m 1,6 km/h (1 Bft) N-NW 337 0 min 0,0 UV-I 0 W/m -0,7 C 1,2 C 1,6 km/h (1 Bft)
25.02.2023 01:46 1,2 C 0,6 C 87 % 1009,2 hPa 0,0 l/m 1,6 km/h (1 Bft) NW 315 0 min 0,0 UV-I 0 W/m -0,7 C 1,2 C 8,0 km/h (2 Bft)
25.02.2023 01:47 1,2 C 0,6 C 87 % 1009,1 hPa 0,0 l/m 4,8 km/h (1 Bft) W 270 0 min 0,0 UV-I 0 W/m -0,7 C 1,2 C 14,5 km/h (3 Bft)
25.02.2023 01:48 1,2 C 0,6 C 87 % 1009,1 hPa 0,0 l/m 8,0 km/h (2 Bft) W 270 0 min 0,0 UV-I 0 W/m -0,7 C -0,4 C 16,1 km/h (3 Bft)
25.02.2023 01:49 1,2 C 0,6 C 87 % 1009,2 hPa 0,0 l/m 8,0 km/h (2 Bft) W 270 0 min 0,0 UV-I 0 W/m -0,7 C -0,4 C 16,1 km/h (3 Bft)
25.02.2023 01:50 1,2 C 0,6 C 87 % 1009,2 hPa 0,0 l/m 3,2 km/h (1 Bft) W-SW 247 0 min 0,0 UV-I 0 W/m -0,7 C 1,2 C 12,9 km/h (3 Bft)
25.02.2023 01:51 1,2 C 0,6 C 87 % 1009,1 hPa 0,0 l/m 1,6 km/h (1 Bft) W-NW 292 0 min 0,0 UV-I 0 W/m -0,7 C 1,2 C 3,2 km/h (1 Bft)
25.02.2023 01:52 1,2 C 0,6 C 87 % 1009,2 hPa 0,0 l/m 1,6 km/h (1 Bft) W 270 0 min 0,0 UV-I 0 W/m -0,7 C 1,2 C 3,2 km/h (1 Bft)
25.02.2023 01:53 1,2 C 0,6 C 87 % 1009,3 hPa 0,0 l/m 8,0 km/h (2 Bft) W 270 0 min 0,0 UV-I 0 W/m -0,7 C -0,4 C 12,9 km/h (3 Bft)
25.02.2023 01:54 1,2 C 0,6 C 87 % 1009,3 hPa 0,0 l/m 4,8 km/h (1 Bft) W 270 0 min 0,0 UV-I 0 W/m -0,7 C 1,2 C 6,4 km/h (2 Bft)
25.02.2023 01:55 1,2 C 0,6 C 87 % 1009,3 hPa 0,0 l/m 6,4 km/h (2 Bft) SW 225 0 min 0,0 UV-I 0 W/m -0,7 C 1,2 C 12,9 km/h (3 Bft)
25.02.2023 01:56 1,2 C 0,6 C 87 % 1009,3 hPa 0,0 l/m 3,2 km/h (1 Bft) N-NW 337 0 min 0,0 UV-I 0 W/m -0,7 C 1,2 C 9,7 km/h (2 Bft)
25.02.2023 01:57 1,2 C 0,6 C 87 % 1009,3 hPa 0,0 l/m 4,8 km/h (1 Bft) W-NW 292 0 min 0,0 UV-I 0 W/m -0,7 C 1,2 C 12,9 km/h (3 Bft)
25.02.2023 01:58 1,2 C 0,6 C 87 % 1009,2 hPa 0,0 l/m 6,4 km/h (2 Bft) NW 315 0 min 0,0 UV-I 0 W/m -0,7 C 1,2 C 14,5 km/h (3 Bft)
25.02.2023 01:59 1,2 C 0,6 C 87 % 1009,3 hPa 0,0 l/m 4,8 km/h (1 Bft) NW 315 0 min 0,0 UV-I 0 W/m -0,7 C 1,2 C 12,9 km/h (3 Bft)
25.02.2023 02:00 1,2 C 0,6 C 87 % 1009,3 hPa 0,0 l/m 6,4 km/h (2 Bft) W-NW 292 0 min 0,0 UV-I 0 W/m -0,7 C 1,2 C 16,1 km/h (3 Bft)
25.02.2023 02:01 1,2 C 0,6 C 87 % 1009,3 hPa 0,0 l/m 6,4 km/h (2 Bft) W-NW 292 0 min 0,0 UV-I 0 W/m -0,7 C 1,2 C 11,3 km/h (2 Bft)
25.02.2023 02:02 1,2 C 0,6 C 87 % 1009,3 hPa 0,0 l/m 4,8 km/h (1 Bft) W 270 0 min 0,0 UV-I 0 W/m -0,7 C 1,2 C 11,3 km/h (2 Bft)
25.02.2023 02:03 1,2 C 0,6 C 87 % 1009,2 hPa 0,0 l/m 6,4 km/h (2 Bft) W-NW 292 0 min 0,0 UV-I 0 W/m -0,7 C 1,2 C 11,3 km/h (2 Bft)
25.02.2023 02:04 1,2 C 0,6 C 87 % 1009,2 hPa 0,0 l/m 6,4 km/h (2 Bft) NW 315 0 min 0,0 UV-I 0 W/m -0,7 C 1,2 C 17,7 km/h (3 Bft)
25.02.2023 02:05 1,2 C 0,6 C 86 % 1009,3 hPa 0,0 l/m 14,5 km/h (3 Bft) W-NW 292 0 min 0,0 UV-I 0 W/m -0,9 C -5,2 C 25,7 km/h (4 Bft)
25.02.2023 02:06 1,2 C 0,6 C 86 % 1009,1 hPa 0,0 l/m 14,5 km/h (3 Bft) W-SW 247 0 min 0,0 UV-I 0 W/m -0,9 C -5,2 C 25,7 km/h (4 Bft)
25.02.2023 02:07 1,2 C 0,6 C 86 % 1009,2 hPa 0,0 l/m 4,8 km/h (1 Bft) W-NW 292 0 min 0,0 UV-I 0 W/m -0,9 C 1,2 C 8,0 km/h (2 Bft)
25.02.2023 02:08 1,2 C 0,6 C 86 % 1009,1 hPa 0,0 l/m 1,6 km/h (1 Bft) W-NW 292 0 min 0,0 UV-I 0 W/m -0,9 C 1,2 C 4,8 km/h (1 Bft)
25.02.2023 02:09 1,2 C 0,6 C 86 % 1009,1 hPa 0,0 l/m 8,0 km/h (2 Bft) NW 315 0 min 0,0 UV-I 0 W/m -0,9 C -0,4 C 16,1 km/h (3 Bft)
25.02.2023 02:10 1,1 C 0,6 C 86 % 1009,1 hPa 0,0 l/m 4,8 km/h (1 Bft) W 270 0 min 0,0 UV-I 0 W/m -1,0 C 1,1 C 11,3 km/h (2 Bft)
25.02.2023 02:11 1,2 C 0,6 C 86 % 1009,1 hPa 0,0 l/m 4,8 km/h (1 Bft) W-NW 292 0 min 0,0 UV-I 0 W/m -0,9 C 1,2 C 14,5 km/h (3 Bft)
25.02.2023 02:12 1,2 C 0,6 C 86 % 1009,1 hPa 0,0 l/m 4,8 km/h (1 Bft) W-NW 292 0 min 0,0 UV-I 0 W/m -0,9 C 1,2 C 11,3 km/h (2 Bft)
25.02.2023 02:13 1,2 C 0,6 C 86 % 1009,2 hPa 0,0 l/m 4,8 km/h (1 Bft) W 270 0 min 0,0 UV-I 0 W/m -0,9 C 1,2 C 14,5 km/h (3 Bft)
25.02.2023 02:14 1,1 C 0,6 C 86 % 1009,1 hPa 0,0 l/m 3,2 km/h (1 Bft) W 270 0 min 0,0 UV-I 0 W/m -1,0 C 1,1 C 9,7 km/h (2 Bft)
25.02.2023 02:15 1,1 C 0,6 C 86 % 1009,1 hPa 0,0 l/m 8,0 km/h (2 Bft) W-NW 292 0 min 0,0 UV-I 0 W/m -1,0 C -0,5 C 12,9 km/h (3 Bft)
25.02.2023 02:16 1,1 C 0,6 C 86 % 1009,2 hPa 0,0 l/m 4,8 km/h (1 Bft) W 270 0 min 0,0 UV-I 0 W/m -1,0 C 1,1 C 6,4 km/h (2 Bft)
25.02.2023 02:17 1,1 C 0,6 C 86 % 1009,1 hPa 0,0 l/m 6,4 km/h (2 Bft) NW 315 0 min 0,0 UV-I 0 W/m -1,0 C 1,1 C 11,3 km/h (2 Bft)
25.02.2023 02:18 1,1 C 0,6 C 86 % 1009,1 hPa 0,0 l/m 4,8 km/h (1 Bft) W 270 0 min 0,0 UV-I 0 W/m -1,0 C 1,1 C 11,3 km/h (2 Bft)
25.02.2023 02:19 1,1 C 0,6 C 86 % 1009,2 hPa 0,0 l/m 3,2 km/h (1 Bft) W-NW 292 0 min 0,0 UV-I 0 W/m -1,0 C 1,1 C 4,8 km/h (1 Bft)
25.02.2023 02:20 1,1 C 0,6 C 86 % 1009,1 hPa 0,0 l/m 1,6 km/h (1 Bft) W-NW 292 0 min 0,0 UV-I 0 W/m -1,0 C 1,1 C 4,8 km/h (1 Bft)
25.02.2023 02:21 1,1 C 0,6 C 86 % 1009,1 hPa 0,0 l/m 6,4 km/h (2 Bft) W-NW 292 0 min 0,0 UV-I 0 W/m -1,0 C 1,1 C 12,9 km/h (3 Bft)
25.02.2023 02:22 1,1 C 0,6 C 86 % 1009,2 hPa 0,0 l/m 3,2 km/h (1 Bft) W-NW 292 0 min 0,0 UV-I 0 W/m -1,0 C 1,1 C 11,3 km/h (2 Bft)
25.02.2023 02:23 1,1 C 0,6 C 86 % 1009,2 hPa 0,0 l/m 3,2 km/h (1 Bft) NW 315 0 min 0,0 UV-I 0 W/m -1,0 C 1,1 C 6,4 km/h (2 Bft)
25.02.2023 02:24 1,1 C 0,6 C 86 % 1009,1 hPa 0,0 l/m 9,7 km/h (2 Bft) NW 315 0 min 0,0 UV-I 0 W/m -1,0 C -2,0 C 19,3 km/h (3 Bft)
25.02.2023 02:25 1,1 C 0,6 C 86 % 1009,1 hPa 0,0 l/m 8,0 km/h (2 Bft) W-SW 247 0 min 0,0 UV-I 0 W/m -1,0 C -0,5 C 16,1 km/h (3 Bft)
25.02.2023 02:26 1,1 C 0,6 C 86 % 1009,1 hPa 0,0 l/m 1,6 km/h (1 Bft) W-SW 247 0 min 0,0 UV-I 0 W/m -1,0 C 1,1 C 3,2 km/h (1 Bft)
25.02.2023 02:27 1,1 C 0,6 C 86 % 1009,1 hPa 0,0 l/m 1,6 km/h (1 Bft) W-SW 247 0 min 0,0 UV-I 0 W/m -1,0 C 1,1 C 6,4 km/h (2 Bft)
25.02.2023 02:28 1,1 C 0,6 C 86 % 1009,1 hPa 0,0 l/m 8,0 km/h (2 Bft) W-NW 292 0 min 0,0 UV-I 0 W/m -1,0 C -0,5 C 11,3 km/h (2 Bft)
25.02.2023 02:29 1,1 C 0,6 C 86 % 1009,1 hPa 0,0 l/m 3,2 km/h (1 Bft) W 270 0 min 0,0 UV-I 0 W/m -1,0 C 1,1 C 6,4 km/h (2 Bft)
25.02.2023 02:30 1,1 C 0,6 C 86 % 1009,1 hPa 0,0 l/m 8,0 km/h (2 Bft) NW 315 0 min 0,0 UV-I 0 W/m -1,0 C -0,5 C 16,1 km/h (3 Bft)
25.02.2023 02:31 1,1 C 0,6 C 86 % 1009,1 hPa 0,0 l/m 9,7 km/h (2 Bft) W-NW 292 0 min 0,0 UV-I 0 W/m -1,0 C -2,0 C 16,1 km/h (3 Bft)
25.02.2023 02:32 1,0 C 0,6 C 86 % 1008,9 hPa 0,0 l/m 4,8 km/h (1 Bft) W 270 0 min 0,0 UV-I 0 W/m -1,1 C 1,0 C 11,3 km/h (2 Bft)
25.02.2023 02:33 1,0 C 0,6 C 86 % 1009,1 hPa 0,0 l/m 3,2 km/h (1 Bft) W 270 0 min 0,0 UV-I 0 W/m -1,1 C 1,0 C 4,8 km/h (1 Bft)
25.02.2023 02:34 1,0 C 0,6 C 86 % 1009,1 hPa 0,0 l/m 1,6 km/h (1 Bft) NW 315 0 min 0,0 UV-I 0 W/m -1,1 C 1,0 C 4,8 km/h (1 Bft)
25.02.2023 02:35 1,0 C 0,6 C 86 % 1009,0 hPa 0,0 l/m 3,2 km/h (1 Bft) NW 315 0 min 0,0 UV-I 0 W/m -1,1 C 1,0 C 6,4 km/h (2 Bft)
25.02.2023 02:36 1,0 C 0,6 C 86 % 1009,0 hPa 0,0 l/m 4,8 km/h (1 Bft) NW 315 0 min 0,0 UV-I 0 W/m -1,1 C 1,0 C 6,4 km/h (2 Bft)
25.02.2023 02:37 1,0 C 0,6 C 86 % 1009,1 hPa 0,0 l/m 3,2 km/h (1 Bft) NW 315 0 min 0,0 UV-I 0 W/m -1,1 C 1,0 C 8,0 km/h (2 Bft)
25.02.2023 02:38 1,0 C 0,6 C 86 % 1009,0 hPa 0,0 l/m 4,8 km/h (1 Bft) N-NW 337 0 min 0,0 UV-I 0 W/m -1,1 C 1,0 C 8,0 km/h (2 Bft)
25.02.2023 02:39 1,0 C 0,6 C 86 % 1009,0 hPa 0,0 l/m 4,8 km/h (1 Bft) W 270 0 min 0,0 UV-I 0 W/m -1,1 C 1,0 C 9,7 km/h (2 Bft)
25.02.2023 02:40 1,0 C 0,6 C 86 % 1009,1 hPa 0,0 l/m 6,4 km/h (2 Bft) W 270 0 min 0,0 UV-I 0 W/m -1,1 C 1,0 C 16,1 km/h (3 Bft)
25.02.2023 02:41 1,0 C 0,6 C 86 % 1009,1 hPa 0,0 l/m 8,0 km/h (2 Bft) W 270 0 min 0,0 UV-I 0 W/m -1,1 C -0,6 C 14,5 km/h (3 Bft)
25.02.2023 02:42 0,9 C 0,6 C 86 % 1009,1 hPa 0,0 l/m 4,8 km/h (1 Bft) W-SW 247 0 min 0,0 UV-I 0 W/m -1,2 C 0,9 C 11,3 km/h (2 Bft)
25.02.2023 02:43 0,9 C 0,6 C 86 % 1009,2 hPa 0,0 l/m 9,7 km/h (2 Bft) W-NW 292 0 min 0,0 UV-I 0 W/m -1,2 C -2,2 C 17,7 km/h (3 Bft)
25.02.2023 02:44 0,9 C 0,6 C 86 % 1008,9 hPa 0,0 l/m 8,0 km/h (2 Bft) W 270 0 min 0,0 UV-I 0 W/m -1,2 C -0,7 C 14,5 km/h (3 Bft)
25.02.2023 02:45 0,9 C 0,6 C 86 % 1009,0 hPa 0,0 l/m 8,0 km/h (2 Bft) NW 315 0 min 0,0 UV-I 0 W/m -1,2 C -0,7 C 12,9 km/h (3 Bft)
25.02.2023 02:46 0,9 C 0,6 C 86 % 1009,0 hPa 0,0 l/m 3,2 km/h (1 Bft) NW 315 0 min 0,0 UV-I 0 W/m -1,2 C 0,9 C 6,4 km/h (2 Bft)
25.02.2023 02:47 0,9 C 0,0 C 86 % 1009,0 hPa 0,0 l/m 3,2 km/h (1 Bft) SW 225 0 min 0,0 UV-I 0 W/m -1,2 C 0,9 C 4,8 km/h (1 Bft)
25.02.2023 02:48 0,9 C 0,0 C 86 % 1009,0 hPa 0,0 l/m 3,2 km/h (1 Bft) W 270 0 min 0,0 UV-I 0 W/m -1,2 C 0,9 C 6,4 km/h (2 Bft)
25.02.2023 02:49 0,9 C 0,0 C 86 % 1009,0 hPa 0,0 l/m 4,8 km/h (1 Bft) SW 225 0 min 0,0 UV-I 0 W/m -1,2 C 0,9 C 8,0 km/h (2 Bft)
25.02.2023 02:50 0,9 C 0,0 C 86 % 1008,9 hPa 0,0 l/m 0,0 km/h (0 Bft) SW 225 0 min 0,0 UV-I 0 W/m -1,2 C 0,9 C 3,2 km/h (1 Bft)
25.02.2023 02:51 0,9 C 0,0 C 86 % 1008,9 hPa 0,0 l/m 6,4 km/h (2 Bft) SW 225 0 min 0,0 UV-I 0 W/m -1,2 C 0,9 C 14,5 km/h (3 Bft)
25.02.2023 02:52 0,9 C 0,0 C 86 % 1009,0 hPa 0,0 l/m 4,8 km/h (1 Bft) W-SW 247 0 min 0,0 UV-I 0 W/m -1,2 C 0,9 C 8,0 km/h (2 Bft)
25.02.2023 02:53 0,9 C 0,0 C 86 % 1009,0 hPa 0,0 l/m 3,2 km/h (1 Bft) W-SW 247 0 min 0,0 UV-I 0 W/m -1,2 C 0,9 C 3,2 km/h (1 Bft)
25.02.2023 02:54 0,9 C 0,0 C 86 % 1009,1 hPa 0,0 l/m 6,4 km/h (2 Bft) W-NW 292 0 min 0,0 UV-I 0 W/m -1,2 C 0,9 C 12,9 km/h (3 Bft)
25.02.2023 02:55 0,9 C 0,0 C 86 % 1009,1 hPa 0,0 l/m 4,8 km/h (1 Bft) W 270 0 min 0,0 UV-I 0 W/m -1,2 C 0,9 C 9,7 km/h (2 Bft)
25.02.2023 02:56 0,9 C 0,0 C 86 % 1009,1 hPa 0,0 l/m 3,2 km/h (1 Bft) N-NW 337 0 min 0,0 UV-I 0 W/m -1,2 C 0,9 C 8,0 km/h (2 Bft)
25.02.2023 02:57 0,9 C 0,0 C 86 % 1009,1 hPa 0,0 l/m 3,2 km/h (1 Bft) NW 315 0 min 0,0 UV-I 0 W/m -1,2 C 0,9 C 6,4 km/h (2 Bft)
25.02.2023 02:58 0,9 C 0,0 C 86 % 1009,1 hPa 0,0 l/m 3,2 km/h (1 Bft) W 270 0 min 0,0 UV-I 0 W/m -1,2 C 0,9 C 11,3 km/h (2 Bft)
25.02.2023 02:59 0,9 C 0,0 C 86 % 1009,0 hPa 0,0 l/m 6,4 km/h (2 Bft) W 270 0 min 0,0 UV-I 0 W/m -1,2 C 0,9 C 11,3 km/h (2 Bft)
25.02.2023 03:00 0,9 C 0,0 C 86 % 1009,1 hPa 0,0 l/m 3,2 km/h (1 Bft) W 270 0 min 0,0 UV-I 0 W/m -1,2 C 0,9 C 6,4 km/h (2 Bft)
25.02.2023 03:01 0,9 C 0,0 C 86 % 1009,1 hPa 0,0 l/m 6,4 km/h (2 Bft) W-SW 247 0 min 0,0 UV-I 0 W/m -1,2 C 0,9 C 12,9 km/h (3 Bft)
25.02.2023 03:02 0,9 C 0,0 C 86 % 1009,1 hPa 0,0 l/m 8,0 km/h (2 Bft) W-SW 247 0 min 0,0 UV-I 0 W/m -1,2 C -0,7 C 11,3 km/h (2 Bft)
25.02.2023 03:03 0,9 C 0,0 C 86 % 1009,0 hPa 0,0 l/m 3,2 km/h (1 Bft) W-SW 247 0 min 0,0 UV-I 0 W/m -1,2 C 0,9 C 6,4 km/h (2 Bft)
25.02.2023 03:04 0,9 C 0,0 C 86 % 1009,1 hPa 0,0 l/m 3,2 km/h (1 Bft) W 270 0 min 0,0 UV-I 0 W/m -1,2 C 0,9 C 6,4 km/h (2 Bft)
25.02.2023 03:05 0,9 C 0,0 C 86 % 1009,0 hPa 0,0 l/m 3,2 km/h (1 Bft) W-SW 247 0 min 0,0 UV-I 0 W/m -1,2 C 0,9 C 4,8 km/h (1 Bft)
25.02.2023 03:06 0,9 C 0,0 C 86 % 1009,1 hPa 0,0 l/m 4,8 km/h (1 Bft) W 270 0 min 0,0 UV-I 0 W/m -1,2 C 0,9 C 9,7 km/h (2 Bft)
25.02.2023 03:07 0,9 C 0,0 C 86 % 1009,1 hPa 0,0 l/m 8,0 km/h (2 Bft) W 270 0 min 0,0 UV-I 0 W/m -1,2 C -0,7 C 14,5 km/h (3 Bft)
25.02.2023 03:08 0,8 C 0,0 C 86 % 1009,0 hPa 0,0 l/m 3,2 km/h (1 Bft) W 270 0 min 0,0 UV-I 0 W/m -1,3 C 0,8 C 4,8 km/h (1 Bft)
25.02.2023 03:09 0,9 C 0,0 C 86 % 1009,1 hPa 0,0 l/m 1,6 km/h (1 Bft) W 270 0 min 0,0 UV-I 0 W/m -1,2 C 0,9 C 4,8 km/h (1 Bft)
25.02.2023 03:10 0,9 C 0,0 C 86 % 1009,1 hPa 0,0 l/m 3,2 km/h (1 Bft) W-SW 247 0 min 0,0 UV-I 0 W/m -1,2 C 0,9 C 6,4 km/h (2 Bft)
25.02.2023 03:11 0,8 C 0,0 C 86 % 1009,1 hPa 0,0 l/m 1,6 km/h (1 Bft) W 270 0 min 0,0 UV-I 0 W/m -1,3 C 0,8 C 4,8 km/h (1 Bft)
25.02.2023 03:12 0,8 C 0,0 C 86 % 1009,1 hPa 0,0 l/m 3,2 km/h (1 Bft) NW 315 0 min 0,0 UV-I 0 W/m -1,3 C 0,8 C 12,9 km/h (3 Bft)
25.02.2023 03:13 0,8 C 0,0 C 86 % 1009,1 hPa 0,0 l/m 6,4 km/h (2 Bft) NW 315 0 min 0,0 UV-I 0 W/m -1,3 C 0,8 C 11,3 km/h (2 Bft)
25.02.2023 03:14 0,8 C 0,0 C 86 % 1009,1 hPa 0,0 l/m 3,2 km/h (1 Bft) W-SW 247 0 min 0,0 UV-I 0 W/m -1,3 C 0,8 C 4,8 km/h (1 Bft)
25.02.2023 03:15 0,8 C 0,0 C 86 % 1009,1 hPa 0,0 l/m 3,2 km/h (1 Bft) W-SW 247 0 min 0,0 UV-I 0 W/m -1,3 C 0,8 C 4,8 km/h (1 Bft)
25.02.2023 03:16 0,8 C 0,0 C 86 % 1009,2 hPa 0,0 l/m 1,6 km/h (1 Bft) W-SW 247 0 min 0,0 UV-I 0 W/m -1,3 C 0,8 C 4,8 km/h (1 Bft)
25.02.2023 03:17 0,8 C 0,0 C 86 % 1009,3 hPa 0,0 l/m 6,4 km/h (2 Bft) W-NW 292 0 min 0,0 UV-I 0 W/m -1,3 C 0,8 C 11,3 km/h (2 Bft)
25.02.2023 03:18 0,8 C 0,0 C 86 % 1009,2 hPa 0,0 l/m 6,4 km/h (2 Bft) W-SW 247 0 min 0,0 UV-I 0 W/m -1,3 C 0,8 C 12,9 km/h (3 Bft)
25.02.2023 03:19 0,8 C 0,0 C 86 % 1009,2 hPa 0,0 l/m 3,2 km/h (1 Bft) W-SW 247 0 min 0,0 UV-I 0 W/m -1,3 C 0,8 C 6,4 km/h (2 Bft)
25.02.2023 03:20 0,8 C 0,0 C 86 % 1009,2 hPa 0,0 l/m 3,2 km/h (1 Bft) NW 315 0 min 0,0 UV-I 0 W/m -1,3 C 0,8 C 4,8 km/h (1 Bft)
25.02.2023 03:21 0,8 C 0,6 C 86 % 1009,2 hPa 0,0 l/m 3,2 km/h (1 Bft) NW 315 0 min 0,0 UV-I 0 W/m -1,3 C 0,8 C 8,0 km/h (2 Bft)
25.02.2023 03:22 0,8 C 0,6 C 86 % 1009,2 hPa 0,0 l/m 3,2 km/h (1 Bft) W-NW 292 0 min 0,0 UV-I 0 W/m -1,3 C 0,8 C 6,4 km/h (2 Bft)
25.02.2023 03:23 0,8 C 0,6 C 86 % 1009,1 hPa 0,0 l/m 1,6 km/h (1 Bft) N-NW 337 0 min 0,0 UV-I 0 W/m -1,3 C 0,8 C 4,8 km/h (1 Bft)
25.02.2023 03:24 0,8 C 0,6 C 86 % 1009,2 hPa 0,0 l/m 0,0 km/h (0 Bft) N-NW 337 0 min 0,0 UV-I 0 W/m -1,3 C 0,8 C 3,2 km/h (1 Bft)
25.02.2023 03:25 0,8 C 0,6 C 86 % 1009,2 hPa 0,0 l/m 3,2 km/h (1 Bft) W 270 0 min 0,0 UV-I 0 W/m -1,3 C 0,8 C 4,8 km/h (1 Bft)
25.02.2023 03:26 0,9 C 0,0 C 86 % 1009,2 hPa 0,0 l/m 1,6 km/h (1 Bft) W 270 0 min 0,0 UV-I 0 W/m -1,2 C 0,9 C 3,2 km/h (1 Bft)
25.02.2023 03:27 0,9 C 0,6 C 86 % 1009,2 hPa 0,0 l/m 1,6 km/h (1 Bft) W 270 0 min 0,0 UV-I 0 W/m -1,2 C 0,9 C 6,4 km/h (2 Bft)
25.02.2023 03:28 0,8 C 0,6 C 86 % 1009,1 hPa 0,0 l/m 1,6 km/h (1 Bft) N-NW 337 0 min 0,0 UV-I 0 W/m -1,3 C 0,8 C 4,8 km/h (1 Bft)
25.02.2023 03:29 0,8 C 0,6 C 86 % 1009,1 hPa 0,0 l/m 0,0 km/h (0 Bft) N-NW 337 0 min 0,0 UV-I 0 W/m -1,3 C 0,8 C 1,6 km/h (1 Bft)
25.02.2023 03:30 0,8 C 0,0 C 86 % 1009,2 hPa 0,0 l/m 4,8 km/h (1 Bft) NW 315 0 min 0,0 UV-I 0 W/m -1,3 C 0,8 C 12,9 km/h (3 Bft)
25.02.2023 03:31 0,8 C 0,0 C 86 % 1009,2 hPa 0,0 l/m 6,4 km/h (2 Bft) W 270 0 min 0,0 UV-I 0 W/m -1,3 C 0,8 C 11,3 km/h (2 Bft)
25.02.2023 03:32 0,9 C 0,0 C 86 % 1009,2 hPa 0,0 l/m 1,6 km/h (1 Bft) W-NW 292 0 min 0,0 UV-I 0 W/m -1,2 C 0,9 C 4,8 km/h (1 Bft)
25.02.2023 03:33 0,9 C 0,0 C 86 % 1009,2 hPa 0,0 l/m 3,2 km/h (1 Bft) W-SW 247 0 min 0,0 UV-I 0 W/m -1,2 C 0,9 C 9,7 km/h (2 Bft)
25.02.2023 03:34 0,8 C 0,0 C 86 % 1009,1 hPa 0,0 l/m 3,2 km/h (1 Bft) W 270 0 min 0,0 UV-I 0 W/m -1,3 C 0,8 C 4,8 km/h (1 Bft)
25.02.2023 03:35 0,8 C 0,0 C 86 % 1009,1 hPa 0,0 l/m 3,2 km/h (1 Bft) W-SW 247 0 min 0,0 UV-I 0 W/m -1,3 C 0,8 C 6,4 km/h (2 Bft)
25.02.2023 03:36 0,8 C 0,0 C 86 % 1009,1 hPa 0,0 l/m 1,6 km/h (1 Bft) W-SW 247 0 min 0,0 UV-I 0 W/m -1,3 C 0,8 C 4,8 km/h (1 Bft)
25.02.2023 03:37 0,8 C 0,0 C 86 % 1009,2 hPa 0,0 l/m 6,4 km/h (2 Bft) NW 315 0 min 0,0 UV-I 0 W/m -1,3 C 0,8 C 12,9 km/h (3 Bft)
25.02.2023 03:38 0,8 C 0,0 C 86 % 1009,2 hPa 0,0 l/m 4,8 km/h (1 Bft) NW 315 0 min 0,0 UV-I 0 W/m -1,3 C 0,8 C 11,3 km/h (2 Bft)
25.02.2023 03:39 0,8 C 0,0 C 86 % 1009,2 hPa 0,0 l/m 0,0 km/h (0 Bft) NW 315 0 min 0,0 UV-I 0 W/m -1,3 C 0,8 C 3,2 km/h (1 Bft)
25.02.2023 03:40 0,8 C 0,0 C 86 % 1009,1 hPa 0,0 l/m 0,0 km/h (0 Bft) NW 315 0 min 0,0 UV-I 0 W/m -1,3 C 0,8 C 1,6 km/h (1 Bft)
25.02.2023 03:41 0,8 C 0,6 C 86 % 1009,1 hPa 0,0 l/m 0,0 km/h (0 Bft) NW 315 0 min 0,0 UV-I 0 W/m -1,3 C 0,8 C 1,6 km/h (1 Bft)
25.02.2023 03:42 0,8 C 0,6 C 86 % 1009,2 hPa 0,0 l/m 3,2 km/h (1 Bft) NW 315 0 min 0,0 UV-I 0 W/m -1,3 C 0,8 C 4,8 km/h (1 Bft)
25.02.2023 03:43 0,8 C 0,0 C 86 % 1009,1 hPa 0,0 l/m 3,2 km/h (1 Bft) W-NW 292 0 min 0,0 UV-I 0 W/m -1,3 C 0,8 C 4,8 km/h (1 Bft)
25.02.2023 03:44 0,9 C 0,6 C 86 % 1009,1 hPa 0,0 l/m 1,6 km/h (1 Bft) SW 225 0 min 0,0 UV-I 0 W/m -1,2 C 0,9 C 6,4 km/h (2 Bft)
25.02.2023 03:45 0,8 C 0,0 C 86 % 1009,1 hPa 0,0 l/m 8,0 km/h (2 Bft) W-NW 292 0 min 0,0 UV-I 0 W/m -1,3 C -0,8 C 12,9 km/h (3 Bft)
25.02.2023 03:46 0,9 C 0,0 C 86 % 1009,1 hPa 0,0 l/m 8,0 km/h (2 Bft) W-NW 292 0 min 0,0 UV-I 0 W/m -1,2 C -0,7 C 11,3 km/h (2 Bft)
25.02.2023 03:47 0,9 C 0,0 C 86 % 1009,1 hPa 0,0 l/m 6,4 km/h (2 Bft) W-NW 292 0 min 0,0 UV-I 0 W/m -1,2 C 0,9 C 9,7 km/h (2 Bft)
25.02.2023 03:48 0,8 C 0,0 C 86 % 1009,1 hPa 0,0 l/m 3,2 km/h (1 Bft) W-NW 292 0 min 0,0 UV-I 0 W/m -1,3 C 0,8 C 4,8 km/h (1 Bft)
25.02.2023 03:49 0,9 C 0,0 C 86 % 1009,1 hPa 0,0 l/m 3,2 km/h (1 Bft) W-NW 292 0 min 0,0 UV-I 0 W/m -1,2 C 0,9 C 6,4 km/h (2 Bft)
25.02.2023 03:50 0,8 C 0,0 C 86 % 1009,2 hPa 0,0 l/m 6,4 km/h (2 Bft) NW 315 0 min 0,0 UV-I 0 W/m -1,3 C 0,8 C 16,1 km/h (3 Bft)
25.02.2023 03:51 0,8 C 0,0 C 86 % 1009,1 hPa 0,0 l/m 3,2 km/h (1 Bft) W-SW 247 0 min 0,0 UV-I 0 W/m -1,3 C 0,8 C 6,4 km/h (2 Bft)
25.02.2023 03:52 0,9 C 0,0 C 86 % 1009,0 hPa 0,0 l/m 0,0 km/h (0 Bft) W-SW 247 0 min 0,0 UV-I 0 W/m -1,2 C 0,9 C 3,2 km/h (1 Bft)
25.02.2023 03:53 0,8 C 0,0 C 86 % 1009,1 hPa 0,0 l/m 3,2 km/h (1 Bft) S-SW 202 0 min 0,0 UV-I 0 W/m -1,3 C 0,8 C 9,7 km/h (2 Bft)
25.02.2023 03:54 0,8 C 0,0 C 86 % 1009,2 hPa 0,0 l/m 1,6 km/h (1 Bft) S-SW 202 0 min 0,0 UV-I 0 W/m -1,3 C 0,8 C 3,2 km/h (1 Bft)
25.02.2023 03:55 0,8 C 0,0 C 86 % 1009,1 hPa 0,0 l/m 1,6 km/h (1 Bft) SW 225 0 min 0,0 UV-I 0 W/m -1,3 C 0,8 C 4,8 km/h (1 Bft)
25.02.2023 03:56 0,8 C 0,0 C 86 % 1009,2 hPa 0,0 l/m 3,2 km/h (1 Bft) N-NW 337 0 min 0,0 UV-I 0 W/m -1,3 C 0,8 C 12,9 km/h (3 Bft)
25.02.2023 03:57 0,8 C 0,0 C 86 % 1009,2 hPa 0,0 l/m 4,8 km/h (1 Bft) W-NW 292 0 min 0,0 UV-I 0 W/m -1,3 C 0,8 C 8,0 km/h (2 Bft)
25.02.2023 03:58 0,8 C 0,0 C 86 % 1009,2 hPa 0,0 l/m 6,4 km/h (2 Bft) NW 315 0 min 0,0 UV-I 0 W/m -1,3 C 0,8 C 16,1 km/h (3 Bft)
25.02.2023 03:59 0,8 C 0,6 C 86 % 1009,2 hPa 0,0 l/m 3,2 km/h (1 Bft) SW 225 0 min 0,0 UV-I 0 W/m -1,3 C 0,8 C 4,8 km/h (1 Bft)
25.02.2023 04:00 0,8 C 0,6 C 86 % 1009,2 hPa 0,0 l/m 6,4 km/h (2 Bft) W 270 0 min 0,0 UV-I 0 W/m -1,3 C 0,8 C 11,3 km/h (2 Bft)
25.02.2023 04:01 0,9 C 0,0 C 86 % 1009,1 hPa 0,0 l/m 3,2 km/h (1 Bft) W 270 0 min 0,0 UV-I 0 W/m -1,2 C 0,9 C 6,4 km/h (2 Bft)
25.02.2023 04:02 0,9 C 0,6 C 86 % 1009,1 hPa 0,0 l/m 4,8 km/h (1 Bft) NW 315 0 min 0,0 UV-I 0 W/m -1,2 C 0,9 C 16,1 km/h (3 Bft)
25.02.2023 04:03 0,8 C 0,6 C 86 % 1009,3 hPa 0,0 l/m 11,3 km/h (2 Bft) W 270 0 min 0,0 UV-I 0 W/m -1,3 C -3,6 C 16,1 km/h (3 Bft)
25.02.2023 04:04 0,9 C 0,6 C 86 % 1009,1 hPa 0,0 l/m 8,0 km/h (2 Bft) NW 315 0 min 0,0 UV-I 0 W/m -1,2 C -0,7 C 14,5 km/h (3 Bft)
25.02.2023 04:05 0,9 C 0,6 C 86 % 1009,2 hPa 0,0 l/m 8,0 km/h (2 Bft) W-NW 292 0 min 0,0 UV-I 0 W/m -1,2 C -0,7 C 14,5 km/h (3 Bft)
25.02.2023 04:06 0,9 C 0,6 C 86 % 1009,3 hPa 0,0 l/m 1,6 km/h (1 Bft) W-NW 292 0 min 0,0 UV-I 0 W/m -1,2 C 0,9 C 4,8 km/h (1 Bft)
25.02.2023 04:07 0,9 C 0,6 C 86 % 1009,3 hPa 0,0 l/m 3,2 km/h (1 Bft) W 270 0 min 0,0 UV-I 0 W/m -1,2 C 0,9 C 9,7 km/h (2 Bft)
25.02.2023 04:08 0,9 C 0,6 C 86 % 1009,3 hPa 0,0 l/m 6,4 km/h (2 Bft) W 270 0 min 0,0 UV-I 0 W/m -1,2 C 0,9 C 14,5 km/h (3 Bft)
25.02.2023 04:09 0,9 C 0,0 C 86 % 1009,3 hPa 0,0 l/m 3,2 km/h (1 Bft) NW 315 0 min 0,0 UV-I 0 W/m -1,2 C 0,9 C 6,4 km/h (2 Bft)
25.02.2023 04:10 0,9 C 0,0 C 86 % 1009,2 hPa 0,0 l/m 6,4 km/h (2 Bft) NW 315 0 min 0,0 UV-I 0 W/m -1,2 C 0,9 C 14,5 km/h (3 Bft)
25.02.2023 04:11 0,9 C 0,6 C 86 % 1009,3 hPa 0,0 l/m 12,9 km/h (3 Bft) W-NW 292 0 min 0,0 UV-I 0 W/m -1,2 C -4,6 C 25,7 km/h (4 Bft)
25.02.2023 04:12 0,8 C 0,6 C 86 % 1009,3 hPa 0,0 l/m 4,8 km/h (1 Bft) W 270 0 min 0,0 UV-I 0 W/m -1,3 C 0,8 C 9,7 km/h (2 Bft)
25.02.2023 04:13 0,9 C 0,6 C 86 % 1009,4 hPa 0,0 l/m 4,8 km/h (1 Bft) W 270 0 min 0,0 UV-I 0 W/m -1,2 C 0,9 C 11,3 km/h (2 Bft)
25.02.2023 04:14 0,9 C 0,6 C 86 % 1009,3 hPa 0,0 l/m 6,4 km/h (2 Bft) W-NW 292 0 min 0,0 UV-I 0 W/m -1,2 C 0,9 C 14,5 km/h (3 Bft)
25.02.2023 04:15 0,9 C 0,6 C 86 % 1009,3 hPa 0,0 l/m 1,6 km/h (1 Bft) W-NW 292 0 min 0,0 UV-I 0 W/m -1,2 C 0,9 C 4,8 km/h (1 Bft)
25.02.2023 04:16 0,9 C 0,6 C 86 % 1009,2 hPa 0,0 l/m 3,2 km/h (1 Bft) W 270 0 min 0,0 UV-I 0 W/m -1,2 C 0,9 C 11,3 km/h (2 Bft)
25.02.2023 04:17 0,9 C 0,6 C 86 % 1009,3 hPa 0,0 l/m 4,8 km/h (1 Bft) W 270 0 min 0,0 UV-I 0 W/m -1,2 C 0,9 C 11,3 km/h (2 Bft)
25.02.2023 04:18 0,8 C 0,6 C 86 % 1009,4 hPa 0,0 l/m 4,8 km/h (1 Bft) W-SW 247 0 min 0,0 UV-I 0 W/m -1,3 C 0,8 C 8,0 km/h (2 Bft)
25.02.2023 04:19 0,8 C 0,6 C 85 % 1009,4 hPa 0,0 l/m 1,6 km/h (1 Bft) W-SW 247 0 min 0,0 UV-I 0 W/m -1,4 C 0,8 C 8,0 km/h (2 Bft)
25.02.2023 04:20 0,9 C 0,0 C 86 % 1009,3 hPa 0,0 l/m 3,2 km/h (1 Bft) W-SW 247 0 min 0,0 UV-I 0 W/m -1,2 C 0,9 C 4,8 km/h (1 Bft)
25.02.2023 04:21 0,9 C 0,0 C 86 % 1009,3 hPa 0,0 l/m 1,6 km/h (1 Bft) W-SW 247 0 min 0,0 UV-I 0 W/m -1,2 C 0,9 C 3,2 km/h (1 Bft)
25.02.2023 04:22 0,9 C 0,0 C 86 % 1009,3 hPa 0,0 l/m 1,6 km/h (1 Bft) W-SW 247 0 min 0,0 UV-I 0 W/m -1,2 C 0,9 C 3,2 km/h (1 Bft)
25.02.2023 04:23 0,9 C 0,0 C 86 % 1009,2 hPa 0,0 l/m 1,6 km/h (1 Bft) W-SW 247 0 min 0,0 UV-I 0 W/m -1,2 C 0,9 C 3,2 km/h (1 Bft)
25.02.2023 04:24 0,8 C 0,0 C 86 % 1009,3 hPa 0,0 l/m 6,4 km/h (2 Bft) N-NW 337 0 min 0,0 UV-I 0 W/m -1,3 C 0,8 C 12,9 km/h (3 Bft)
25.02.2023 04:25 0,8 C 0,6 C 86 % 1009,2 hPa 0,0 l/m 4,8 km/h (1 Bft) W-NW 292 0 min 0,0 UV-I 0 W/m -1,3 C 0,8 C 6,4 km/h (2 Bft)
25.02.2023 04:26 0,8 C 0,0 C 86 % 1009,3 hPa 0,0 l/m 3,2 km/h (1 Bft) W-NW 292 0 min 0,0 UV-I 0 W/m -1,3 C 0,8 C 6,4 km/h (2 Bft)
25.02.2023 04:27 0,8 C 0,0 C 86 % 1009,2 hPa 0,0 l/m 4,8 km/h (1 Bft) W-NW 292 0 min 0,0 UV-I 0 W/m -1,3 C 0,8 C 11,3 km/h (2 Bft)
25.02.2023 04:28 0,8 C 0,0 C 86 % 1009,2 hPa 0,0 l/m 9,7 km/h (2 Bft) W 270 0 min 0,0 UV-I 0 W/m -1,3 C -2,3 C 17,7 km/h (3 Bft)
25.02.2023 04:29 0,8 C 0,0 C 86 % 1009,2 hPa 0,0 l/m 11,3 km/h (2 Bft) W-NW 292 0 min 0,0 UV-I 0 W/m -1,3 C -3,6 C 14,5 km/h (3 Bft)
25.02.2023 04:30 0,8 C 0,0 C 86 % 1009,2 hPa 0,0 l/m 4,8 km/h (1 Bft) W 270 0 min 0,0 UV-I 0 W/m -1,3 C 0,8 C 11,3 km/h (2 Bft)
25.02.2023 04:31 0,8 C 0,0 C 85 % 1009,3 hPa 0,0 l/m 3,2 km/h (1 Bft) NW 315 0 min 0,0 UV-I 0 W/m -1,4 C 0,8 C 11,3 km/h (2 Bft)
25.02.2023 04:32 0,8 C 0,0 C 86 % 1009,3 hPa 0,0 l/m 1,6 km/h (1 Bft) NW 315 0 min 0,0 UV-I 0 W/m -1,3 C 0,8 C 6,4 km/h (2 Bft)
25.02.2023 04:33 0,8 C 0,0 C 85 % 1009,3 hPa 0,0 l/m 9,7 km/h (2 Bft) W-NW 292 0 min 0,0 UV-I 0 W/m -1,4 C -2,3 C 16,1 km/h (3 Bft)
25.02.2023 04:34 0,8 C 0,0 C 85 % 1009,3 hPa 0,0 l/m 6,4 km/h (2 Bft) W-NW 292 0 min 0,0 UV-I 0 W/m -1,4 C 0,8 C 16,1 km/h (3 Bft)
25.02.2023 04:35 0,8 C 0,0 C 85 % 1009,3 hPa 0,0 l/m 9,7 km/h (2 Bft) W 270 0 min 0,0 UV-I 0 W/m -1,4 C -2,3 C 16,1 km/h (3 Bft)
25.02.2023 04:36 0,8 C 0,0 C 85 % 1009,4 hPa 0,0 l/m 4,8 km/h (1 Bft) W-NW 292 0 min 0,0 UV-I 0 W/m -1,4 C 0,8 C 11,3 km/h (2 Bft)
25.02.2023 04:37 0,8 C 0,0 C 85 % 1009,3 hPa 0,0 l/m 3,2 km/h (1 Bft) W 270 0 min 0,0 UV-I 0 W/m -1,4 C 0,8 C 6,4 km/h (2 Bft)
25.02.2023 04:38 0,8 C 0,0 C 85 % 1009,4 hPa 0,0 l/m 0,0 km/h (0 Bft) W 270 0 min 0,0 UV-I 0 W/m -1,4 C 0,8 C 1,6 km/h (1 Bft)
25.02.2023 04:39 0,8 C 0,0 C 85 % 1009,4 hPa 0,0 l/m 6,4 km/h (2 Bft) W 270 0 min 0,0 UV-I 0 W/m -1,4 C 0,8 C 11,3 km/h (2 Bft)
25.02.2023 04:40 0,8 C 0,0 C 85 % 1009,4 hPa 0,0 l/m 6,4 km/h (2 Bft) SW 225 0 min 0,0 UV-I 0 W/m -1,4 C 0,8 C 11,3 km/h (2 Bft)
25.02.2023 04:41 0,8 C 0,0 C 85 % 1009,4 hPa 0,0 l/m 3,2 km/h (1 Bft) W-NW 292 0 min 0,0 UV-I 0 W/m -1,4 C 0,8 C 8,0 km/h (2 Bft)
25.02.2023 04:42 0,8 C 0,0 C 85 % 1009,3 hPa 0,0 l/m 4,8 km/h (1 Bft) W 270 0 min 0,0 UV-I 0 W/m -1,4 C 0,8 C 9,7 km/h (2 Bft)
25.02.2023 04:43 0,8 C 0,0 C 85 % 1009,4 hPa 0,0 l/m 3,2 km/h (1 Bft) W-SW 247 0 min 0,0 UV-I 0 W/m -1,4 C 0,8 C 4,8 km/h (1 Bft)
25.02.2023 04:44 0,8 C 0,0 C 86 % 1009,4 hPa 0,0 l/m 3,2 km/h (1 Bft) SW 225 0 min 0,0 UV-I 0 W/m -1,3 C 0,8 C 4,8 km/h (1 Bft)
25.02.2023 04:45 0,7 C 0,0 C 85 % 1009,3 hPa 0,0 l/m 0,0 km/h (0 Bft) SW 225 0 min 0,0 UV-I 0 W/m -1,5 C 0,7 C 3,2 km/h (1 Bft)
25.02.2023 04:46 0,8 C 0,0 C 85 % 1009,3 hPa 0,0 l/m 1,6 km/h (1 Bft) NW 315 0 min 0,0 UV-I 0 W/m -1,4 C 0,8 C 8,0 km/h (2 Bft)
25.02.2023 04:47 0,8 C 0,0 C 86 % 1009,3 hPa 0,0 l/m 6,4 km/h (2 Bft) NW 315 0 min 0,0 UV-I 0 W/m -1,3 C 0,8 C 14,5 km/h (3 Bft)
25.02.2023 04:48 0,8 C 0,0 C 85 % 1009,2 hPa 0,0 l/m 4,8 km/h (1 Bft) NW 315 0 min 0,0 UV-I 0 W/m -1,4 C 0,8 C 11,3 km/h (2 Bft)
25.02.2023 04:49 0,8 C 0,0 C 85 % 1009,3 hPa 0,0 l/m 8,0 km/h (2 Bft) W-NW 292 0 min 0,0 UV-I 0 W/m -1,4 C -0,8 C 14,5 km/h (3 Bft)
25.02.2023 04:50 0,7 C 0,0 C 85 % 1009,3 hPa 0,0 l/m 6,4 km/h (2 Bft) W 270 0 min 0,0 UV-I 0 W/m -1,5 C 0,7 C 9,7 km/h (2 Bft)
25.02.2023 04:51 0,7 C 0,0 C 85 % 1009,3 hPa 0,0 l/m 4,8 km/h (1 Bft) W-SW 247 0 min 0,0 UV-I 0 W/m -1,5 C 0,7 C 9,7 km/h (2 Bft)
25.02.2023 04:52 0,7 C 0,0 C 85 % 1009,3 hPa 0,0 l/m 8,0 km/h (2 Bft) W-NW 292 0 min 0,0 UV-I 0 W/m -1,5 C -0,9 C 17,7 km/h (3 Bft)
25.02.2023 04:53 0,7 C 0,0 C 85 % 1009,2 hPa 0,0 l/m 6,4 km/h (2 Bft) W 270 0 min 0,0 UV-I 0 W/m -1,5 C 0,7 C 12,9 km/h (3 Bft)
25.02.2023 04:54 0,7 C 0,0 C 85 % 1009,3 hPa 0,0 l/m 1,6 km/h (1 Bft) S 180 0 min 0,0 UV-I 0 W/m -1,5 C 0,7 C 9,7 km/h (2 Bft)
25.02.2023 04:55 0,7 C 0,0 C 85 % 1009,3 hPa 0,0 l/m 3,2 km/h (1 Bft) W-NW 292 0 min 0,0 UV-I 0 W/m -1,5 C 0,7 C 11,3 km/h (2 Bft)
25.02.2023 04:56 0,7 C 0,0 C 85 % 1009,3 hPa 0,0 l/m 3,2 km/h (1 Bft) W-NW 292 0 min 0,0 UV-I 0 W/m -1,5 C 0,7 C 6,4 km/h (2 Bft)
25.02.2023 04:57 0,7 C 0,0 C 85 % 1009,3 hPa 0,0 l/m 4,8 km/h (1 Bft) W 270 0 min 0,0 UV-I 0 W/m -1,5 C 0,7 C 11,3 km/h (2 Bft)
25.02.2023 04:58 0,7 C 0,0 C 85 % 1009,3 hPa 0,0 l/m 8,0 km/h (2 Bft) NW 315 0 min 0,0 UV-I 0 W/m -1,5 C -0,9 C 16,1 km/h (3 Bft)
25.02.2023 04:59 0,7 C 0,0 C 85 % 1009,3 hPa 0,0 l/m 4,8 km/h (1 Bft) W-NW 292 0 min 0,0 UV-I 0 W/m -1,5 C 0,7 C 11,3 km/h (2 Bft)
25.02.2023 05:00 0,7 C 0,0 C 85 % 1009,3 hPa 0,0 l/m 1,6 km/h (1 Bft) W-NW 292 0 min 0,0 UV-I 0 W/m -1,5 C 0,7 C 6,4 km/h (2 Bft)
25.02.2023 05:01 0,7 C 0,0 C 85 % 1009,3 hPa 0,0 l/m 3,2 km/h (1 Bft) W 270 0 min 0,0 UV-I 0 W/m -1,5 C 0,7 C 6,4 km/h (2 Bft)
25.02.2023 05:02 0,7 C 0,0 C 85 % 1009,3 hPa 0,0 l/m 9,7 km/h (2 Bft) W-NW 292 0 min 0,0 UV-I 0 W/m -1,5 C -2,4 C 16,1 km/h (3 Bft)
25.02.2023 05:03 0,7 C 0,0 C 85 % 1009,3 hPa 0,0 l/m 4,8 km/h (1 Bft) W-NW 292 0 min 0,0 UV-I 0 W/m -1,5 C 0,7 C 6,4 km/h (2 Bft)
25.02.2023 05:04 0,7 C 0,0 C 85 % 1009,3 hPa 0,0 l/m 3,2 km/h (1 Bft) W-NW 292 0 min 0,0 UV-I 0 W/m -1,5 C 0,7 C 9,7 km/h (2 Bft)
25.02.2023 05:05 0,7 C 0,0 C 85 % 1009,3 hPa 0,0 l/m 8,0 km/h (2 Bft) W-NW 292 0 min 0,0 UV-I 0 W/m -1,5 C -0,9 C 14,5 km/h (3 Bft)
25.02.2023 05:06 0,7 C 0,0 C 85 % 1009,3 hPa 0,0 l/m 4,8 km/h (1 Bft) W 270 0 min 0,0 UV-I 0 W/m -1,5 C 0,7 C 12,9 km/h (3 Bft)
25.02.2023 05:07 0,8 C 0,0 C 85 % 1009,4 hPa 0,0 l/m 1,6 km/h (1 Bft) W 270 0 min 0,0 UV-I 0 W/m -1,4 C 0,8 C 6,4 km/h (2 Bft)
25.02.2023 05:08 0,7 C 0,0 C 85 % 1009,3 hPa 0,0 l/m 3,2 km/h (1 Bft) W 270 0 min 0,0 UV-I 0 W/m -1,5 C 0,7 C 11,3 km/h (2 Bft)
25.02.2023 05:09 0,7 C 0,0 C 85 % 1009,5 hPa 0,0 l/m 8,0 km/h (2 Bft) W-NW 292 0 min 0,0 UV-I 0 W/m -1,5 C -0,9 C 12,9 km/h (3 Bft)
25.02.2023 05:10 0,7 C 0,0 C 85 % 1009,4 hPa 0,0 l/m 4,8 km/h (1 Bft) W 270 0 min 0,0 UV-I 0 W/m -1,5 C 0,7 C 9,7 km/h (2 Bft)
25.02.2023 05:11 0,7 C 0,0 C 85 % 1009,5 hPa 0,0 l/m 4,8 km/h (1 Bft) NW 315 0 min 0,0 UV-I 0 W/m -1,5 C 0,7 C 12,9 km/h (3 Bft)
25.02.2023 05:12 0,7 C 0,0 C 85 % 1009,3 hPa 0,0 l/m 3,2 km/h (1 Bft) NW 315 0 min 0,0 UV-I 0 W/m -1,5 C 0,7 C 6,4 km/h (2 Bft)
25.02.2023 05:13 0,7 C 0,0 C 85 % 1009,5 hPa 0,0 l/m 8,0 km/h (2 Bft) NW 315 0 min 0,0 UV-I 0 W/m -1,5 C -0,9 C 14,5 km/h (3 Bft)
25.02.2023 05:14 0,7 C 0,0 C 85 % 1009,5 hPa 0,0 l/m 6,4 km/h (2 Bft) W-SW 247 0 min 0,0 UV-I 0 W/m -1,5 C 0,7 C 11,3 km/h (2 Bft)
25.02.2023 05:15 0,7 C 0,0 C 85 % 1009,4 hPa 0,0 l/m 3,2 km/h (1 Bft) NW 315 0 min 0,0 UV-I 0 W/m -1,5 C 0,7 C 8,0 km/h (2 Bft)
25.02.2023 05:16 0,7 C 0,0 C 85 % 1009,5 hPa 0,0 l/m 11,3 km/h (2 Bft) W-NW 292 0 min 0,0 UV-I 0 W/m -1,5 C -3,7 C 19,3 km/h (3 Bft)
25.02.2023 05:17 0,7 C 0,0 C 85 % 1009,5 hPa 0,0 l/m 6,4 km/h (2 Bft) NW 315 0 min 0,0 UV-I 0 W/m -1,5 C 0,7 C 12,9 km/h (3 Bft)
25.02.2023 05:18 0,7 C 0,0 C 85 % 1009,4 hPa 0,0 l/m 4,8 km/h (1 Bft) W-NW 292 0 min 0,0 UV-I 0 W/m -1,5 C 0,7 C 8,0 km/h (2 Bft)
25.02.2023 05:19 0,7 C 0,0 C 85 % 1009,5 hPa 0,0 l/m 3,2 km/h (1 Bft) NW 315 0 min 0,0 UV-I 0 W/m -1,5 C 0,7 C 6,4 km/h (2 Bft)
25.02.2023 05:20 0,7 C 0,0 C 85 % 1009,5 hPa 0,0 l/m 0,0 km/h (0 Bft) NW 315 0 min 0,0 UV-I 0 W/m -1,5 C 0,7 C 1,6 km/h (1 Bft)
25.02.2023 05:21 0,7 C 0,0 C 85 % 1009,5 hPa 0,0 l/m 6,4 km/h (2 Bft) W 270 0 min 0,0 UV-I 0 W/m -1,5 C 0,7 C 12,9 km/h (3 Bft)
25.02.2023 05:22 0,7 C 0,0 C 85 % 1009,3 hPa 0,0 l/m 9,7 km/h (2 Bft) W 270 0 min 0,0 UV-I 0 W/m -1,5 C -2,4 C 16,1 km/h (3 Bft)
25.02.2023 05:23 0,7 C 0,0 C 85 % 1009,4 hPa 0,0 l/m 4,8 km/h (1 Bft) S 180 0 min 0,0 UV-I 0 W/m -1,5 C 0,7 C 14,5 km/h (3 Bft)
25.02.2023 05:24 0,7 C 0,0 C 85 % 1009,5 hPa 0,0 l/m 8,0 km/h (2 Bft) W-NW 292 0 min 0,0 UV-I 0 W/m -1,5 C -0,9 C 14,5 km/h (3 Bft)
25.02.2023 05:25 0,7 C 0,0 C 85 % 1009,5 hPa 0,0 l/m 1,6 km/h (1 Bft) W-NW 292 0 min 0,0 UV-I 0 W/m -1,5 C 0,7 C 3,2 km/h (1 Bft)
25.02.2023 05:26 0,7 C 0,0 C 85 % 1009,5 hPa 0,0 l/m 1,6 km/h (1 Bft) W 270 0 min 0,0 UV-I 0 W/m -1,5 C 0,7 C 3,2 km/h (1 Bft)
25.02.2023 05:27 0,7 C 0,0 C 85 % 1009,5 hPa 0,0 l/m 1,6 km/h (1 Bft) W 270 0 min 0,0 UV-I 0 W/m -1,5 C 0,7 C 3,2 km/h (1 Bft)
25.02.2023 05:28 0,7 C 0,0 C 85 % 1009,7 hPa 0,0 l/m 4,8 km/h (1 Bft) W 270 0 min 0,0 UV-I 0 W/m -1,5 C 0,7 C 11,3 km/h (2 Bft)
25.02.2023 05:29 0,7 C 0,0 C 85 % 1009,6 hPa 0,0 l/m 1,6 km/h (1 Bft) W 270 0 min 0,0 UV-I 0 W/m -1,5 C 0,7 C 4,8 km/h (1 Bft)
25.02.2023 05:30 0,7 C 0,0 C 85 % 1009,7 hPa 0,0 l/m 8,0 km/h (2 Bft) W 270 0 min 0,0 UV-I 0 W/m -1,5 C -0,9 C 11,3 km/h (2 Bft)
25.02.2023 05:31 0,7 C 0,0 C 85 % 1009,6 hPa 0,0 l/m 6,4 km/h (2 Bft) W 270 0 min 0,0 UV-I 0 W/m -1,5 C 0,7 C 9,7 km/h (2 Bft)
25.02.2023 05:32 0,7 C 0,0 C 85 % 1009,7 hPa 0,0 l/m 3,2 km/h (1 Bft) SW 225 0 min 0,0 UV-I 0 W/m -1,5 C 0,7 C 6,4 km/h (2 Bft)
25.02.2023 05:33 0,7 C 0,0 C 85 % 1009,6 hPa 0,0 l/m 4,8 km/h (1 Bft) W-SW 247 0 min 0,0 UV-I 0 W/m -1,5 C 0,7 C 14,5 km/h (3 Bft)
25.02.2023 05:34 0,7 C 0,0 C 85 % 1009,6 hPa 0,0 l/m 11,3 km/h (2 Bft) W-NW 292 0 min 0,0 UV-I 0 W/m -1,5 C -3,7 C 19,3 km/h (3 Bft)
25.02.2023 05:35 0,7 C 0,0 C 85 % 1009,6 hPa 0,0 l/m 6,4 km/h (2 Bft) SW 225 0 min 0,0 UV-I 0 W/m -1,5 C 0,7 C 11,3 km/h (2 Bft)
25.02.2023 05:36 0,7 C 0,0 C 85 % 1009,6 hPa 0,0 l/m 4,8 km/h (1 Bft) W 270 0 min 0,0 UV-I 0 W/m -1,5 C 0,7 C 9,7 km/h (2 Bft)
25.02.2023 05:37 0,7 C 0,0 C 85 % 1009,6 hPa 0,0 l/m 3,2 km/h (1 Bft) W 270 0 min 0,0 UV-I 0 W/m -1,5 C 0,7 C 4,8 km/h (1 Bft)
25.02.2023 05:38 0,7 C 0,0 C 85 % 1009,4 hPa 0,0 l/m 4,8 km/h (1 Bft) SW 225 0 min 0,0 UV-I 0 W/m -1,5 C 0,7 C 6,4 km/h (2 Bft)
25.02.2023 05:39 0,7 C 0,0 C 85 % 1009,5 hPa 0,0 l/m 9,7 km/h (2 Bft) W 270 0 min 0,0 UV-I 0 W/m -1,5 C -2,4 C 20,9 km/h (4 Bft)
25.02.2023 05:40 0,7 C 0,0 C 85 % 1009,5 hPa 0,0 l/m 8,0 km/h (2 Bft) W-NW 292 0 min 0,0 UV-I 0 W/m -1,5 C -0,9 C 12,9 km/h (3 Bft)
25.02.2023 05:41 0,7 C 0,0 C 85 % 1009,5 hPa 0,0 l/m 0,0 km/h (0 Bft) SW 225 0 min 0,0 UV-I 0 W/m -1,5 C 0,7 C 6,4 km/h (2 Bft)
25.02.2023 05:42 0,7 C 0,0 C 85 % 1009,4 hPa 0,0 l/m 4,8 km/h (1 Bft) W-NW 292 0 min 0,0 UV-I 0 W/m -1,5 C 0,7 C 8,0 km/h (2 Bft)
25.02.2023 05:43 0,7 C 0,0 C 85 % 1009,4 hPa 0,0 l/m 1,6 km/h (1 Bft) W-NW 292 0 min 0,0 UV-I 0 W/m -1,5 C 0,7 C 4,8 km/h (1 Bft)
25.02.2023 05:44 0,7 C 0,0 C 85 % 1009,5 hPa 0,0 l/m 3,2 km/h (1 Bft) NW 315 0 min 0,0 UV-I 0 W/m -1,5 C 0,7 C 9,7 km/h (2 Bft)
25.02.2023 05:45 0,7 C 0,0 C 85 % 1009,5 hPa 0,0 l/m 8,0 km/h (2 Bft) W-NW 292 0 min 0,0 UV-I 0 W/m -1,5 C -0,9 C 14,5 km/h (3 Bft)
25.02.2023 05:46 0,7 C 0,0 C 85 % 1009,4 hPa 0,0 l/m 3,2 km/h (1 Bft) SW 225 0 min 0,0 UV-I 0 W/m -1,5 C 0,7 C 4,8 km/h (1 Bft)
25.02.2023 05:47 0,7 C 0,0 C 85 % 1009,4 hPa 0,0 l/m 3,2 km/h (1 Bft) SW 225 0 min 0,0 UV-I 0 W/m -1,5 C 0,7 C 4,8 km/h (1 Bft)
25.02.2023 05:48 0,7 C 0,0 C 85 % 1009,4 hPa 0,0 l/m 0,0 km/h (0 Bft) SW 225 0 min 0,0 UV-I 0 W/m -1,5 C 0,7 C 3,2 km/h (1 Bft)
25.02.2023 05:49 0,7 C 0,0 C 85 % 1009,4 hPa 0,0 l/m 3,2 km/h (1 Bft) NW 315 0 min 0,0 UV-I 0 W/m -1,5 C 0,7 C 8,0 km/h (2 Bft)
25.02.2023 05:50 0,7 C 0,0 C 85 % 1009,4 hPa 0,0 l/m 4,8 km/h (1 Bft) NW 315 0 min 0,0 UV-I 0 W/m -1,5 C 0,7 C 11,3 km/h (2 Bft)
25.02.2023 05:51 0,7 C 0,0 C 85 % 1009,3 hPa 0,0 l/m 1,6 km/h (1 Bft) NW 315 0 min 0,0 UV-I 0 W/m -1,5 C 0,7 C 3,2 km/h (1 Bft)
25.02.2023 05:52 0,7 C 0,0 C 85 % 1009,3 hPa 0,0 l/m 1,6 km/h (1 Bft) W-NW 292 0 min 0,0 UV-I 0 W/m -1,5 C 0,7 C 3,2 km/h (1 Bft)
25.02.2023 05:53 0,7 C 0,0 C 85 % 1009,2 hPa 0,0 l/m 1,6 km/h (1 Bft) W-NW 292 0 min 0,0 UV-I 0 W/m -1,5 C 0,7 C 4,8 km/h (1 Bft)
25.02.2023 05:54 0,7 C 0,0 C 85 % 1009,3 hPa 0,0 l/m 4,8 km/h (1 Bft) W-NW 292 0 min 0,0 UV-I 0 W/m -1,5 C 0,7 C 16,1 km/h (3 Bft)
25.02.2023 05:55 0,7 C 0,0 C 85 % 1009,3 hPa 0,0 l/m 4,8 km/h (1 Bft) W 270 0 min 0,0 UV-I 0 W/m -1,5 C 0,7 C 12,9 km/h (3 Bft)
25.02.2023 05:56 0,7 C 0,0 C 85 % 1009,3 hPa 0,0 l/m 3,2 km/h (1 Bft) W-NW 292 0 min 0,0 UV-I 0 W/m -1,5 C 0,7 C 4,8 km/h (1 Bft)
25.02.2023 05:57 0,7 C 0,0 C 86 % 1009,3 hPa 0,0 l/m 4,8 km/h (1 Bft) W 270 0 min 0,0 UV-I 0 W/m -1,4 C 0,7 C 6,4 km/h (2 Bft)
25.02.2023 05:58 0,7 C 0,0 C 86 % 1009,3 hPa 0,0 l/m 1,6 km/h (1 Bft) W 270 0 min 0,0 UV-I 0 W/m -1,4 C 0,7 C 3,2 km/h (1 Bft)
25.02.2023 05:59 0,7 C 0,0 C 86 % 1009,4 hPa 0,0 l/m 1,6 km/h (1 Bft) W-NW 292 0 min 0,0 UV-I 0 W/m -1,4 C 0,7 C 4,8 km/h (1 Bft)
25.02.2023 06:00 0,7 C 0,0 C 86 % 1009,3 hPa 0,0 l/m 4,8 km/h (1 Bft) NW 315 0 min 0,0 UV-I 0 W/m -1,4 C 0,7 C 12,9 km/h (3 Bft)
25.02.2023 06:01 0,7 C 0,0 C 86 % 1009,5 hPa 0,0 l/m 6,4 km/h (2 Bft) W-NW 292 0 min 0,0 UV-I 0 W/m -1,4 C 0,7 C 11,3 km/h (2 Bft)
25.02.2023 06:02 0,7 C 0,0 C 86 % 1009,4 hPa 0,0 l/m 4,8 km/h (1 Bft) W 270 0 min 0,0 UV-I 0 W/m -1,4 C 0,7 C 9,7 km/h (2 Bft)
25.02.2023 06:03 0,7 C 0,0 C 86 % 1009,4 hPa 0,0 l/m 1,6 km/h (1 Bft) W-SW 247 0 min 0,0 UV-I 0 W/m -1,4 C 0,7 C 4,8 km/h (1 Bft)
25.02.2023 06:04 0,7 C 0,0 C 86 % 1009,4 hPa 0,0 l/m 0,0 km/h (0 Bft) N 0 0 min 0,0 UV-I 0 W/m -1,4 C 0,7 C 0,0 km/h (0 Bft)
25.02.2023 06:05 0,7 C 0,0 C 86 % 1009,4 hPa 0,0 l/m 3,2 km/h (1 Bft) W-SW 247 0 min 0,0 UV-I 0 W/m -1,4 C 0,7 C 4,8 km/h (1 Bft)
25.02.2023 06:06 0,7 C 0,0 C 86 % 1009,4 hPa 0,0 l/m 1,6 km/h (1 Bft) W 270 0 min 0,0 UV-I 0 W/m -1,4 C 0,7 C 3,2 km/h (1 Bft)
25.02.2023 06:07 0,7 C 0,0 C 86 % 1009,5 hPa 0,0 l/m 3,2 km/h (1 Bft) NW 315 0 min 0,0 UV-I 0 W/m -1,4 C 0,7 C 11,3 km/h (2 Bft)
25.02.2023 06:08 0,7 C 0,0 C 86 % 1009,5 hPa 0,0 l/m 4,8 km/h (1 Bft) NW 315 0 min 0,0 UV-I 0 W/m -1,4 C 0,7 C 9,7 km/h (2 Bft)
25.02.2023 06:09 0,7 C 0,0 C 86 % 1009,6 hPa 0,0 l/m 4,8 km/h (1 Bft) SW 225 0 min 0,0 UV-I 0 W/m -1,4 C 0,7 C 11,3 km/h (2 Bft)
25.02.2023 06:10 0,7 C 0,0 C 86 % 1009,6 hPa 0,0 l/m 4,8 km/h (1 Bft) W 270 0 min 0,0 UV-I 0 W/m -1,4 C 0,7 C 11,3 km/h (2 Bft)
25.02.2023 06:11 0,7 C 0,0 C 86 % 1009,4 hPa 0,0 l/m 9,7 km/h (2 Bft) SW 225 0 min 0,0 UV-I 0 W/m -1,4 C -2,4 C 12,9 km/h (3 Bft)
25.02.2023 06:12 0,7 C 0,0 C 86 % 1009,5 hPa 0,0 l/m 6,4 km/h (2 Bft) W-NW 292 0 min 0,0 UV-I 0 W/m -1,4 C 0,7 C 12,9 km/h (3 Bft)
25.02.2023 06:13 0,7 C 0,0 C 86 % 1009,5 hPa 0,0 l/m 4,8 km/h (1 Bft) W-NW 292 0 min 0,0 UV-I 0 W/m -1,4 C 0,7 C 6,4 km/h (2 Bft)
25.02.2023 06:14 0,7 C 0,0 C 86 % 1009,5 hPa 0,0 l/m 1,6 km/h (1 Bft) W-NW 292 0 min 0,0 UV-I 0 W/m -1,4 C 0,7 C 4,8 km/h (1 Bft)
25.02.2023 06:15 0,7 C 0,0 C 86 % 1009,5 hPa 0,0 l/m 4,8 km/h (1 Bft) W 270 0 min 0,0 UV-I 0 W/m -1,4 C 0,7 C 8,0 km/h (2 Bft)
25.02.2023 06:16 0,7 C 0,0 C 86 % 1009,5 hPa 0,0 l/m 6,4 km/h (2 Bft) W-SW 247 0 min 0,0 UV-I 0 W/m -1,4 C 0,7 C 12,9 km/h (3 Bft)
25.02.2023 06:17 0,7 C 0,0 C 86 % 1009,5 hPa 0,0 l/m 3,2 km/h (1 Bft) W-NW 292 0 min 0,0 UV-I 0 W/m -1,4 C 0,7 C 4,8 km/h (1 Bft)
25.02.2023 06:18 0,7 C 0,0 C 86 % 1009,5 hPa 0,0 l/m 1,6 km/h (1 Bft) W-NW 292 0 min 0,0 UV-I 0 W/m -1,4 C 0,7 C 4,8 km/h (1 Bft)
25.02.2023 06:19 0,7 C 0,0 C 86 % 1009,4 hPa 0,0 l/m 8,0 km/h (2 Bft) W 270 0 min 0,0 UV-I 0 W/m -1,4 C -0,9 C 12,9 km/h (3 Bft)
25.02.2023 06:20 0,7 C 0,0 C 86 % 1009,5 hPa 0,0 l/m 4,8 km/h (1 Bft) W-NW 292 0 min 0,0 UV-I 0 W/m -1,4 C 0,7 C 12,9 km/h (3 Bft)
25.02.2023 06:21 0,6 C 0,0 C 86 % 1009,5 hPa 0,0 l/m 4,8 km/h (1 Bft) N-NW 337 0 min 0,0 UV-I 0 W/m -1,5 C 0,6 C 11,3 km/h (2 Bft)
25.02.2023 06:22 0,7 C 0,0 C 86 % 1009,4 hPa 0,0 l/m 9,7 km/h (2 Bft) W-SW 247 0 min 0,0 UV-I 0 W/m -1,4 C -2,4 C 17,7 km/h (3 Bft)
25.02.2023 06:23 0,7 C 0,0 C 86 % 1009,5 hPa 0,0 l/m 4,8 km/h (1 Bft) W 270 0 min 0,0 UV-I 0 W/m -1,4 C 0,7 C 6,4 km/h (2 Bft)
25.02.2023 06:24 0,7 C 0,0 C 86 % 1009,5 hPa 0,0 l/m 3,2 km/h (1 Bft) W 270 0 min 0,0 UV-I 0 W/m -1,4 C 0,7 C 4,8 km/h (1 Bft)
25.02.2023 06:25 0,7 C 0,0 C 86 % 1009,5 hPa 0,0 l/m 9,7 km/h (2 Bft) W 270 0 min 0,0 UV-I 0 W/m -1,4 C -2,4 C 14,5 km/h (3 Bft)
25.02.2023 06:26 0,7 C 0,0 C 86 % 1009,5 hPa 0,0 l/m 3,2 km/h (1 Bft) W-NW 292 0 min 0,0 UV-I 0 W/m -1,4 C 0,7 C 6,4 km/h (2 Bft)
25.02.2023 06:27 0,7 C 0,0 C 86 % 1009,4 hPa 0,0 l/m 1,6 km/h (1 Bft) S-SW 202 0 min 0,0 UV-I 0 W/m -1,4 C 0,7 C 3,2 km/h (1 Bft)
25.02.2023 06:28 0,7 C 0,0 C 86 % 1009,5 hPa 0,0 l/m 4,8 km/h (1 Bft) W-NW 292 0 min 0,0 UV-I 0 W/m -1,4 C 0,7 C 11,3 km/h (2 Bft)
25.02.2023 06:29 0,7 C 0,0 C 86 % 1009,4 hPa 0,0 l/m 1,6 km/h (1 Bft) W-NW 292 0 min 0,0 UV-I 0 W/m -1,4 C 0,7 C 3,2 km/h (1 Bft)
25.02.2023 06:30 0,7 C 0,0 C 86 % 1009,5 hPa 0,0 l/m 4,8 km/h (1 Bft) W-NW 292 0 min 0,0 UV-I 0 W/m -1,4 C 0,7 C 17,7 km/h (3 Bft)
25.02.2023 06:31 0,7 C 0,0 C 86 % 1009,5 hPa 0,0 l/m 9,7 km/h (2 Bft) W-NW 292 0 min 0,0 UV-I 0 W/m -1,4 C -2,4 C 16,1 km/h (3 Bft)
25.02.2023 06:32 0,7 C 0,0 C 86 % 1009,5 hPa 0,0 l/m 4,8 km/h (1 Bft) W-NW 292 0 min 0,0 UV-I 0 W/m -1,4 C 0,7 C 6,4 km/h (2 Bft)
25.02.2023 06:33 0,7 C 0,0 C 86 % 1009,4 hPa 0,0 l/m 3,2 km/h (1 Bft) W 270 0 min 0,0 UV-I 0 W/m -1,4 C 0,7 C 4,8 km/h (1 Bft)
25.02.2023 06:34 0,6 C 0,0 C 86 % 1009,4 hPa 0,0 l/m 1,6 km/h (1 Bft) NW 315 0 min 0,0 UV-I 0 W/m -1,5 C 0,6 C 4,8 km/h (1 Bft)
25.02.2023 06:35 0,7 C 0,0 C 86 % 1009,5 hPa 0,0 l/m 0,0 km/h (0 Bft) NW 315 0 min 0,0 UV-I 0 W/m -1,4 C 0,7 C 1,6 km/h (1 Bft)
25.02.2023 06:36 0,7 C 0,0 C 86 % 1009,5 hPa 0,0 l/m 1,6 km/h (1 Bft) W-SW 247 0 min 0,0 UV-I 0 W/m -1,4 C 0,7 C 6,4 km/h (2 Bft)
25.02.2023 06:37 0,7 C 0,0 C 86 % 1009,5 hPa 0,0 l/m 1,6 km/h (1 Bft) W-SW 247 0 min 0,0 UV-I 0 W/m -1,4 C 0,7 C 3,2 km/h (1 Bft)
25.02.2023 06:38 0,7 C 0,0 C 86 % 1009,4 hPa 0,0 l/m 3,2 km/h (1 Bft) W-SW 247 0 min 0,0 UV-I 0 W/m -1,4 C 0,7 C 8,0 km/h (2 Bft)
25.02.2023 06:39 0,7 C 0,0 C 86 % 1009,4 hPa 0,0 l/m 1,6 km/h (1 Bft) W-SW 247 0 min 0,0 UV-I 0 W/m -1,4 C 0,7 C 4,8 km/h (1 Bft)
25.02.2023 06:40 0,7 C 0,0 C 86 % 1009,5 hPa 0,0 l/m 1,6 km/h (1 Bft) W-SW 247 0 min 0,0 UV-I 0 W/m -1,4 C 0,7 C 3,2 km/h (1 Bft)
25.02.2023 06:41 0,7 C 0,0 C 86 % 1009,5 hPa 0,0 l/m 3,2 km/h (1 Bft) NW 315 0 min 0,0 UV-I 0 W/m -1,4 C 0,7 C 4,8 km/h (1 Bft)
25.02.2023 06:42 0,6 C 0,0 C 86 % 1009,5 hPa 0,0 l/m 1,6 km/h (1 Bft) NW 315 0 min 0,0 UV-I 0 W/m -1,5 C 0,6 C 3,2 km/h (1 Bft)
25.02.2023 06:43 0,6 C 0,0 C 86 % 1009,5 hPa 0,0 l/m 4,8 km/h (1 Bft) W-SW 247 0 min 0,0 UV-I 0 W/m -1,5 C 0,6 C 8,0 km/h (2 Bft)
25.02.2023 06:44 0,6 C 0,0 C 86 % 1009,3 hPa 0,0 l/m 1,6 km/h (1 Bft) W-SW 247 0 min 0,0 UV-I 0 W/m -1,5 C 0,6 C 3,2 km/h (1 Bft)
25.02.2023 06:45 0,6 C 0,0 C 86 % 1009,4 hPa 0,0 l/m 4,8 km/h (1 Bft) W-SW 247 0 min 0,0 UV-I 0 W/m -1,5 C 0,6 C 16,1 km/h (3 Bft)
25.02.2023 06:46 0,6 C 0,0 C 87 % 1009,4 hPa 0,0 l/m 4,8 km/h (1 Bft) W 270 0 min 0,0 UV-I 0 W/m -1,3 C 0,6 C 12,9 km/h (3 Bft)
25.02.2023 06:47 0,6 C 0,0 C 87 % 1009,5 hPa 0,0 l/m 4,8 km/h (1 Bft) NW 315 0 min 0,0 UV-I 0 W/m -1,3 C 0,6 C 6,4 km/h (2 Bft)
25.02.2023 06:48 0,6 C 0,0 C 87 % 1009,5 hPa 0,0 l/m 1,6 km/h (1 Bft) W 270 0 min 0,0 UV-I 0 W/m -1,3 C 0,6 C 4,8 km/h (1 Bft)
25.02.2023 06:49 0,6 C 0,0 C 87 % 1009,4 hPa 0,0 l/m 4,8 km/h (1 Bft) W 270 0 min 0,0 UV-I 0 W/m -1,3 C 0,6 C 6,4 km/h (2 Bft)
25.02.2023 06:50 0,6 C 0,0 C 87 % 1009,4 hPa 0,0 l/m 3,2 km/h (1 Bft) N-NW 337 0 min 0,0 UV-I 0 W/m -1,3 C 0,6 C 8,0 km/h (2 Bft)
25.02.2023 06:51 0,6 C 0,0 C 87 % 1009,5 hPa 0,0 l/m 0,0 km/h (0 Bft) N-NW 337 0 min 0,0 UV-I 0 W/m -1,3 C 0,6 C 1,6 km/h (1 Bft)
25.02.2023 06:52 0,6 C 0,0 C 87 % 1009,6 hPa 0,0 l/m 0,0 km/h (0 Bft) N-NW 337 0 min 0,0 UV-I 0 W/m -1,3 C 0,6 C 1,6 km/h (1 Bft)
25.02.2023 06:53 0,6 C 0,0 C 87 % 1009,5 hPa 0,0 l/m 3,2 km/h (1 Bft) N-NW 337 0 min 0,0 UV-I 0 W/m -1,3 C 0,6 C 12,9 km/h (3 Bft)
25.02.2023 06:54 0,6 C 0,0 C 87 % 1009,5 hPa 0,0 l/m 3,2 km/h (1 Bft) SW 225 0 min 0,0 UV-I 0 W/m -1,3 C 0,6 C 6,4 km/h (2 Bft)
25.02.2023 06:55 0,6 C 0,0 C 87 % 1009,5 hPa 0,0 l/m 3,2 km/h (1 Bft) W 270 0 min 0,0 UV-I 0 W/m -1,3 C 0,6 C 6,4 km/h (2 Bft)
25.02.2023 06:56 0,6 C 0,0 C 87 % 1009,6 hPa 0,0 l/m 4,8 km/h (1 Bft) W 270 0 min 0,0 UV-I 0 W/m -1,3 C 0,6 C 12,9 km/h (3 Bft)
25.02.2023 06:57 0,6 C 0,0 C 87 % 1009,7 hPa 0,0 l/m 3,2 km/h (1 Bft) W 270 0 min 0,0 UV-I 0 W/m -1,3 C 0,6 C 4,8 km/h (1 Bft)
25.02.2023 06:58 0,6 C 0,0 C 87 % 1009,6 hPa 0,0 l/m 1,6 km/h (1 Bft) W 270 0 min 0,0 UV-I 0 W/m -1,3 C 0,6 C 4,8 km/h (1 Bft)
25.02.2023 06:59 0,6 C 0,0 C 87 % 1009,7 hPa 0,0 l/m 1,6 km/h (1 Bft) W 270 0 min 0,0 UV-I 0 W/m -1,3 C 0,6 C 4,8 km/h (1 Bft)
25.02.2023 07:00 0,6 C 0,0 C 87 % 1009,6 hPa 0,0 l/m 1,6 km/h (1 Bft) N 360 0 min 0,0 UV-I 0 W/m -1,3 C 0,6 C 4,8 km/h (1 Bft)
25.02.2023 07:01 0,6 C 0,0 C 87 % 1009,6 hPa 0,0 l/m 6,4 km/h (2 Bft) NW 315 0 min 0,0 UV-I 0 W/m -1,3 C 0,6 C 16,1 km/h (3 Bft)
25.02.2023 07:02 0,6 C 0,0 C 87 % 1009,6 hPa 0,0 l/m 6,4 km/h (2 Bft) W 270 0 min 0,0 UV-I 0 W/m -1,3 C 0,6 C 14,5 km/h (3 Bft)
25.02.2023 07:03 0,6 C 0,0 C 87 % 1009,6 hPa 0,0 l/m 6,4 km/h (2 Bft) W-SW 247 0 min 0,0 UV-I 0 W/m -1,3 C 0,6 C 11,3 km/h (2 Bft)
25.02.2023 07:04 0,6 C 0,0 C 88 % 1009,6 hPa 0,0 l/m 1,6 km/h (1 Bft) W-SW 247 0 min 0,0 UV-I 0 W/m -1,2 C 0,6 C 3,2 km/h (1 Bft)
25.02.2023 07:05 0,6 C 0,0 C 87 % 1009,7 hPa 0,0 l/m 6,4 km/h (2 Bft) W-NW 292 0 min 0,0 UV-I 0 W/m -1,3 C 0,6 C 16,1 km/h (3 Bft)
25.02.2023 07:06 0,6 C 0,0 C 88 % 1009,6 hPa 0,0 l/m 4,8 km/h (1 Bft) W-NW 292 0 min 0,0 UV-I 0 W/m -1,2 C 0,6 C 11,3 km/h (2 Bft)
25.02.2023 07:07 0,6 C 0,0 C 88 % 1009,6 hPa 0,0 l/m 4,8 km/h (1 Bft) W-NW 292 0 min 0,0 UV-I 0 W/m -1,2 C 0,6 C 14,5 km/h (3 Bft)
25.02.2023 07:08 0,6 C 0,0 C 88 % 1009,6 hPa 0,0 l/m 4,8 km/h (1 Bft) NW 315 0 min 0,0 UV-I 0 W/m -1,2 C 0,6 C 9,7 km/h (2 Bft)
25.02.2023 07:09 0,6 C 0,0 C 88 % 1009,6 hPa 0,0 l/m 6,4 km/h (2 Bft) SW 225 0 min 0,0 UV-I 0 W/m -1,2 C 0,6 C 14,5 km/h (3 Bft)
25.02.2023 07:10 0,6 C 0,0 C 88 % 1009,5 hPa 0,0 l/m 6,4 km/h (2 Bft) W 270 0 min 0,0 UV-I 0 W/m -1,2 C 0,6 C 11,3 km/h (2 Bft)
25.02.2023 07:11 0,6 C 0,0 C 88 % 1009,6 hPa 0,0 l/m 3,2 km/h (1 Bft) W 270 0 min 0,0 UV-I 0 W/m -1,2 C 0,6 C 3,2 km/h (1 Bft)
25.02.2023 07:12 0,6 C 0,0 C 88 % 1009,6 hPa 0,0 l/m 1,6 km/h (1 Bft) W 270 0 min 0,0 UV-I 0 W/m -1,2 C 0,6 C 4,8 km/h (1 Bft)
25.02.2023 07:13 0,6 C 0,0 C 88 % 1009,6 hPa 0,0 l/m 8,0 km/h (2 Bft) W 270 0 min 0,0 UV-I 0 W/m -1,2 C -1,0 C 12,9 km/h (3 Bft)
25.02.2023 07:14 0,6 C 0,0 C 88 % 1009,5 hPa 0,0 l/m 1,6 km/h (1 Bft) W 270 0 min 0,0 UV-I 0 W/m -1,2 C 0,6 C 3,2 km/h (1 Bft)
25.02.2023 07:15 0,6 C 0,0 C 88 % 1009,5 hPa 0,0 l/m 4,8 km/h (1 Bft) W 270 0 min 0,0 UV-I 0 W/m -1,2 C 0,6 C 6,4 km/h (2 Bft)
25.02.2023 07:16 0,6 C 0,0 C 88 % 1009,7 hPa 0,0 l/m 3,2 km/h (1 Bft) W 270 0 min 0,0 UV-I 0 W/m -1,2 C 0,6 C 4,8 km/h (1 Bft)
25.02.2023 07:17 0,6 C 0,0 C 88 % 1009,6 hPa 0,0 l/m 4,8 km/h (1 Bft) W-NW 292 0 min 0,0 UV-I 0 W/m -1,2 C 0,6 C 6,4 km/h (2 Bft)
25.02.2023 07:18 0,6 C 0,0 C 88 % 1009,6 hPa 0,0 l/m 3,2 km/h (1 Bft) W 270 0 min 0,0 UV-I 0 W/m -1,2 C 0,6 C 6,4 km/h (2 Bft)
25.02.2023 07:19 0,6 C 0,0 C 88 % 1009,6 hPa 0,0 l/m 1,6 km/h (1 Bft) W 270 0 min 0,0 UV-I 0 W/m -1,2 C 0,6 C 4,8 km/h (1 Bft)
25.02.2023 07:20 0,6 C 0,0 C 88 % 1009,5 hPa 0,0 l/m 3,2 km/h (1 Bft) NW 315 0 min 0,0 UV-I 0 W/m -1,2 C 0,6 C 4,8 km/h (1 Bft)
25.02.2023 07:21 0,6 C 0,0 C 88 % 1009,6 hPa 0,0 l/m 3,2 km/h (1 Bft) SW 225 0 min 0,0 UV-I 0 W/m -1,2 C 0,6 C 4,8 km/h (1 Bft)
25.02.2023 07:22 0,6 C 0,0 C 88 % 1009,7 hPa 0,0 l/m 1,6 km/h (1 Bft) SW 225 0 min 0,0 UV-I 0 W/m -1,2 C 0,6 C 3,2 km/h (1 Bft)
25.02.2023 07:23 0,6 C 0,0 C 88 % 1009,6 hPa 0,0 l/m 1,6 km/h (1 Bft) NW 315 0 min 0,0 UV-I 0 W/m -1,2 C 0,6 C 4,8 km/h (1 Bft)
25.02.2023 07:24 0,6 C 0,0 C 88 % 1009,6 hPa 0,0 l/m 1,6 km/h (1 Bft) W-SW 247 0 min 0,0 UV-I 0 W/m -1,2 C 0,6 C 3,2 km/h (1 Bft)
25.02.2023 07:25 0,6 C 0,0 C 88 % 1009,6 hPa 0,0 l/m 3,2 km/h (1 Bft) W-SW 247 0 min 0,0 UV-I 0 W/m -1,2 C 0,6 C 6,4 km/h (2 Bft)
25.02.2023 07:26 0,6 C 0,0 C 88 % 1009,6 hPa 0,0 l/m 6,4 km/h (2 Bft) W-NW 292 0 min 0,0 UV-I 0 W/m -1,2 C 0,6 C 11,3 km/h (2 Bft)
25.02.2023 07:27 0,6 C 0,0 C 88 % 1009,7 hPa 0,0 l/m 4,8 km/h (1 Bft) W-SW 247 0 min 0,0 UV-I 0 W/m -1,2 C 0,6 C 6,4 km/h (2 Bft)
25.02.2023 07:28 0,6 C 0,0 C 88 % 1009,7 hPa 0,0 l/m 3,2 km/h (1 Bft) W-SW 247 0 min 0,0 UV-I 0 W/m -1,2 C 0,6 C 4,8 km/h (1 Bft)
25.02.2023 07:29 0,6 C 0,0 C 88 % 1009,7 hPa 0,0 l/m 1,6 km/h (1 Bft) NW 315 0 min 0,0 UV-I 0 W/m -1,2 C 0,6 C 4,8 km/h (1 Bft)
25.02.2023 07:30 0,6 C 0,0 C 88 % 1009,7 hPa 0,0 l/m 1,6 km/h (1 Bft) NW 315 0 min 0,0 UV-I 0 W/m -1,2 C 0,6 C 3,2 km/h (1 Bft)
25.02.2023 07:31 0,6 C 0,0 C 88 % 1009,7 hPa 0,0 l/m 3,2 km/h (1 Bft) W-NW 292 0 min 0,0 UV-I 0 W/m -1,2 C 0,6 C 11,3 km/h (2 Bft)
25.02.2023 07:32 0,6 C 0,0 C 88 % 1009,7 hPa 0,0 l/m 4,8 km/h (1 Bft) NW 315 0 min 0,0 UV-I 0 W/m -1,2 C 0,6 C 12,9 km/h (3 Bft)
25.02.2023 07:33 0,6 C 0,0 C 88 % 1009,9 hPa 0,0 l/m 4,8 km/h (1 Bft) W-NW 292 0 min 0,0 UV-I 0 W/m -1,2 C 0,6 C 11,3 km/h (2 Bft)
25.02.2023 07:34 0,6 C 0,0 C 88 % 1009,8 hPa 0,0 l/m 3,2 km/h (1 Bft) N-NW 337 0 min 0,0 UV-I 0 W/m -1,2 C 0,6 C 11,3 km/h (2 Bft)
25.02.2023 07:35 0,6 C 0,0 C 87 % 1009,9 hPa 0,0 l/m 1,6 km/h (1 Bft) N-NW 337 0 min 0,0 UV-I 0 W/m -1,3 C 0,6 C 4,8 km/h (1 Bft)
25.02.2023 07:36 0,6 C 0,0 C 87 % 1009,9 hPa 0,0 l/m 6,4 km/h (2 Bft) W-NW 292 0 min 0,0 UV-I 0 W/m -1,3 C 0,6 C 12,9 km/h (3 Bft)
25.02.2023 07:37 0,6 C 0,0 C 87 % 1009,9 hPa 0,0 l/m 6,4 km/h (2 Bft) W-NW 292 0 min 0,0 UV-I 0 W/m -1,3 C 0,6 C 11,3 km/h (2 Bft)
25.02.2023 07:38 0,6 C 0,0 C 87 % 1009,8 hPa 0,0 l/m 3,2 km/h (1 Bft) NW 315 0 min 0,0 UV-I 0 W/m -1,3 C 0,6 C 14,5 km/h (3 Bft)
25.02.2023 07:39 0,6 C 0,0 C 87 % 1010,0 hPa 0,0 l/m 6,4 km/h (2 Bft) W-NW 292 0 min 0,0 UV-I 0 W/m -1,3 C 0,6 C 14,5 km/h (3 Bft)
25.02.2023 07:40 0,6 C 0,0 C 87 % 1010,0 hPa 0,0 l/m 1,6 km/h (1 Bft) W-NW 292 0 min 0,0 UV-I 0 W/m -1,3 C 0,6 C 11,3 km/h (2 Bft)
25.02.2023 07:41 0,6 C 0,0 C 87 % 1010,0 hPa 0,0 l/m 1,6 km/h (1 Bft) W-SW 247 0 min 0,0 UV-I 3 W/m -1,3 C 0,6 C 4,8 km/h (1 Bft)
25.02.2023 07:42 0,6 C 0,0 C 87 % 1009,9 hPa 0,0 l/m 4,8 km/h (1 Bft) W-NW 292 0 min 0,0 UV-I 5 W/m -1,3 C 0,6 C 6,4 km/h (2 Bft)
25.02.2023 07:43 0,6 C 0,0 C 87 % 1010,0 hPa 0,0 l/m 1,6 km/h (1 Bft) NW 315 0 min 0,0 UV-I 5 W/m -1,3 C 0,6 C 4,8 km/h (1 Bft)
25.02.2023 07:44 0,6 C 0,0 C 87 % 1010,0 hPa 0,0 l/m 6,4 km/h (2 Bft) NW 315 0 min 0,0 UV-I 5 W/m -1,3 C 0,6 C 11,3 km/h (2 Bft)
25.02.2023 07:45 0,6 C 0,0 C 87 % 1010,0 hPa 0,0 l/m 3,2 km/h (1 Bft) NW 315 0 min 0,0 UV-I 5 W/m -1,3 C 0,6 C 6,4 km/h (2 Bft)
25.02.2023 07:46 0,6 C 0,0 C 87 % 1010,1 hPa 0,0 l/m 4,8 km/h (1 Bft) W-NW 292 0 min 0,0 UV-I 5 W/m -1,3 C 0,6 C 11,3 km/h (2 Bft)
25.02.2023 07:47 0,6 C 0,0 C 87 % 1010,1 hPa 0,0 l/m 1,6 km/h (1 Bft) NW 315 0 min 0,0 UV-I 5 W/m -1,3 C 0,6 C 4,8 km/h (1 Bft)
25.02.2023 07:48 0,6 C 0,0 C 87 % 1010,1 hPa 0,0 l/m 3,2 km/h (1 Bft) W-NW 292 0 min 0,0 UV-I 5 W/m -1,3 C 0,6 C 6,4 km/h (2 Bft)
25.02.2023 07:49 0,6 C 0,0 C 87 % 1010,1 hPa 0,0 l/m 1,6 km/h (1 Bft) W-SW 247 0 min 0,0 UV-I 5 W/m -1,3 C 0,6 C 4,8 km/h (1 Bft)
25.02.2023 07:50 0,6 C 0,0 C 87 % 1010,1 hPa 0,0 l/m 6,4 km/h (2 Bft) N-NW 337 0 min 0,0 UV-I 5 W/m -1,3 C 0,6 C 11,3 km/h (2 Bft)
25.02.2023 07:51 0,6 C 0,0 C 87 % 1010,1 hPa 0,0 l/m 4,8 km/h (1 Bft) W-NW 292 0 min 0,0 UV-I 5 W/m -1,3 C 0,6 C 9,7 km/h (2 Bft)
25.02.2023 07:52 0,6 C 0,0 C 86 % 1010,1 hPa 0,0 l/m 0,0 km/h (0 Bft) W-NW 292 0 min 0,0 UV-I 5 W/m -1,5 C 0,6 C 1,6 km/h (1 Bft)
25.02.2023 07:53 0,6 C 0,0 C 86 % 1010,2 hPa 0,0 l/m 0,0 km/h (0 Bft) W-NW 292 0 min 0,0 UV-I 7 W/m -1,5 C 0,6 C 1,6 km/h (1 Bft)
25.02.2023 07:54 0,6 C 0,0 C 86 % 1010,2 hPa 0,0 l/m 0,0 km/h (0 Bft) W-NW 292 0 min 0,0 UV-I 9 W/m -1,5 C 0,6 C 1,6 km/h (1 Bft)
25.02.2023 07:55 0,6 C 0,0 C 86 % 1010,1 hPa 0,0 l/m 3,2 km/h (1 Bft) W-NW 292 0 min 0,0 UV-I 9 W/m -1,5 C 0,6 C 6,4 km/h (2 Bft)
25.02.2023 07:56 0,6 C 0,0 C 86 % 1010,2 hPa 0,0 l/m 3,2 km/h (1 Bft) NW 315 0 min 0,0 UV-I 9 W/m -1,5 C 0,6 C 6,4 km/h (2 Bft)
25.02.2023 07:57 0,6 C 0,0 C 86 % 1010,2 hPa 0,0 l/m 3,2 km/h (1 Bft) W-NW 292 0 min 0,0 UV-I 9 W/m -1,5 C 0,6 C 4,8 km/h (1 Bft)
25.02.2023 07:58 0,6 C 0,0 C 86 % 1010,2 hPa 0,0 l/m 3,2 km/h (1 Bft) W-NW 292 0 min 0,0 UV-I 7 W/m -1,5 C 0,6 C 6,4 km/h (2 Bft)
25.02.2023 07:59 0,6 C 0,0 C 86 % 1010,2 hPa 0,0 l/m 1,6 km/h (1 Bft) W-SW 247 0 min 0,0 UV-I 8 W/m -1,5 C 0,6 C 4,8 km/h (1 Bft)
25.02.2023 08:00 0,6 C 0,0 C 86 % 1010,2 hPa 0,0 l/m 1,6 km/h (1 Bft) N 360 0 min 0,0 UV-I 9 W/m -1,5 C 0,6 C 8,0 km/h (2 Bft)
25.02.2023 08:01 0,6 C 0,0 C 86 % 1010,2 hPa 0,0 l/m 6,4 km/h (2 Bft) W 270 0 min 0,0 UV-I 9 W/m -1,5 C 0,6 C 11,3 km/h (2 Bft)
25.02.2023 08:02 0,6 C 0,0 C 86 % 1010,2 hPa 0,0 l/m 4,8 km/h (1 Bft) N-NW 337 0 min 0,0 UV-I 9 W/m -1,5 C 0,6 C 9,7 km/h (2 Bft)
25.02.2023 08:03 0,6 C 0,0 C 86 % 1010,2 hPa 0,0 l/m 6,4 km/h (2 Bft) NW 315 0 min 0,0 UV-I 9 W/m -1,5 C 0,6 C 12,9 km/h (3 Bft)
25.02.2023 08:04 0,6 C 0,0 C 86 % 1010,2 hPa 0,0 l/m 4,8 km/h (1 Bft) W 270 0 min 0,0 UV-I 9 W/m -1,5 C 0,6 C 6,4 km/h (2 Bft)
25.02.2023 08:05 0,6 C 0,0 C 86 % 1010,3 hPa 0,0 l/m 3,2 km/h (1 Bft) N-NW 337 0 min 0,0 UV-I 9 W/m -1,5 C 0,6 C 8,0 km/h (2 Bft)
25.02.2023 08:06 0,6 C 0,0 C 86 % 1010,2 hPa 0,0 l/m 4,8 km/h (1 Bft) W 270 0 min 0,0 UV-I 11 W/m -1,5 C 0,6 C 8,0 km/h (2 Bft)
25.02.2023 08:07 0,6 C 0,0 C 86 % 1010,2 hPa 0,0 l/m 1,6 km/h (1 Bft) W 270 0 min 0,0 UV-I 11 W/m -1,5 C 0,6 C 6,4 km/h (2 Bft)
25.02.2023 08:08 0,6 C 0,0 C 86 % 1010,2 hPa 0,0 l/m 3,2 km/h (1 Bft) W 270 0 min 0,0 UV-I 11 W/m -1,5 C 0,6 C 11,3 km/h (2 Bft)
25.02.2023 08:09 0,6 C 0,0 C 86 % 1010,3 hPa 0,0 l/m 6,4 km/h (2 Bft) W 270 0 min 0,0 UV-I 11 W/m -1,5 C 0,6 C 12,9 km/h (3 Bft)
25.02.2023 08:10 0,6 C 0,0 C 86 % 1010,2 hPa 0,0 l/m 4,8 km/h (1 Bft) NW 315 0 min 0,0 UV-I 12 W/m -1,5 C 0,6 C 11,3 km/h (2 Bft)
25.02.2023 08:11 0,6 C 0,0 C 86 % 1010,2 hPa 0,0 l/m 1,6 km/h (1 Bft) W 270 0 min 0,0 UV-I 16 W/m -1,5 C 0,6 C 4,8 km/h (1 Bft)
25.02.2023 08:12 0,6 C 0,0 C 86 % 1010,1 hPa 0,0 l/m 3,2 km/h (1 Bft) W-SW 247 0 min 0,0 UV-I 18 W/m -1,5 C 0,6 C 16,1 km/h (3 Bft)
25.02.2023 08:13 0,6 C 0,0 C 86 % 1010,2 hPa 0,0 l/m 8,0 km/h (2 Bft) NW 315 0 min 0,0 UV-I 19 W/m -1,5 C -1,0 C 14,5 km/h (3 Bft)
25.02.2023 08:14 0,6 C 0,0 C 86 % 1010,1 hPa 0,0 l/m 1,6 km/h (1 Bft) W-NW 292 0 min 0,0 UV-I 19 W/m -1,5 C 0,6 C 3,2 km/h (1 Bft)
25.02.2023 08:15 0,6 C 0,0 C 86 % 1010,2 hPa 0,0 l/m 1,6 km/h (1 Bft) W-NW 292 0 min 0,0 UV-I 21 W/m -1,5 C 0,6 C 3,2 km/h (1 Bft)
25.02.2023 08:16 0,6 C 0,0 C 85 % 1010,2 hPa 0,0 l/m 1,6 km/h (1 Bft) W-NW 292 0 min 0,0 UV-I 23 W/m -1,6 C 0,6 C 3,2 km/h (1 Bft)
25.02.2023 08:17 0,6 C 0,0 C 85 % 1010,2 hPa 0,0 l/m 1,6 km/h (1 Bft) W-NW 292 0 min 0,0 UV-I 21 W/m -1,6 C 0,6 C 4,8 km/h (1 Bft)
25.02.2023 08:18 0,6 C 0,0 C 85 % 1010,2 hPa 0,0 l/m 1,6 km/h (1 Bft) W-NW 292 0 min 0,0 UV-I 21 W/m -1,6 C 0,6 C 3,2 km/h (1 Bft)
25.02.2023 08:19 0,6 C 0,0 C 85 % 1010,2 hPa 0,0 l/m 0,0 km/h (0 Bft) W 270 0 min 0,0 UV-I 23 W/m -1,6 C 0,6 C 1,6 km/h (1 Bft)
25.02.2023 08:20 0,6 C 0,0 C 85 % 1010,2 hPa 0,0 l/m 0,0 km/h (0 Bft) W 270 0 min 0,0 UV-I 23 W/m -1,6 C 0,6 C 1,6 km/h (1 Bft)
25.02.2023 08:21 0,6 C 0,0 C 85 % 1010,3 hPa 0,0 l/m 1,6 km/h (1 Bft) W 270 0 min 0,0 UV-I 26 W/m -1,6 C 0,6 C 6,4 km/h (2 Bft)
25.02.2023 08:22 0,6 C 0,0 C 85 % 1010,2 hPa 0,0 l/m 4,8 km/h (1 Bft) W-SW 247 0 min 0,0 UV-I 29 W/m -1,6 C 0,6 C 8,0 km/h (2 Bft)
25.02.2023 08:23 0,6 C 0,0 C 85 % 1010,3 hPa 0,0 l/m 3,2 km/h (1 Bft) W-NW 292 0 min 0,0 UV-I 30 W/m -1,6 C 0,6 C 8,0 km/h (2 Bft)
25.02.2023 08:24 0,6 C 0,6 C 85 % 1010,3 hPa 0,0 l/m 4,8 km/h (1 Bft) SW 225 0 min 0,0 UV-I 30 W/m -1,6 C 0,6 C 6,4 km/h (2 Bft)
25.02.2023 08:25 0,6 C 0,6 C 85 % 1010,3 hPa 0,0 l/m 6,4 km/h (2 Bft) W 270 0 min 0,0 UV-I 30 W/m -1,6 C 0,6 C 9,7 km/h (2 Bft)
25.02.2023 08:26 0,6 C 0,6 C 85 % 1010,4 hPa 0,0 l/m 4,8 km/h (1 Bft) W 270 0 min 0,0 UV-I 30 W/m -1,6 C 0,6 C 6,4 km/h (2 Bft)
25.02.2023 08:27 0,6 C 0,6 C 85 % 1010,3 hPa 0,0 l/m 3,2 km/h (1 Bft) W-NW 292 0 min 0,0 UV-I 28 W/m -1,6 C 0,6 C 6,4 km/h (2 Bft)
25.02.2023 08:28 0,6 C 0,6 C 85 % 1010,3 hPa 0,0 l/m 3,2 km/h (1 Bft) W-NW 292 0 min 0,0 UV-I 28 W/m -1,6 C 0,6 C 6,4 km/h (2 Bft)
25.02.2023 08:29 0,6 C 0,6 C 85 % 1010,3 hPa 0,0 l/m 1,6 km/h (1 Bft) W-NW 292 0 min 0,0 UV-I 28 W/m -1,6 C 0,6 C 3,2 km/h (1 Bft)
25.02.2023 08:30 0,6 C 0,6 C 85 % 1010,3 hPa 0,0 l/m 3,2 km/h (1 Bft) W-SW 247 0 min 0,0 UV-I 30 W/m -1,6 C 0,6 C 6,4 km/h (2 Bft)
25.02.2023 08:31 0,7 C 0,6 C 85 % 1010,3 hPa 0,0 l/m 6,4 km/h (2 Bft) W-NW 292 0 min 0,0 UV-I 30 W/m -1,5 C 0,7 C 6,4 km/h (2 Bft)
25.02.2023 08:32 0,7 C 0,6 C 85 % 1010,3 hPa 0,0 l/m 4,8 km/h (1 Bft) W 270 0 min 0,0 UV-I 32 W/m -1,5 C 0,7 C 6,4 km/h (2 Bft)
25.02.2023 08:33 0,7 C 0,6 C 85 % 1010,3 hPa 0,0 l/m 3,2 km/h (1 Bft) W 270 0 min 0,0 UV-I 30 W/m -1,5 C 0,7 C 8,0 km/h (2 Bft)
25.02.2023 08:34 0,7 C 0,6 C 85 % 1010,3 hPa 0,0 l/m 4,8 km/h (1 Bft) NW 315 0 min 0,0 UV-I 30 W/m -1,5 C 0,7 C 11,3 km/h (2 Bft)
25.02.2023 08:35 0,7 C 0,6 C 85 % 1010,4 hPa 0,0 l/m 6,4 km/h (2 Bft) W 270 0 min 0,0 UV-I 30 W/m -1,5 C 0,7 C 14,5 km/h (3 Bft)
25.02.2023 08:36 0,7 C 0,6 C 85 % 1010,3 hPa 0,0 l/m 6,4 km/h (2 Bft) W-SW 247 0 min 0,0 UV-I 30 W/m -1,5 C 0,7 C 16,1 km/h (3 Bft)
25.02.2023 08:37 0,7 C 0,6 C 85 % 1010,3 hPa 0,0 l/m 11,3 km/h (2 Bft) W 270 0 min 0,0 UV-I 30 W/m -1,5 C -3,7 C 16,1 km/h (3 Bft)
25.02.2023 08:38 0,7 C 0,6 C 85 % 1010,3 hPa 0,0 l/m 6,4 km/h (2 Bft) W-SW 247 0 min 0,0 UV-I 30 W/m -1,5 C 0,7 C 11,3 km/h (2 Bft)
25.02.2023 08:39 0,7 C 0,6 C 85 % 1010,3 hPa 0,0 l/m 4,8 km/h (1 Bft) W-SW 247 0 min 0,0 UV-I 32 W/m -1,5 C 0,7 C 12,9 km/h (3 Bft)
25.02.2023 08:40 0,7 C 0,6 C 85 % 1010,3 hPa 0,0 l/m 4,8 km/h (1 Bft) W-SW 247 0 min 0,0 UV-I 31 W/m -1,5 C 0,7 C 8,0 km/h (2 Bft)
25.02.2023 08:41 0,7 C 0,6 C 85 % 1010,3 hPa 0,0 l/m 6,4 km/h (2 Bft) W 270 0 min 0,0 UV-I 30 W/m -1,5 C 0,7 C 12,9 km/h (3 Bft)
25.02.2023 08:42 0,7 C 0,6 C 85 % 1010,3 hPa 0,0 l/m 4,8 km/h (1 Bft) W 270 0 min 0,0 UV-I 32 W/m -1,5 C 0,7 C 9,7 km/h (2 Bft)
25.02.2023 08:43 0,7 C 0,6 C 85 % 1010,3 hPa 0,0 l/m 4,8 km/h (1 Bft) W-NW 292 0 min 0,0 UV-I 33 W/m -1,5 C 0,7 C 8,0 km/h (2 Bft)
25.02.2023 08:44 0,7 C 0,6 C 85 % 1010,3 hPa 0,0 l/m 3,2 km/h (1 Bft) W-NW 292 0 min 0,0 UV-I 33 W/m -1,5 C 0,7 C 4,8 km/h (1 Bft)
25.02.2023 08:45 0,7 C 0,6 C 85 % 1010,4 hPa 0,0 l/m 4,8 km/h (1 Bft) W 270 0 min 0,0 UV-I 33 W/m -1,5 C 0,7 C 8,0 km/h (2 Bft)
25.02.2023 08:46 0,7 C 0,6 C 85 % 1010,3 hPa 0,0 l/m 3,2 km/h (1 Bft) W-SW 247 0 min 0,0 UV-I 30 W/m -1,5 C 0,7 C 8,0 km/h (2 Bft)
25.02.2023 08:47 0,7 C 0,6 C 85 % 1010,4 hPa 0,0 l/m 4,8 km/h (1 Bft) W-NW 292 0 min 0,0 UV-I 30 W/m -1,5 C 0,7 C 6,4 km/h (2 Bft)
25.02.2023 08:48 0,7 C 0,6 C 85 % 1010,3 hPa 0,0 l/m 4,8 km/h (1 Bft) W-SW 247 0 min 0,0 UV-I 30 W/m -1,5 C 0,7 C 8,0 km/h (2 Bft)
25.02.2023 08:49 0,7 C 0,6 C 85 % 1010,3 hPa 0,0 l/m 8,0 km/h (2 Bft) W-SW 247 0 min 0,0 UV-I 33 W/m -1,5 C -0,9 C 12,9 km/h (3 Bft)
25.02.2023 08:50 0,7 C 0,6 C 85 % 1010,4 hPa 0,0 l/m 11,3 km/h (2 Bft) W 270 0 min 0,0 UV-I 37 W/m -1,5 C -3,7 C 16,1 km/h (3 Bft)
25.02.2023 08:51 0,7 C 0,6 C 85 % 1010,4 hPa 0,0 l/m 4,8 km/h (1 Bft) SW 225 0 min 0,0 UV-I 39 W/m -1,5 C 0,7 C 9,7 km/h (2 Bft)
25.02.2023 08:52 0,7 C 0,6 C 85 % 1010,4 hPa 0,0 l/m 9,7 km/h (2 Bft) W-NW 292 0 min 0,0 UV-I 39 W/m -1,5 C -2,4 C 16,1 km/h (3 Bft)
25.02.2023 08:53 0,7 C 0,6 C 85 % 1010,4 hPa 0,0 l/m 8,0 km/h (2 Bft) W 270 0 min 0,0 UV-I 37 W/m -1,5 C -0,9 C 11,3 km/h (2 Bft)
25.02.2023 08:54 0,7 C 0,6 C 85 % 1010,5 hPa 0,0 l/m 6,4 km/h (2 Bft) W 270 0 min 0,0 UV-I 39 W/m -1,5 C 0,7 C 11,3 km/h (2 Bft)
25.02.2023 08:55 0,7 C 0,6 C 85 % 1010,4 hPa 0,0 l/m 4,8 km/h (1 Bft) W 270 0 min 0,0 UV-I 40 W/m -1,5 C 0,7 C 6,4 km/h (2 Bft)
25.02.2023 08:56 0,7 C 0,6 C 85 % 1010,4 hPa 0,0 l/m 4,8 km/h (1 Bft) SW 225 0 min 0,0 UV-I 40 W/m -1,5 C 0,7 C 6,4 km/h (2 Bft)
25.02.2023 08:57 0,7 C 0,6 C 85 % 1010,4 hPa 0,0 l/m 4,8 km/h (1 Bft) SW 225 0 min 0,0 UV-I 41 W/m -1,5 C 0,7 C 11,3 km/h (2 Bft)
25.02.2023 08:58 0,7 C 0,6 C 85 % 1010,4 hPa 0,0 l/m 9,7 km/h (2 Bft) W-SW 247 0 min 0,0 UV-I 39 W/m -1,5 C -2,4 C 16,1 km/h (3 Bft)
25.02.2023 08:59 0,8 C 0,6 C 85 % 1010,4 hPa 0,0 l/m 8,0 km/h (2 Bft) W 270 0 min 0,0 UV-I 37 W/m -1,4 C -0,8 C 16,1 km/h (3 Bft)
25.02.2023 09:00 0,8 C 0,6 C 85 % 1010,4 hPa 0,0 l/m 6,4 km/h (2 Bft) SW 225 0 min 0,0 UV-I 35 W/m -1,4 C 0,8 C 12,9 km/h (3 Bft)
25.02.2023 09:01 0,8 C 0,6 C 85 % 1010,5 hPa 0,0 l/m 3,2 km/h (1 Bft) W-SW 247 0 min 0,0 UV-I 35 W/m -1,4 C 0,8 C 6,4 km/h (2 Bft)
25.02.2023 09:02 0,8 C 0,6 C 84 % 1010,5 hPa 0,0 l/m 8,0 km/h (2 Bft) NW 315 0 min 0,0 UV-I 37 W/m -1,6 C -0,8 C 12,9 km/h (3 Bft)
25.02.2023 09:03 0,8 C 0,6 C 84 % 1010,5 hPa 0,0 l/m 6,4 km/h (2 Bft) W-NW 292 0 min 0,0 UV-I 39 W/m -1,6 C 0,8 C 12,9 km/h (3 Bft)
25.02.2023 09:04 0,8 C 0,6 C 84 % 1010,5 hPa 0,0 l/m 4,8 km/h (1 Bft) W-SW 247 0 min 0,0 UV-I 39 W/m -1,6 C 0,8 C 9,7 km/h (2 Bft)
25.02.2023 09:05 0,8 C 0,6 C 84 % 1010,5 hPa 0,0 l/m 3,2 km/h (1 Bft) N-NO 22 0 min 0,0 UV-I 39 W/m -1,6 C 0,8 C 6,4 km/h (2 Bft)
25.02.2023 09:06 0,8 C 0,6 C 84 % 1010,5 hPa 0,0 l/m 6,4 km/h (2 Bft) W 270 0 min 0,0 UV-I 40 W/m -1,6 C 0,8 C 14,5 km/h (3 Bft)
25.02.2023 09:07 0,8 C 0,6 C 84 % 1010,6 hPa 0,0 l/m 3,2 km/h (1 Bft) W 270 0 min 0,0 UV-I 44 W/m -1,6 C 0,8 C 4,8 km/h (1 Bft)
25.02.2023 09:08 0,8 C 0,6 C 85 % 1010,6 hPa 0,0 l/m 6,4 km/h (2 Bft) W 270 0 min 0,0 UV-I 44 W/m -1,4 C 0,8 C 9,7 km/h (2 Bft)
25.02.2023 09:09 0,8 C 0,6 C 84 % 1010,7 hPa 0,0 l/m 6,4 km/h (2 Bft) W-NW 292 0 min 0,0 UV-I 44 W/m -1,6 C 0,8 C 16,1 km/h (3 Bft)
25.02.2023 09:10 0,8 C 0,6 C 84 % 1010,6 hPa 0,0 l/m 9,7 km/h (2 Bft) W-SW 247 0 min 0,0 UV-I 49 W/m -1,6 C -2,3 C 14,5 km/h (3 Bft)
25.02.2023 09:11 0,8 C 0,6 C 84 % 1010,5 hPa 0,0 l/m 4,8 km/h (1 Bft) NW 315 0 min 0,0 UV-I 53 W/m -1,6 C 0,8 C 9,7 km/h (2 Bft)
25.02.2023 09:12 0,8 C 0,6 C 84 % 1010,6 hPa 0,0 l/m 4,8 km/h (1 Bft) W-SW 247 0 min 0,0 UV-I 56 W/m -1,6 C 0,8 C 11,3 km/h (2 Bft)
25.02.2023 09:13 0,8 C 0,6 C 84 % 1010,5 hPa 0,0 l/m 8,0 km/h (2 Bft) SW 225 0 min 0,0 UV-I 58 W/m -1,6 C -0,8 C 16,1 km/h (3 Bft)
25.02.2023 09:14 0,7 C 0,6 C 84 % 1010,5 hPa 0,0 l/m 8,0 km/h (2 Bft) W-NW 292 0 min 0,0 UV-I 58 W/m -1,7 C -0,9 C 14,5 km/h (3 Bft)
25.02.2023 09:15 0,8 C 0,6 C 84 % 1010,5 hPa 0,0 l/m 3,2 km/h (1 Bft) NW 315 0 min 0,0 UV-I 58 W/m -1,6 C 0,8 C 12,9 km/h (3 Bft)
25.02.2023 09:16 0,8 C 1,1 C 84 % 1010,6 hPa 0,0 l/m 1,6 km/h (1 Bft) NW 315 0 min 0,0 UV-I 60 W/m -1,6 C 0,8 C 3,2 km/h (1 Bft)
25.02.2023 09:17 0,8 C 1,1 C 84 % 1010,6 hPa 0,0 l/m 1,6 km/h (1 Bft) W 270 0 min 0,0 UV-I 63 W/m -1,6 C 0,8 C 4,8 km/h (1 Bft)
25.02.2023 09:18 0,8 C 1,1 C 84 % 1010,6 hPa 0,0 l/m 3,2 km/h (1 Bft) W 270 0 min 0,0 UV-I 69 W/m -1,6 C 0,8 C 4,8 km/h (1 Bft)
25.02.2023 09:19 0,8 C 1,1 C 85 % 1010,6 hPa 0,0 l/m 4,8 km/h (1 Bft) N-NW 337 0 min 0,0 UV-I 70 W/m -1,4 C 0,8 C 8,0 km/h (2 Bft)
25.02.2023 09:20 0,8 C 1,1 C 85 % 1010,6 hPa 0,0 l/m 1,6 km/h (1 Bft) W 270 0 min 0,0 UV-I 69 W/m -1,4 C 0,8 C 4,8 km/h (1 Bft)
25.02.2023 09:21 0,8 C 1,1 C 85 % 1010,6 hPa 0,0 l/m 3,2 km/h (1 Bft) W 270 0 min 0,0 UV-I 65 W/m -1,4 C 0,8 C 6,4 km/h (2 Bft)
25.02.2023 09:22 0,8 C 1,1 C 85 % 1010,6 hPa 0,0 l/m 1,6 km/h (1 Bft) W-NW 292 0 min 0,0 UV-I 63 W/m -1,4 C 0,8 C 4,8 km/h (1 Bft)
25.02.2023 09:23 0,8 C 1,1 C 85 % 1010,6 hPa 0,0 l/m 4,8 km/h (1 Bft) SW 225 0 min 0,0 UV-I 65 W/m -1,4 C 0,8 C 9,7 km/h (2 Bft)
25.02.2023 09:24 0,8 C 1,1 C 84 % 1010,5 hPa 0,0 l/m 4,8 km/h (1 Bft) W 270 0 min 0,0 UV-I 70 W/m -1,6 C 0,8 C 17,7 km/h (3 Bft)
25.02.2023 09:25 0,8 C 1,1 C 84 % 1010,6 hPa 0,0 l/m 11,3 km/h (2 Bft) W-NW 292 0 min 0,0 UV-I 77 W/m -1,6 C -3,6 C 17,7 km/h (3 Bft)
25.02.2023 09:26 0,8 C 1,1 C 84 % 1010,6 hPa 0,0 l/m 6,4 km/h (2 Bft) W-NW 292 0 min 0,0 UV-I 81 W/m -1,6 C 0,8 C 9,7 km/h (2 Bft)
25.02.2023 09:27 0,8 C 1,1 C 84 % 1010,6 hPa 0,0 l/m 3,2 km/h (1 Bft) W-NW 292 0 min 0,0 UV-I 79 W/m -1,6 C 0,8 C 6,4 km/h (2 Bft)
25.02.2023 09:28 0,8 C 1,1 C 84 % 1010,6 hPa 0,0 l/m 4,8 km/h (1 Bft) W 270 0 min 0,0 UV-I 84 W/m -1,6 C 0,8 C 12,9 km/h (3 Bft)
25.02.2023 09:29 0,9 C 1,1 C 84 % 1010,6 hPa 0,0 l/m 3,2 km/h (1 Bft) NW 315 0 min 0,0 UV-I 88 W/m -1,5 C 0,9 C 6,4 km/h (2 Bft)
25.02.2023 09:30 0,8 C 1,1 C 84 % 1010,7 hPa 0,0 l/m 1,6 km/h (1 Bft) NW 315 0 min 0,0 UV-I 91 W/m -1,6 C 0,8 C 4,8 km/h (1 Bft)
25.02.2023 09:31 0,9 C 1,1 C 84 % 1010,7 hPa 0,0 l/m 3,2 km/h (1 Bft) NW 315 0 min 0,0 UV-I 88 W/m -1,5 C 0,9 C 11,3 km/h (2 Bft)
25.02.2023 09:32 0,9 C 1,1 C 84 % 1010,6 hPa 0,0 l/m 3,2 km/h (1 Bft) W 270 0 min 0,0 UV-I 81 W/m -1,5 C 0,9 C 11,3 km/h (2 Bft)
25.02.2023 09:33 0,9 C 1,1 C 84 % 1010,7 hPa 0,0 l/m 6,4 km/h (2 Bft) W 270 0 min 0,0 UV-I 76 W/m -1,5 C 0,9 C 16,1 km/h (3 Bft)
25.02.2023 09:34 0,9 C 1,1 C 84 % 1010,7 hPa 0,0 l/m 3,2 km/h (1 Bft) N-NW 337 0 min 0,0 UV-I 74 W/m -1,5 C 0,9 C 9,7 km/h (2 Bft)
25.02.2023 09:35 0,9 C 1,1 C 84 % 1010,8 hPa 0,0 l/m 4,8 km/h (1 Bft) W-SW 247 0 min 0,0 UV-I 74 W/m -1,5 C 0,9 C 8,0 km/h (2 Bft)
25.02.2023 09:36 0,9 C 1,1 C 84 % 1010,7 hPa 0,0 l/m 4,8 km/h (1 Bft) W-SW 247 0 min 0,0 UV-I 76 W/m -1,5 C 0,9 C 11,3 km/h (2 Bft)
25.02.2023 09:37 0,9 C 1,1 C 84 % 1010,7 hPa 0,0 l/m 8,0 km/h (2 Bft) NW 315 0 min 0,0 UV-I 72 W/m -1,5 C -0,7 C 12,9 km/h (3 Bft)
25.02.2023 09:38 0,9 C 1,1 C 84 % 1010,7 hPa 0,0 l/m 8,0 km/h (2 Bft) N-NO 22 0 min 0,0 UV-I 76 W/m -1,5 C -0,7 C 17,7 km/h (3 Bft)
25.02.2023 09:39 0,9 C 1,1 C 84 % 1010,6 hPa 0,0 l/m 4,8 km/h (1 Bft) NW 315 0 min 0,0 UV-I 74 W/m -1,5 C 0,9 C 12,9 km/h (3 Bft)
25.02.2023 09:40 0,9 C 1,1 C 84 % 1010,6 hPa 0,0 l/m 8,0 km/h (2 Bft) NW 315 0 min 0,0 UV-I 70 W/m -1,5 C -0,7 C 12,9 km/h (3 Bft)
25.02.2023 09:41 0,9 C 1,1 C 83 % 1010,7 hPa 0,0 l/m 6,4 km/h (2 Bft) W-SW 247 0 min 0,0 UV-I 63 W/m -1,7 C 0,9 C 12,9 km/h (3 Bft)
25.02.2023 09:42 0,9 C 1,1 C 84 % 1010,8 hPa 0,0 l/m 4,8 km/h (1 Bft) W-NW 292 0 min 0,0 UV-I 56 W/m -1,5 C 0,9 C 8,0 km/h (2 Bft)
25.02.2023 09:43 0,9 C 1,1 C 83 % 1010,7 hPa 0,0 l/m 6,4 km/h (2 Bft) W 270 0 min 0,0 UV-I 54 W/m -1,7 C 0,9 C 14,5 km/h (3 Bft)
25.02.2023 09:44 0,9 C 1,1 C 83 % 1010,8 hPa 0,0 l/m 4,8 km/h (1 Bft) W-SW 247 0 min 0,0 UV-I 57 W/m -1,7 C 0,9 C 11,3 km/h (2 Bft)
25.02.2023 09:45 0,9 C 1,1 C 83 % 1010,7 hPa 0,0 l/m 3,2 km/h (1 Bft) SW 225 0 min 0,0 UV-I 60 W/m -1,7 C 0,9 C 4,8 km/h (1 Bft)
25.02.2023 09:46 0,9 C 1,1 C 83 % 1010,7 hPa 0,0 l/m 8,0 km/h (2 Bft) NW 315 0 min 0,0 UV-I 60 W/m -1,7 C -0,7 C 16,1 km/h (3 Bft)
25.02.2023 09:47 0,9 C 1,1 C 83 % 1010,7 hPa 0,0 l/m 6,4 km/h (2 Bft) W 270 0 min 0,0 UV-I 62 W/m -1,7 C 0,9 C 16,1 km/h (3 Bft)
25.02.2023 09:48 0,9 C 1,1 C 83 % 1010,7 hPa 0,0 l/m 4,8 km/h (1 Bft) S-SW 202 0 min 0,0 UV-I 69 W/m -1,7 C 0,9 C 8,0 km/h (2 Bft)
25.02.2023 09:49 0,9 C 1,1 C 83 % 1010,7 hPa 0,0 l/m 3,2 km/h (1 Bft) SW 225 0 min 0,0 UV-I 70 W/m -1,7 C 0,9 C 4,8 km/h (1 Bft)
25.02.2023 09:50 0,9 C 1,1 C 84 % 1010,7 hPa 0,0 l/m 6,4 km/h (2 Bft) N-NW 337 0 min 0,0 UV-I 63 W/m -1,5 C 0,9 C 9,7 km/h (2 Bft)
25.02.2023 09:51 0,9 C 1,1 C 84 % 1010,7 hPa 0,0 l/m 6,4 km/h (2 Bft) W 270 0 min 0,0 UV-I 56 W/m -1,5 C 0,9 C 16,1 km/h (3 Bft)
25.02.2023 09:52 0,9 C 1,1 C 84 % 1010,7 hPa 0,0 l/m 14,5 km/h (3 Bft) NW 315 0 min 0,0 UV-I 56 W/m -1,5 C -5,6 C 19,3 km/h (3 Bft)
25.02.2023 09:53 0,9 C 1,1 C 83 % 1010,7 hPa 0,0 l/m 9,7 km/h (2 Bft) W-NW 292 0 min 0,0 UV-I 60 W/m -1,7 C -2,2 C 16,1 km/h (3 Bft)
25.02.2023 09:54 0,9 C 1,1 C 83 % 1010,7 hPa 0,0 l/m 9,7 km/h (2 Bft) W 270 0 min 0,0 UV-I 67 W/m -1,7 C -2,2 C 14,5 km/h (3 Bft)
25.02.2023 09:55 0,9 C 1,1 C 83 % 1010,7 hPa 0,0 l/m 11,3 km/h (2 Bft) W-NW 292 0 min 0,0 UV-I 74 W/m -1,7 C -3,5 C 16,1 km/h (3 Bft)
25.02.2023 09:56 0,9 C 1,1 C 83 % 1010,5 hPa 0,0 l/m 9,7 km/h (2 Bft) W-NW 292 0 min 0,5 UV-I 94 W/m -1,7 C -2,2 C 16,1 km/h (3 Bft)
25.02.2023 09:57 0,9 C 1,1 C 83 % 1010,6 hPa 0,0 l/m 8,0 km/h (2 Bft) W 270 0 min 0,7 UV-I 139 W/m -1,7 C -0,7 C 16,1 km/h (3 Bft)
25.02.2023 09:58 0,9 C 1,1 C 83 % 1010,6 hPa 0,0 l/m 4,8 km/h (1 Bft) W-NW 292 0 min 0,8 UV-I 171 W/m -1,7 C 0,9 C 11,3 km/h (2 Bft)
25.02.2023 09:59 1,0 C 1,7 C 83 % 1010,6 hPa 0,0 l/m 3,2 km/h (1 Bft) W-NW 292 0 min 0,8 UV-I 188 W/m -1,6 C 1,0 C 8,0 km/h (2 Bft)
25.02.2023 10:00 1,0 C 1,7 C 83 % 1010,6 hPa 0,0 l/m 8,0 km/h (2 Bft) NW 315 0 min 0,8 UV-I 193 W/m -1,6 C -0,6 C 16,1 km/h (3 Bft)
25.02.2023 10:01 1,1 C 2,2 C 83 % 1010,5 hPa 0,0 l/m 6,4 km/h (2 Bft) NW 315 0 min 0,8 UV-I 179 W/m -1,5 C 1,1 C 16,1 km/h (3 Bft)
25.02.2023 10:02 1,1 C 2,2 C 83 % 1010,5 hPa 0,0 l/m 8,0 km/h (2 Bft) W-NW 292 0 min 0,7 UV-I 159 W/m -1,5 C -0,5 C 17,7 km/h (3 Bft)
25.02.2023 10:03 1,2 C 2,8 C 83 % 1010,5 hPa 0,0 l/m 4,8 km/h (1 Bft) W-NW 292 0 min 0,7 UV-I 149 W/m -1,4 C 1,2 C 6,4 km/h (2 Bft)
25.02.2023 10:04 1,3 C 2,8 C 83 % 1010,6 hPa 0,0 l/m 6,4 km/h (2 Bft) N-NW 337 0 min 0,6 UV-I 142 W/m -1,3 C 1,3 C 8,0 km/h (2 Bft)
25.02.2023 10:05 1,3 C 2,8 C 82 % 1010,6 hPa 0,0 l/m 8,0 km/h (2 Bft) W-NW 292 0 min 0,6 UV-I 134 W/m -1,4 C -0,3 C 16,1 km/h (3 Bft)
25.02.2023 10:09 1,3 C 2,2 C 82 % 1010,6 hPa 0,0 l/m 6,4 km/h (2 Bft) W 267 0 min 0,2 UV-I 105 W/m -1,4 C 1,3 C 12,9 km/h (3 Bft)
25.02.2023 10:12 1,2 C 1,7 C 82 % 1010,7 hPa 0,0 l/m 9,6 km/h (2 Bft) W 274 0 min 0,1 UV-I 90 W/m -1,5 C -1,8 C 20,9 km/h (4 Bft)
25.02.2023 10:15 1,2 C 1,7 C 81 % 1010,7 hPa 0,0 l/m 4,4 km/h (1 Bft) W-NW 294 0 min 0,5 UV-I 99 W/m -1,7 C 1,2 C 12,9 km/h (3 Bft)
25.02.2023 10:18 1,2 C 1,7 C 82 % 1010,7 hPa 0,0 l/m 5,9 km/h (2 Bft) W 275 0 min 0,6 UV-I 126 W/m -1,5 C 1,2 C 16,1 km/h (3 Bft)
25.02.2023 10:21 1,3 C 2,2 C 83 % 1010,7 hPa 0,0 l/m 3,2 km/h (1 Bft) W-SW 238 0 min 0,7 UV-I 143 W/m -1,3 C 1,3 C 8,0 km/h (2 Bft)
25.02.2023 10:24 1,3 C 2,8 C 83 % 1010,7 hPa 0,0 l/m 8,3 km/h (2 Bft) NW 307 0 min 0,8 UV-I 175 W/m -1,3 C -0,6 C 17,7 km/h (3 Bft)
25.02.2023 10:27 1,4 C 2,8 C 83 % 1010,7 hPa 0,0 l/m 4,8 km/h (1 Bft) W-SW 242 0 min 0,8 UV-I 187 W/m -1,2 C 1,4 C 12,9 km/h (3 Bft)
25.02.2023 10:30 1,5 C 2,8 C 83 % 1010,8 hPa 0,0 l/m 6,9 km/h (2 Bft) W-NW 288 0 min 0,9 UV-I 182 W/m -1,1 C 1,0 C 17,7 km/h (3 Bft)
25.02.2023 10:33 1,6 C 2,8 C 83 % 1010,8 hPa 0,0 l/m 4,9 km/h (1 Bft) W 271 0 min 0,8 UV-I 168 W/m -1,0 C 1,6 C 19,3 km/h (3 Bft)
25.02.2023 10:36 1,6 C 3,3 C 83 % 1010,8 hPa 0,0 l/m 4,6 km/h (1 Bft) W-NW 303 0 min 0,7 UV-I 158 W/m -1,0 C 1,6 C 14,5 km/h (3 Bft)
25.02.2023 10:39 1,4 C 2,8 C 83 % 1010,7 hPa 0,0 l/m 6,5 km/h (2 Bft) NW 320 0 min 0,2 UV-I 96 W/m -1,2 C 1,3 C 16,1 km/h (3 Bft)
25.02.2023 10:42 1,3 C 2,2 C 84 % 1010,7 hPa 0,0 l/m 3,0 km/h (1 Bft) NW 326 0 min 0,0 UV-I 91 W/m -1,1 C 1,3 C 9,7 km/h (2 Bft)
25.02.2023 10:45 1,2 C 2,2 C 85 % 1010,7 hPa 0,0 l/m 4,8 km/h (1 Bft) NW 317 0 min 0,0 UV-I 84 W/m -1,0 C 1,2 C 9,7 km/h (2 Bft)
25.02.2023 10:48 1,2 C 2,2 C 86 % 1010,6 hPa 0,0 l/m 1,6 km/h (1 Bft) NW 324 0 min 0,1 UV-I 80 W/m -0,9 C 1,2 C 4,8 km/h (1 Bft)
25.02.2023 10:51 1,1 C 1,7 C 86 % 1010,6 hPa 0,0 l/m 2,0 km/h (1 Bft) NW 315 0 min 0,0 UV-I 50 W/m -1,0 C 1,1 C 11,3 km/h (2 Bft)
25.02.2023 10:54 0,9 C 1,1 C 86 % 1010,7 hPa 0,0 l/m 3,0 km/h (1 Bft) W-SW 258 0 min 0,3 UV-I 79 W/m -1,2 C 0,9 C 11,3 km/h (2 Bft)
25.02.2023 10:57 0,8 C 1,1 C 86 % 1010,6 hPa 0,0 l/m 4,2 km/h (1 Bft) N-NW 335 0 min 0,0 UV-I 75 W/m -1,3 C 0,8 C 9,7 km/h (2 Bft)
25.02.2023 11:00 0,8 C 0,6 C 87 % 1010,7 hPa 0,0 l/m 5,1 km/h (1 Bft) W-NW 297 0 min 0,0 UV-I 77 W/m -1,1 C 0,8 C 12,9 km/h (3 Bft)
25.02.2023 11:03 0,8 C 1,1 C 87 % 1010,8 hPa 0,0 l/m 5,8 km/h (2 Bft) N-NW 342 0 min 0,0 UV-I 64 W/m -1,1 C 0,8 C 12,9 km/h (3 Bft)
25.02.2023 11:06 0,9 C 1,1 C 87 % 1011,0 hPa 0,0 l/m 5,7 km/h (1 Bft) W-NW 302 0 min 0,0 UV-I 72 W/m -1,0 C 0,9 C 14,5 km/h (3 Bft)
25.02.2023 11:09 0,9 C 1,1 C 87 % 1011,0 hPa 0,0 l/m 9,7 km/h (2 Bft) W-NW 288 0 min 0,1 UV-I 87 W/m -1,0 C -2,2 C 22,5 km/h (4 Bft)
25.02.2023 11:12 1,0 C 1,7 C 87 % 1011,1 hPa 0,0 l/m 8,3 km/h (2 Bft) W-NW 288 0 min 0,6 UV-I 111 W/m -0,9 C -0,9 C 20,9 km/h (4 Bft)
25.02.2023 11:15 1,2 C 2,2 C 87 % 1011,1 hPa 0,0 l/m 4,8 km/h (1 Bft) NW 312 0 min 0,7 UV-I 131 W/m -0,7 C 1,2 C 14,5 km/h (3 Bft)
25.02.2023 11:18 1,3 C 2,8 C 87 % 1011,0 hPa 0,0 l/m 4,6 km/h (1 Bft) NW 307 0 min 0,9 UV-I 147 W/m -0,6 C 1,3 C 12,9 km/h (3 Bft)
25.02.2023 11:21 1,4 C 3,3 C 87 % 1011,0 hPa 0,0 l/m 2,1 km/h (1 Bft) W-NW 285 0 min 1,2 UV-I 194 W/m -0,5 C 1,4 C 8,0 km/h (2 Bft)
25.02.2023 11:24 1,6 C 3,9 C 86 % 1011,0 hPa 0,0 l/m 7,9 km/h (2 Bft) W-NW 297 0 min 1,2 UV-I 228 W/m -0,5 C 0,1 C 16,1 km/h (3 Bft)
25.02.2023 11:27 1,8 C 5,0 C 86 % 1011,1 hPa 0,0 l/m 6,0 km/h (2 Bft) N-NW 331 3 min 1,3 UV-I 278 W/m -0,3 C 1,8 C 16,1 km/h (3 Bft)
25.02.2023 11:30 1,9 C 4,4 C 85 % 1011,3 hPa 0,2 l/m 9,3 km/h (2 Bft) W 271 3 min 1,2 UV-I 258 W/m -0,3 C -0,8 C 20,9 km/h (4 Bft)
25.02.2023 11:33 1,9 C 4,4 C 84 % 1011,4 hPa 0,0 l/m 10,5 km/h (2 Bft) W 277 0 min 0,9 UV-I 205 W/m -0,5 C -1,7 C 20,9 km/h (4 Bft)
25.02.2023 11:36 1,9 C 3,9 C 84 % 1011,3 hPa 0,0 l/m 6,5 km/h (2 Bft) W-NW 295 0 min 0,9 UV-I 161 W/m -0,5 C 1,8 C 14,5 km/h (3 Bft)
25.02.2023 11:39 1,8 C 3,9 C 83 % 1011,1 hPa 0,0 l/m 8,4 km/h (2 Bft) W-NW 295 0 min 1,1 UV-I 172 W/m -0,8 C -0,1 C 19,3 km/h (3 Bft)
25.02.2023 11:42 1,7 C 2,8 C 84 % 1011,2 hPa 0,0 l/m 7,3 km/h (2 Bft) W-NW 299 0 min 1,0 UV-I 147 W/m -0,7 C 0,8 C 17,7 km/h (3 Bft)
25.02.2023 11:45 1,8 C 3,3 C 84 % 1011,3 hPa 0,0 l/m 7,8 km/h (2 Bft) N-NW 348 0 min 1,1 UV-I 184 W/m -0,6 C 0,4 C 17,7 km/h (3 Bft)
25.02.2023 11:48 1,9 C 3,9 C 84 % 1011,3 hPa 0,0 l/m 6,3 km/h (2 Bft) W-NW 297 0 min 1,2 UV-I 231 W/m -0,5 C 1,9 C 16,1 km/h (3 Bft)
25.02.2023 11:51 2,1 C 3,9 C 84 % 1011,3 hPa 0,0 l/m 6,6 km/h (2 Bft) W-NW 288 0 min 1,0 UV-I 201 W/m -0,3 C 1,9 C 17,7 km/h (3 Bft)
25.02.2023 11:54 2,1 C 3,9 C 84 % 1011,3 hPa 0,0 l/m 6,3 km/h (2 Bft) SW 227 0 min 0,8 UV-I 161 W/m -0,3 C 2,1 C 16,1 km/h (3 Bft)
25.02.2023 11:57 1,9 C 3,3 C 83 % 1011,4 hPa 0,0 l/m 5,7 km/h (1 Bft) W-NW 286 0 min 0,9 UV-I 165 W/m -0,7 C 1,9 C 19,3 km/h (3 Bft)
25.02.2023 12:00 1,9 C 3,9 C 83 % 1011,5 hPa 0,0 l/m 6,2 km/h (2 Bft) NW 304 0 min 1,2 UV-I 227 W/m -0,7 C 1,9 C 19,3 km/h (3 Bft)
25.02.2023 12:03 2,1 C 4,4 C 83 % 1011,4 hPa 0,0 l/m 7,5 km/h (2 Bft) W-NW 302 3 min 1,3 UV-I 250 W/m -0,5 C 1,0 C 19,3 km/h (3 Bft)
25.02.2023 12:06 2,2 C 3,9 C 82 % 1011,3 hPa 0,0 l/m 7,4 km/h (2 Bft) W-SW 257 3 min 1,3 UV-I 259 W/m -0,5 C 1,2 C 16,1 km/h (3 Bft)
25.02.2023 12:09 2,3 C 4,4 C 83 % 1011,3 hPa 0,0 l/m 8,1 km/h (2 Bft) NW 310 0 min 1,3 UV-I 248 W/m -0,3 C 0,7 C 17,7 km/h (3 Bft)
25.02.2023 12:12 2,2 C 3,9 C 82 % 1011,2 hPa 0,0 l/m 6,7 km/h (2 Bft) W-NW 288 0 min 1,0 UV-I 200 W/m -0,5 C 1,9 C 17,7 km/h (3 Bft)
25.02.2023 12:15 2,2 C 3,3 C 82 % 1011,2 hPa 0,0 l/m 8,1 km/h (2 Bft) W-SW 251 0 min 0,8 UV-I 139 W/m -0,5 C 0,6 C 19,3 km/h (3 Bft)
25.02.2023 12:18 2,1 C 3,3 C 82 % 1011,3 hPa 0,0 l/m 6,0 km/h (2 Bft) W 267 0 min 0,5 UV-I 98 W/m -0,6 C 2,1 C 19,3 km/h (3 Bft)
25.02.2023 12:21 1,9 C 2,2 C 82 % 1011,2 hPa 0,0 l/m 7,8 km/h (2 Bft) W-NW 288 0 min 0,2 UV-I 89 W/m -0,8 C 0,5 C 17,7 km/h (3 Bft)
25.02.2023 12:24 1,8 C 2,2 C 82 % 1011,4 hPa 0,0 l/m 7,4 km/h (2 Bft) NW 319 0 min 0,6 UV-I 106 W/m -0,9 C 0,8 C 17,7 km/h (3 Bft)
25.02.2023 12:27 1,8 C 2,2 C 83 % 1011,4 hPa 0,0 l/m 8,3 km/h (2 Bft) W-NW 296 0 min 0,6 UV-I 109 W/m -0,8 C -0,0 C 16,1 km/h (3 Bft)
25.02.2023 12:30 1,8 C 2,8 C 83 % 1011,4 hPa 0,0 l/m 3,4 km/h (1 Bft) N-NW 327 0 min 0,7 UV-I 123 W/m -0,8 C 1,8 C 12,9 km/h (3 Bft)
25.02.2023 12:33 1,8 C 2,8 C 83 % 1011,3 hPa 0,0 l/m 6,5 km/h (2 Bft) W 270 0 min 0,8 UV-I 145 W/m -0,8 C 1,7 C 14,5 km/h (3 Bft)
25.02.2023 12:36 1,8 C 2,8 C 84 % 1011,4 hPa 0,0 l/m 5,9 km/h (2 Bft) SW 232 0 min 1,0 UV-I 167 W/m -0,6 C 1,8 C 12,9 km/h (3 Bft)
25.02.2023 12:39 1,8 C 2,8 C 83 % 1011,4 hPa 0,0 l/m 7,1 km/h (2 Bft) NW 319 0 min 0,8 UV-I 148 W/m -0,8 C 1,1 C 14,5 km/h (3 Bft)
25.02.2023 12:42 1,6 C 2,2 C 83 % 1011,3 hPa 0,0 l/m 4,9 km/h (1 Bft) W-NW 298 0 min 0,7 UV-I 122 W/m -1,0 C 1,6 C 14,5 km/h (3 Bft)
25.02.2023 12:45 1,6 C 2,8 C 84 % 1011,3 hPa 0,0 l/m 4,4 km/h (1 Bft) NW 319 0 min 0,8 UV-I 149 W/m -0,8 C 1,6 C 12,9 km/h (3 Bft)
25.02.2023 12:48 1,6 C 2,8 C 84 % 1011,1 hPa 0,0 l/m 8,6 km/h (2 Bft) W-NW 295 0 min 1,0 UV-I 173 W/m -0,8 C -0,5 C 16,1 km/h (3 Bft)
25.02.2023 12:51 1,8 C 3,3 C 85 % 1011,1 hPa 0,0 l/m 1,1 km/h (1 Bft) W-NW 294 0 min 1,0 UV-I 162 W/m -0,4 C 1,8 C 3,2 km/h (1 Bft)
25.02.2023 12:54 2,0 C 4,4 C 85 % 1011,2 hPa 0,0 l/m 3,1 km/h (1 Bft) W-NW 294 0 min 1,1 UV-I 202 W/m -0,3 C 2,0 C 11,3 km/h (2 Bft)
25.02.2023 12:57 2,1 C 5,0 C 84 % 1011,1 hPa 0,0 l/m 5,1 km/h (1 Bft) NW 311 0 min 1,0 UV-I 189 W/m -0,3 C 2,1 C 16,1 km/h (3 Bft)
25.02.2023 13:00 2,1 C 5,0 C 84 % 1011,2 hPa 0,0 l/m 7,0 km/h (2 Bft) N-NW 327 0 min 1,0 UV-I 200 W/m -0,3 C 1,5 C 14,5 km/h (3 Bft)
25.02.2023 13:03 2,1 C 5,0 C 84 % 1011,1 hPa 0,0 l/m 4,6 km/h (1 Bft) W-SW 242 0 min 1,0 UV-I 199 W/m -0,3 C 2,1 C 11,3 km/h (2 Bft)
25.02.2023 13:06 2,2 C 4,4 C 83 % 1011,1 hPa 0,2 l/m 6,8 km/h (2 Bft) NW 311 0 min 0,9 UV-I 171 W/m -0,4 C 1,8 C 17,7 km/h (3 Bft)
25.02.2023 13:09 2,2 C 5,0 C 83 % 1011,1 hPa 0,0 l/m 5,6 km/h (1 Bft) W 263 0 min 1,1 UV-I 200 W/m -0,4 C 2,2 C 17,7 km/h (3 Bft)
25.02.2023 13:12 2,4 C 5,0 C 83 % 1011,1 hPa 0,0 l/m 5,5 km/h (1 Bft) N 349 3 min 1,7 UV-I 305 W/m -0,2 C 2,4 C 17,7 km/h (3 Bft)
25.02.2023 13:15 2,7 C 6,7 C 82 % 1011,1 hPa 0,0 l/m 10,0 km/h (2 Bft) NW 314 0 min 1,2 UV-I 230 W/m -0,1 C -0,5 C 24,1 km/h (4 Bft)
25.02.2023 13:18 2,6 C 6,1 C 81 % 1011,1 hPa 0,0 l/m 6,8 km/h (2 Bft) W-NW 299 0 min 1,2 UV-I 226 W/m -0,3 C 2,2 C 16,1 km/h (3 Bft)
25.02.2023 13:21 2,6 C 6,1 C 81 % 1011,1 hPa 0,0 l/m 7,8 km/h (2 Bft) NW 319 3 min 1,3 UV-I 259 W/m -0,3 C 1,3 C 20,9 km/h (4 Bft)
25.02.2023 13:24 2,8 C 7,2 C 81 % 1011,1 hPa 0,0 l/m 9,5 km/h (2 Bft) N-NW 329 3 min 1,6 UV-I 341 W/m -0,1 C 0,0 C 20,9 km/h (4 Bft)
25.02.2023 13:27 2,9 C 6,7 C 80 % 1010,9 hPa 0,0 l/m 12,5 km/h (3 Bft) W-NW 298 3 min 1,2 UV-I 278 W/m -0,2 C -2,0 C 24,1 km/h (4 Bft)
25.02.2023 13:30 2,8 C 5,6 C 80 % 1010,9 hPa 0,0 l/m 5,4 km/h (1 Bft) N-NW 336 0 min 1,0 UV-I 170 W/m -0,3 C 2,8 C 14,5 km/h (3 Bft)
25.02.2023 13:33 2,8 C 5,6 C 80 % 1011,1 hPa 0,0 l/m 8,8 km/h (2 Bft) W-NW 295 0 min 1,2 UV-I 242 W/m -0,3 C 0,6 C 19,3 km/h (3 Bft)
25.02.2023 13:36 2,8 C 5,6 C 79 % 1011,1 hPa 0,0 l/m 7,8 km/h (2 Bft) NW 326 0 min 1,0 UV-I 216 W/m -0,5 C 1,5 C 17,7 km/h (3 Bft)
25.02.2023 13:39 2,8 C 5,0 C 79 % 1011,1 hPa 0,0 l/m 9,5 km/h (2 Bft) NW 310 0 min 1,0 UV-I 188 W/m -0,5 C 0,0 C 19,3 km/h (3 Bft)
25.02.2023 13:42 2,9 C 5,0 C 80 % 1011,0 hPa 0,0 l/m 3,1 km/h (1 Bft) NW 321 0 min 1,1 UV-I 222 W/m -0,2 C 2,9 C 12,9 km/h (3 Bft)
25.02.2023 13:45 2,8 C 5,0 C 79 % 1011,0 hPa 0,0 l/m 9,3 km/h (2 Bft) N-NW 331 0 min 1,0 UV-I 202 W/m -0,5 C 0,2 C 16,1 km/h (3 Bft)
25.02.2023 13:48 2,7 C 5,0 C 78 % 1011,0 hPa 0,0 l/m 11,4 km/h (2 Bft) W 279 0 min 0,9 UV-I 176 W/m -0,7 C -1,5 C 20,9 km/h (4 Bft)
25.02.2023 13:51 2,7 C 3,9 C 79 % 1011,1 hPa 0,0 l/m 8,8 km/h (2 Bft) N-NW 342 0 min 0,4 UV-I 104 W/m -0,6 C 0,5 C 19,3 km/h (3 Bft)
25.02.2023 13:54 2,4 C 2,8 C 80 % 1011,2 hPa 0,0 l/m 14,2 km/h (3 Bft) N-NW 343 0 min 0,0 UV-I 51 W/m -0,7 C -3,6 C 24,1 km/h (4 Bft)
25.02.2023 13:57 2,1 C 2,2 C 81 % 1011,4 hPa 0,0 l/m 18,3 km/h (3 Bft) N 351 0 min 0,0 UV-I 38 W/m -0,8 C -6,1 C 32,2 km/h (5 Bft)
25.02.2023 14:00 1,7 C 1,1 C 83 % 1011,3 hPa 0,0 l/m 18,2 km/h (3 Bft) N-NO 24 0 min 0,0 UV-I 36 W/m -0,9 C -6,6 C 27,4 km/h (4 Bft)
25.02.2023 14:03 1,1 C 0,6 C 84 % 1011,4 hPa 0,0 l/m 19,4 km/h (3 Bft) N-NO 17 0 min 0,0 UV-I 53 W/m -1,3 C -7,9 C 29,0 km/h (5 Bft)
25.02.2023 14:06 0,8 C 0,6 C 86 % 1011,4 hPa 0,0 l/m 20,1 km/h (4 Bft) N-NO 20 0 min 0,0 UV-I 50 W/m -1,3 C -8,6 C 29,0 km/h (5 Bft)
25.02.2023 14:09 0,6 C 0,6 C 87 % 1011,4 hPa 0,0 l/m 14,6 km/h (3 Bft) N-NW 346 0 min 0,0 UV-I 56 W/m -1,3 C -6,0 C 22,5 km/h (4 Bft)
25.02.2023 14:12 0,4 C 0,6 C 88 % 1011,4 hPa 0,0 l/m 14,5 km/h (3 Bft) N 360 0 min 0,0 UV-I 59 W/m -1,3 C -6,2 C 20,9 km/h (4 Bft)
25.02.2023 14:15 0,3 C 0,6 C 88 % 1011,5 hPa 0,0 l/m 12,6 km/h (3 Bft) N 349 0 min 0,0 UV-I 62 W/m -1,4 C -5,1 C 17,7 km/h (3 Bft)
25.02.2023 14:18 0,3 C 0,6 C 89 % 1011,4 hPa 0,0 l/m 13,6 km/h (3 Bft) N-NW 341 0 min 0,0 UV-I 66 W/m -1,3 C -5,7 C 17,7 km/h (3 Bft)
25.02.2023 14:21 0,3 C 0,6 C 89 % 1011,5 hPa 0,0 l/m 8,5 km/h (2 Bft) N 5 0 min 0,3 UV-I 73 W/m -1,3 C -1,8 C 14,5 km/h (3 Bft)
25.02.2023 14:24 0,3 C 1,1 C 89 % 1011,5 hPa 0,0 l/m 4,6 km/h (1 Bft) N 355 0 min 0,5 UV-I 84 W/m -1,3 C 0,3 C 8,0 km/h (2 Bft)
25.02.2023 14:27 0,3 C 1,1 C 90 % 1011,5 hPa 0,0 l/m 4,6 km/h (1 Bft) N-NO 13 0 min 0,5 UV-I 82 W/m -1,1 C 0,3 C 8,0 km/h (2 Bft)
25.02.2023 14:30 0,3 C 1,7 C 90 % 1011,4 hPa 0,0 l/m 5,7 km/h (1 Bft) N-NW 336 0 min 0,7 UV-I 115 W/m -1,1 C 0,3 C 9,7 km/h (2 Bft)
25.02.2023 14:33 0,4 C 2,2 C 90 % 1011,4 hPa 0,2 l/m 6,6 km/h (2 Bft) N-NW 348 0 min 0,9 UV-I 143 W/m -1,0 C 0,2 C 12,9 km/h (3 Bft)
25.02.2023 14:36 0,4 C 2,2 C 90 % 1011,5 hPa 0,2 l/m 8,5 km/h (2 Bft) N 5 0 min 1,0 UV-I 167 W/m -1,0 C -1,7 C 16,1 km/h (3 Bft)
25.02.2023 14:39 0,5 C 2,2 C 90 % 1011,5 hPa 0,2 l/m 9,1 km/h (2 Bft) N-NW 348 0 min 0,9 UV-I 161 W/m -0,9 C -2,1 C 14,5 km/h (3 Bft)
25.02.2023 14:42 0,6 C 2,2 C 89 % 1011,5 hPa 0,2 l/m 12,9 km/h (3 Bft) N-NW 345 0 min 0,9 UV-I 178 W/m -1,0 C -4,9 C 17,7 km/h (3 Bft)
25.02.2023 14:45 0,6 C 2,2 C 89 % 1011,5 hPa 0,0 l/m 10,8 km/h (2 Bft) N 350 0 min 0,9 UV-I 192 W/m -1,0 C -3,4 C 17,7 km/h (3 Bft)
25.02.2023 14:48 0,7 C 2,2 C 89 % 1011,5 hPa 0,2 l/m 11,0 km/h (2 Bft) N-NW 331 0 min 0,9 UV-I 184 W/m -0,9 C -3,5 C 19,3 km/h (3 Bft)
25.02.2023 14:51 0,7 C 2,2 C 89 % 1011,4 hPa 0,0 l/m 10,9 km/h (2 Bft) N-NW 336 0 min 0,8 UV-I 163 W/m -0,9 C -3,4 C 17,7 km/h (3 Bft)
25.02.2023 14:54 0,8 C 1,7 C 89 % 1011,5 hPa 0,0 l/m 11,4 km/h (2 Bft) N 350 0 min 0,7 UV-I 162 W/m -0,8 C -3,6 C 17,7 km/h (3 Bft)
25.02.2023 14:57 0,8 C 1,7 C 88 % 1011,7 hPa 0,0 l/m 10,5 km/h (2 Bft) N 350 0 min 0,5 UV-I 113 W/m -1,0 C -3,0 C 22,5 km/h (4 Bft)
25.02.2023 15:00 0,7 C 1,7 C 88 % 1011,5 hPa 0,0 l/m 14,1 km/h (3 Bft) N 350 0 min 0,3 UV-I 86 W/m -1,1 C -5,6 C 20,9 km/h (4 Bft)
25.02.2023 15:03 0,7 C 1,1 C 88 % 1011,6 hPa 0,0 l/m 14,2 km/h (3 Bft) N-NW 344 0 min 0,5 UV-I 95 W/m -1,1 C -5,7 C 20,9 km/h (4 Bft)
25.02.2023 15:06 0,8 C 1,1 C 88 % 1011,6 hPa 0,0 l/m 12,3 km/h (3 Bft) N 11 0 min 0,6 UV-I 77 W/m -1,0 C -4,3 C 19,3 km/h (3 Bft)
25.02.2023 15:09 0,8 C 1,7 C 88 % 1011,7 hPa 0,2 l/m 9,0 km/h (2 Bft) N-NW 343 0 min 0,8 UV-I 98 W/m -1,0 C -1,7 C 14,5 km/h (3 Bft)
25.02.2023 15:12 0,8 C 1,7 C 88 % 1011,6 hPa 0,0 l/m 9,1 km/h (2 Bft) N 355 0 min 0,9 UV-I 111 W/m -1,0 C -1,8 C 14,5 km/h (3 Bft)
25.02.2023 15:15 0,7 C 2,2 C 88 % 1011,6 hPa 0,0 l/m 7,3 km/h (2 Bft) N 360 0 min 0,9 UV-I 111 W/m -1,1 C -0,2 C 14,5 km/h (3 Bft)
25.02.2023 15:18 0,7 C 2,2 C 88 % 1011,8 hPa 0,0 l/m 7,5 km/h (2 Bft) N-NW 338 0 min 0,7 UV-I 103 W/m -1,1 C -0,4 C 14,5 km/h (3 Bft)
25.02.2023 15:21 0,8 C 2,2 C 87 % 1011,7 hPa 0,0 l/m 9,1 km/h (2 Bft) N 5 0 min 0,8 UV-I 129 W/m -1,1 C -1,8 C 16,1 km/h (3 Bft)
25.02.2023 15:24 0,8 C 3,3 C 87 % 1011,7 hPa 0,0 l/m 8,2 km/h (2 Bft) N-NW 327 0 min 1,0 UV-I 169 W/m -1,1 C -1,0 C 12,9 km/h (3 Bft)
25.02.2023 15:27 1,1 C 6,7 C 87 % 1011,6 hPa 0,0 l/m 6,6 km/h (2 Bft) N-NW 348 3 min 1,2 UV-I 252 W/m -0,8 C 0,9 C 12,9 km/h (3 Bft)
25.02.2023 15:30 1,3 C 9,4 C 86 % 1011,6 hPa 0,0 l/m 5,4 km/h (1 Bft) N-NW 335 3 min 1,3 UV-I 401 W/m -0,8 C 1,3 C 9,7 km/h (2 Bft)
25.02.2023 15:33 1,6 C 10,6 C 85 % 1011,8 hPa 0,0 l/m 8,8 km/h (2 Bft) NW 315 3 min 1,3 UV-I 460 W/m -0,6 C -0,7 C 19,3 km/h (3 Bft)
25.02.2023 15:36 1,6 C 8,3 C 85 % 1011,8 hPa 0,0 l/m 6,0 km/h (2 Bft) N 360 3 min 0,8 UV-I 457 W/m -0,6 C 1,6 C 11,3 km/h (2 Bft)
25.02.2023 15:39 1,6 C 5,6 C 85 % 1011,9 hPa 0,0 l/m 9,5 km/h (2 Bft) N-NW 331 3 min 0,8 UV-I 290 W/m -0,6 C -1,3 C 19,3 km/h (3 Bft)
25.02.2023 15:42 1,4 C 3,9 C 84 % 1011,9 hPa 0,0 l/m 12,9 km/h (3 Bft) N-NW 343 0 min 0,7 UV-I 121 W/m -1,0 C -4,0 C 24,1 km/h (4 Bft)
25.02.2023 15:45 1,4 C 2,8 C 84 % 1011,8 hPa 0,0 l/m 15,7 km/h (3 Bft) N 350 0 min 0,7 UV-I 101 W/m -1,0 C -5,7 C 22,5 km/h (4 Bft)
25.02.2023 15:48 1,3 C 2,2 C 84 % 1011,9 hPa 0,0 l/m 8,7 km/h (2 Bft) N 350 0 min 0,7 UV-I 95 W/m -1,1 C -0,9 C 19,3 km/h (3 Bft)
25.02.2023 15:51 1,4 C 3,3 C 84 % 1011,9 hPa 0,0 l/m 11,3 km/h (2 Bft) N-NW 342 0 min 0,8 UV-I 123 W/m -1,0 C -2,9 C 19,3 km/h (3 Bft)
25.02.2023 15:54 1,3 C 2,8 C 83 % 1011,9 hPa 0,0 l/m 13,3 km/h (3 Bft) N-NW 348 0 min 0,7 UV-I 140 W/m -1,3 C -4,4 C 20,9 km/h (4 Bft)
25.02.2023 15:57 1,4 C 3,3 C 83 % 1012,0 hPa 0,0 l/m 11,5 km/h (2 Bft) N 5 0 min 0,7 UV-I 165 W/m -1,2 C -3,0 C 19,3 km/h (3 Bft)
25.02.2023 16:00 1,5 C 3,3 C 84 % 1011,8 hPa 0,0 l/m 7,7 km/h (2 Bft) NW 325 3 min 0,8 UV-I 270 W/m -0,9 C 0,2 C 16,1 km/h (3 Bft)
25.02.2023 16:03 1,4 C 2,8 C 83 % 1011,9 hPa 0,0 l/m 8,7 km/h (2 Bft) N 355 0 min 0,6 UV-I 130 W/m -1,2 C -0,8 C 20,9 km/h (4 Bft)
25.02.2023 16:06 1,4 C 1,7 C 82 % 1011,9 hPa 0,0 l/m 10,9 km/h (2 Bft) N-NW 340 0 min 0,5 UV-I 68 W/m -1,3 C -2,6 C 22,5 km/h (4 Bft)
25.02.2023 16:09 1,4 C 1,7 C 82 % 1012,0 hPa 0,0 l/m 9,1 km/h (2 Bft) N-NW 331 0 min 0,5 UV-I 89 W/m -1,3 C -1,2 C 19,3 km/h (3 Bft)
25.02.2023 16:12 1,4 C 2,2 C 82 % 1011,9 hPa 0,0 l/m 10,6 km/h (2 Bft) N-NW 344 0 min 0,3 UV-I 127 W/m -1,3 C -2,4 C 19,3 km/h (3 Bft)
25.02.2023 16:15 1,4 C 1,7 C 81 % 1012,0 hPa 0,0 l/m 17,0 km/h (3 Bft) N 351 0 min 0,0 UV-I 83 W/m -1,5 C -6,4 C 22,5 km/h (4 Bft)
25.02.2023 16:18 1,4 C 1,1 C 82 % 1012,0 hPa 0,0 l/m 16,0 km/h (3 Bft) NW 317 0 min 0,0 UV-I 36 W/m -1,3 C -5,8 C 24,1 km/h (4 Bft)
25.02.2023 16:21 1,2 C 1,1 C 83 % 1012,1 hPa 0,0 l/m 12,6 km/h (3 Bft) NW 323 0 min 0,0 UV-I 42 W/m -1,4 C -4,0 C 25,7 km/h (4 Bft)
25.02.2023 16:24 1,2 C 1,1 C 84 % 1012,1 hPa 0,0 l/m 12,4 km/h (3 Bft) N-NW 333 0 min 0,0 UV-I 44 W/m -1,2 C -3,9 C 27,4 km/h (4 Bft)
25.02.2023 16:27 1,1 C 0,6 C 84 % 1012,2 hPa 0,0 l/m 10,3 km/h (2 Bft) N-NW 327 0 min 0,0 UV-I 49 W/m -1,3 C -2,5 C 20,9 km/h (4 Bft)
25.02.2023 16:30 1,1 C 0,6 C 84 % 1012,3 hPa 0,0 l/m 10,8 km/h (2 Bft) N-NW 338 0 min 0,0 UV-I 42 W/m -1,3 C -2,9 C 22,5 km/h (4 Bft)
25.02.2023 16:33 1,1 C 1,7 C 84 % 1012,4 hPa 0,0 l/m 13,9 km/h (3 Bft) N-NW 336 0 min 0,0 UV-I 62 W/m -1,3 C -5,0 C 25,7 km/h (4 Bft)
25.02.2023 16:36 1,0 C 1,1 C 83 % 1012,5 hPa 0,0 l/m 12,1 km/h (2 Bft) N 355 0 min 0,0 UV-I 35 W/m -1,6 C -3,9 C 25,7 km/h (4 Bft)
25.02.2023 16:39 1,0 C 0,6 C 83 % 1012,5 hPa 0,0 l/m 17,7 km/h (3 Bft) N-NW 340 0 min 0,0 UV-I 32 W/m -1,6 C -7,2 C 25,7 km/h (4 Bft)
25.02.2023 16:42 0,9 C 0,6 C 83 % 1012,4 hPa 0,0 l/m 10,2 km/h (2 Bft) N 351 0 min 0,0 UV-I 31 W/m -1,7 C -2,6 C 19,3 km/h (3 Bft)
25.02.2023 16:45 0,9 C 0,6 C 82 % 1012,4 hPa 0,0 l/m 8,0 km/h (2 Bft) N-NW 340 0 min 0,0 UV-I 31 W/m -1,8 C -0,7 C 16,1 km/h (3 Bft)
25.02.2023 16:48 0,8 C 0,0 C 82 % 1012,4 hPa 0,0 l/m 9,1 km/h (2 Bft) N-NW 340 0 min 0,0 UV-I 34 W/m -1,9 C -1,8 C 19,3 km/h (3 Bft)
25.02.2023 16:51 0,8 C 0,6 C 82 % 1012,5 hPa 0,0 l/m 10,6 km/h (2 Bft) N-NW 329 0 min 0,0 UV-I 40 W/m -1,9 C -3,0 C 20,9 km/h (4 Bft)
25.02.2023 16:54 0,9 C 2,2 C 82 % 1012,5 hPa 0,0 l/m 11,0 km/h (2 Bft) W 269 0 min 0,0 UV-I 73 W/m -1,8 C -3,2 C 20,9 km/h (4 Bft)
25.02.2023 16:57 1,1 C 3,3 C 81 % 1012,6 hPa 0,0 l/m 12,9 km/h (3 Bft) N-NW 327 0 min 0,0 UV-I 186 W/m -1,8 C -4,3 C 22,5 km/h (4 Bft)
25.02.2023 17:00 1,3 C 2,2 C 81 % 1012,6 hPa 0,0 l/m 12,4 km/h (3 Bft) NW 307 0 min 0,0 UV-I 234 W/m -1,6 C -3,8 C 22,5 km/h (4 Bft)
25.02.2023 17:03 1,5 C 2,8 C 81 % 1012,6 hPa 0,0 l/m 7,4 km/h (2 Bft) NW 306 0 min 0,0 UV-I 161 W/m -1,4 C 0,5 C 14,5 km/h (3 Bft)
25.02.2023 17:06 1,6 C 2,2 C 80 % 1012,7 hPa 0,0 l/m 13,1 km/h (3 Bft) W-NW 298 0 min 0,0 UV-I 166 W/m -1,5 C -3,9 C 25,7 km/h (4 Bft)
25.02.2023 17:09 1,5 C 2,2 C 80 % 1012,8 hPa 0,0 l/m 15,9 km/h (3 Bft) N 11 0 min 0,0 UV-I 109 W/m -1,6 C -5,7 C 27,4 km/h (4 Bft)
25.02.2023 17:12 1,6 C 3,3 C 79 % 1012,9 hPa 0,0 l/m 14,6 km/h (3 Bft) N 351 0 min 0,0 UV-I 140 W/m -1,6 C -4,8 C 20,9 km/h (4 Bft)
25.02.2023 17:15 1,4 C 2,8 C 78 % 1012,9 hPa 0,0 l/m 16,6 km/h (3 Bft) N 360 0 min 0,0 UV-I 92 W/m -2,0 C -6,2 C 22,5 km/h (4 Bft)
25.02.2023 17:18 1,2 C 1,1 C 78 % 1012,9 hPa 0,0 l/m 15,2 km/h (3 Bft) NW 325 0 min 0,0 UV-I 39 W/m -2,2 C -5,6 C 25,7 km/h (4 Bft)
25.02.2023 17:21 1,1 C 0,6 C 77 % 1012,9 hPa 0,0 l/m 14,0 km/h (3 Bft) N-NW 341 0 min 0,0 UV-I 31 W/m -2,5 C -5,0 C 25,7 km/h (4 Bft)
25.02.2023 17:24 0,9 C 0,0 C 77 % 1013,0 hPa 0,0 l/m 18,4 km/h (3 Bft) N 5 0 min 0,0 UV-I 34 W/m -2,7 C -7,7 C 30,6 km/h (5 Bft)
25.02.2023 17:27 0,8 C 0,0 C 77 % 1013,0 hPa 0,0 l/m 11,6 km/h (2 Bft) NW 323 0 min 0,0 UV-I 40 W/m -2,8 C -3,8 C 20,9 km/h (4 Bft)
25.02.2023 17:30 0,8 C 0,0 C 77 % 1013,0 hPa 0,0 l/m 9,6 km/h (2 Bft) NW 304 0 min 0,0 UV-I 46 W/m -2,8 C -2,2 C 19,3 km/h (3 Bft)
25.02.2023 17:33 0,7 C 0,0 C 77 % 1013,1 hPa 0,0 l/m 9,0 km/h (2 Bft) NW 317 0 min 0,0 UV-I 55 W/m -2,9 C -1,8 C 19,3 km/h (3 Bft)
25.02.2023 17:36 0,7 C 0,6 C 77 % 1013,2 hPa 0,0 l/m 11,3 km/h (2 Bft) NW 306 0 min 0,0 UV-I 60 W/m -2,9 C -3,7 C 19,3 km/h (3 Bft)
25.02.2023 17:39 0,7 C 0,6 C 76 % 1013,1 hPa 0,0 l/m 9,8 km/h (2 Bft) N-NW 333 0 min 0,0 UV-I 58 W/m -3,0 C -2,5 C 20,9 km/h (4 Bft)
25.02.2023 17:42 0,7 C 0,6 C 77 % 1013,2 hPa 0,0 l/m 7,8 km/h (2 Bft) N-NW 336 0 min 0,0 UV-I 47 W/m -2,9 C -0,7 C 14,5 km/h (3 Bft)
25.02.2023 17:45 0,7 C 0,6 C 77 % 1013,2 hPa 0,0 l/m 11,4 km/h (2 Bft) N 351 0 min 0,0 UV-I 36 W/m -2,9 C -3,8 C 19,3 km/h (3 Bft)
25.02.2023 17:48 0,6 C 0,0 C 76 % 1013,3 hPa 0,0 l/m 11,9 km/h (2 Bft) N 360 0 min 0,0 UV-I 24 W/m -3,1 C -4,2 C 20,9 km/h (4 Bft)
25.02.2023 17:51 0,5 C -0,6 C 76 % 1013,4 hPa 0,0 l/m 10,5 km/h (2 Bft) N-NW 340 0 min 0,0 UV-I 18 W/m -3,2 C -3,3 C 19,3 km/h (3 Bft)
25.02.2023 17:54 0,4 C -0,6 C 74 % 1013,4 hPa 0,0 l/m 18,4 km/h (3 Bft) N 355 0 min 0,0 UV-I 13 W/m -3,7 C -8,3 C 29,0 km/h (5 Bft)
25.02.2023 17:57 0,4 C -0,6 C 73 % 1013,6 hPa 0,0 l/m 18,4 km/h (3 Bft) N-NW 344 0 min 0,0 UV-I 12 W/m -3,9 C -8,3 C 30,6 km/h (5 Bft)
25.02.2023 18:00 0,3 C -0,6 C 74 % 1013,5 hPa 0,0 l/m 15,3 km/h (3 Bft) N 355 0 min 0,0 UV-I 11 W/m -3,8 C -6,8 C 20,9 km/h (4 Bft)
25.02.2023 18:03 0,3 C -1,1 C 73 % 1013,6 hPa 0,0 l/m 14,5 km/h (3 Bft) N 9 0 min 0,0 UV-I 8 W/m -4,0 C -6,3 C 22,5 km/h (4 Bft)
25.02.2023 18:06 0,2 C -1,1 C 73 % 1013,6 hPa 0,0 l/m 14,0 km/h (3 Bft) N-NW 343 0 min 0,0 UV-I 6 W/m -4,1 C -6,1 C 17,7 km/h (3 Bft)
25.02.2023 18:09 0,1 C -1,1 C 74 % 1013,7 hPa 0,0 l/m 6,6 km/h (2 Bft) N 355 0 min 0,0 UV-I 5 W/m -4,0 C -0,1 C 14,5 km/h (3 Bft)
25.02.2023 18:12 0,1 C -1,1 C 74 % 1013,7 hPa 0,0 l/m 5,1 km/h (1 Bft) N-NW 342 0 min 0,0 UV-I 0 W/m -4,0 C 0,1 C 9,7 km/h (2 Bft)
25.02.2023 18:15 -0,1 C -1,7 C 75 % 1013,9 hPa 0,0 l/m 3,7 km/h (1 Bft) N-NW 348 0 min 0,0 UV-I 0 W/m -4,0 C -0,1 C 8,0 km/h (2 Bft)
25.02.2023 18:18 -0,2 C -1,7 C 75 % 1013,8 hPa 0,0 l/m 5,1 km/h (1 Bft) N-NW 338 0 min 0,0 UV-I 0 W/m -4,1 C -0,2 C 9,7 km/h (2 Bft)
25.02.2023 18:21 -0,3 C -1,7 C 75 % 1013,9 hPa 0,0 l/m 5,3 km/h (1 Bft) N-NW 341 0 min 0,0 UV-I 0 W/m -4,2 C -0,3 C 12,9 km/h (3 Bft)
25.02.2023 18:24 -0,4 C -2,2 C 76 % 1013,9 hPa 0,0 l/m 1,2 km/h (1 Bft) N-NW 340 0 min 0,0 UV-I 0 W/m -4,1 C -0,4 C 4,8 km/h (1 Bft)
25.02.2023 18:27 -0,6 C -2,2 C 77 % 1014,0 hPa 0,0 l/m 4,6 km/h (1 Bft) N 360 0 min 0,0 UV-I 0 W/m -4,1 C -0,6 C 19,3 km/h (3 Bft)
25.02.2023 18:30 -0,5 C -2,2 C 76 % 1014,1 hPa 0,0 l/m 7,6 km/h (2 Bft) NW 326 0 min 0,0 UV-I 0 W/m -4,2 C -1,8 C 16,1 km/h (3 Bft)
25.02.2023 18:33 -0,5 C -2,2 C 76 % 1014,1 hPa 0,0 l/m 11,8 km/h (2 Bft) N 350 0 min 0,0 UV-I 0 W/m -4,2 C -5,4 C 20,9 km/h (4 Bft)
25.02.2023 18:36 -0,4 C -1,7 C 74 % 1014,1 hPa 0,0 l/m 13,6 km/h (3 Bft) N-NW 344 0 min 0,0 UV-I 0 W/m -4,5 C -6,6 C 22,5 km/h (4 Bft)
25.02.2023 18:39 -0,4 C -2,2 C 74 % 1014,1 hPa 0,0 l/m 5,3 km/h (1 Bft) N 349 0 min 0,0 UV-I 0 W/m -4,5 C -0,4 C 17,7 km/h (3 Bft)
25.02.2023 18:42 -0,5 C -2,2 C 74 % 1014,2 hPa 0,0 l/m 8,7 km/h (2 Bft) N-NW 348 0 min 0,0 UV-I 0 W/m -4,5 C -2,8 C 14,5 km/h (3 Bft)
25.02.2023 18:45 -0,6 C -2,2 C 74 % 1014,3 hPa 0,0 l/m 4,7 km/h (1 Bft) N-NW 330 0 min 0,0 UV-I 0 W/m -4,6 C -0,6 C 8,0 km/h (2 Bft)
25.02.2023 18:48 -0,7 C -2,8 C 74 % 1014,4 hPa 0,0 l/m 9,1 km/h (2 Bft) N 5 0 min 0,0 UV-I 0 W/m -4,7 C -3,4 C 16,1 km/h (3 Bft)
25.02.2023 18:51 -0,7 C -2,2 C 73 % 1014,3 hPa 0,0 l/m 13,7 km/h (3 Bft) N-NW 348 0 min 0,0 UV-I 0 W/m -4,9 C -7,0 C 19,3 km/h (3 Bft)
25.02.2023 18:54 -0,7 C -2,2 C 72 % 1014,3 hPa 0,0 l/m 14,5 km/h (3 Bft) N-NW 348 0 min 0,0 UV-I 0 W/m -5,1 C -7,5 C 22,5 km/h (4 Bft)
25.02.2023 18:57 -0,7 C -2,2 C 72 % 1014,3 hPa 0,0 l/m 10,6 km/h (2 Bft) N 355 0 min 0,0 UV-I 0 W/m -5,1 C -4,7 C 16,1 km/h (3 Bft)
25.02.2023 19:00 -0,8 C -2,2 C 73 % 1014,4 hPa 0,0 l/m 9,1 km/h (2 Bft) N-NW 338 0 min 0,0 UV-I 0 W/m -5,0 C -3,5 C 14,5 km/h (3 Bft)
25.02.2023 19:03 -0,8 C -2,2 C 73 % 1014,4 hPa 0,0 l/m 9,8 km/h (2 Bft) N 350 0 min 0,0 UV-I 0 W/m -5,0 C -4,2 C 16,1 km/h (3 Bft)
25.02.2023 19:06 -0,9 C -2,8 C 73 % 1014,4 hPa 0,0 l/m 8,4 km/h (2 Bft) N 351 0 min 0,0 UV-I 0 W/m -5,1 C -3,0 C 14,5 km/h (3 Bft)
25.02.2023 19:09 -1,0 C -2,8 C 73 % 1014,4 hPa 0,0 l/m 9,6 km/h (2 Bft) N 355 0 min 0,0 UV-I 0 W/m -5,2 C -4,2 C 16,1 km/h (3 Bft)
25.02.2023 19:12 -1,0 C -2,8 C 73 % 1014,4 hPa 0,0 l/m 9,7 km/h (2 Bft) N 349 0 min 0,0 UV-I 0 W/m -5,2 C -4,3 C 16,1 km/h (3 Bft)
25.02.2023 19:15 -1,0 C -2,8 C 73 % 1014,5 hPa 0,0 l/m 9,8 km/h (2 Bft) N 355 0 min 0,0 UV-I 0 W/m -5,2 C -4,4 C 14,5 km/h (3 Bft)
25.02.2023 19:18 -1,1 C -2,8 C 73 % 1014,5 hPa 0,0 l/m 7,7 km/h (2 Bft) N-NW 341 0 min 0,0 UV-I 0 W/m -5,3 C -2,5 C 11,3 km/h (2 Bft)
25.02.2023 19:21 -1,2 C -3,3 C 73 % 1014,6 hPa 0,0 l/m 7,5 km/h (2 Bft) N-NW 344 0 min 0,0 UV-I 0 W/m -5,4 C -2,4 C 12,9 km/h (3 Bft)
25.02.2023 19:24 -1,2 C -3,3 C 74 % 1014,7 hPa 0,0 l/m 5,8 km/h (2 Bft) N-NW 345 0 min 0,0 UV-I 0 W/m -5,2 C -1,2 C 9,7 km/h (2 Bft)
25.02.2023 19:27 -1,3 C -3,3 C 74 % 1014,7 hPa 0,0 l/m 3,2 km/h (1 Bft) N-NW 346 0 min 0,0 UV-I 0 W/m -5,3 C -1,3 C 8,0 km/h (2 Bft)
25.02.2023 19:30 -1,4 C -3,3 C 75 % 1014,7 hPa 0,0 l/m 0,9 km/h (0 Bft) N-NW 346 0 min 0,0 UV-I 0 W/m -5,2 C -1,4 C 3,2 km/h (1 Bft)
25.02.2023 19:33 -1,6 C -3,9 C 75 % 1014,8 hPa 0,0 l/m 2,0 km/h (1 Bft) N-NW 342 0 min 0,0 UV-I 0 W/m -5,4 C -1,6 C 4,8 km/h (1 Bft)
25.02.2023 19:36 -1,6 C -3,9 C 76 % 1014,9 hPa 0,0 l/m 2,3 km/h (1 Bft) N-NW 338 0 min 0,0 UV-I 0 W/m -5,3 C -1,6 C 6,4 km/h (2 Bft)
25.02.2023 19:39 -1,7 C -3,9 C 76 % 1014,9 hPa 0,0 l/m 2,8 km/h (1 Bft) NW 313 0 min 0,0 UV-I 0 W/m -5,4 C -1,7 C 8,0 km/h (2 Bft)
25.02.2023 19:42 -1,7 C -3,9 C 77 % 1014,8 hPa 0,0 l/m 3,0 km/h (1 Bft) N-NW 338 0 min 0,0 UV-I 0 W/m -5,2 C -1,7 C 12,9 km/h (3 Bft)
25.02.2023 19:45 -1,7 C -3,3 C 76 % 1014,9 hPa 0,0 l/m 6,9 km/h (2 Bft) N 5 0 min 0,0 UV-I 0 W/m -5,4 C -2,2 C 14,5 km/h (3 Bft)
25.02.2023 19:48 -1,7 C -3,3 C 76 % 1014,9 hPa 0,0 l/m 6,8 km/h (2 Bft) N 350 0 min 0,0 UV-I 0 W/m -5,4 C -2,1 C 12,9 km/h (3 Bft)
25.02.2023 19:51 -1,6 C -3,3 C 76 % 1014,8 hPa 0,0 l/m 6,9 km/h (2 Bft) N-NW 344 0 min 0,0 UV-I 0 W/m -5,3 C -2,1 C 14,5 km/h (3 Bft)
25.02.2023 19:54 -1,6 C -3,3 C 75 % 1014,8 hPa 0,0 l/m 8,9 km/h (2 Bft) N-NW 344 0 min 0,0 UV-I 0 W/m -5,4 C -4,2 C 14,5 km/h (3 Bft)
25.02.2023 19:57 -1,6 C -3,3 C 75 % 1015,0 hPa 0,0 l/m 9,1 km/h (2 Bft) N 5 0 min 0,0 UV-I 0 W/m -5,4 C -4,4 C 14,5 km/h (3 Bft)
25.02.2023 20:00 -1,6 C -3,3 C 75 % 1015,0 hPa 0,0 l/m 7,7 km/h (2 Bft) N-NW 334 0 min 0,0 UV-I 0 W/m -5,4 C -3,0 C 12,9 km/h (3 Bft)
25.02.2023 20:03 -1,7 C -3,3 C 75 % 1015,0 hPa 0,0 l/m 7,6 km/h (2 Bft) N-NW 339 0 min 0,0 UV-I 0 W/m -5,5 C -3,0 C 12,9 km/h (3 Bft)
25.02.2023 20:06 -1,7 C -3,3 C 75 % 1015,1 hPa 0,0 l/m 9,1 km/h (2 Bft) N 351 0 min 0,0 UV-I 0 W/m -5,5 C -4,5 C 16,1 km/h (3 Bft)
25.02.2023 20:09 -1,7 C -3,3 C 75 % 1015,2 hPa 0,0 l/m 9,3 km/h (2 Bft) N 355 0 min 0,0 UV-I 0 W/m -5,5 C -4,7 C 14,5 km/h (3 Bft)
25.02.2023 20:12 -1,7 C -3,3 C 75 % 1015,2 hPa 0,0 l/m 8,2 km/h (2 Bft) N 5 0 min 0,0 UV-I 0 W/m -5,5 C -3,6 C 14,5 km/h (3 Bft)
25.02.2023 20:15 -1,7 C -3,3 C 75 % 1015,2 hPa 0,0 l/m 7,0 km/h (2 Bft) N 360 0 min 0,0 UV-I 0 W/m -5,5 C -2,4 C 9,7 km/h (2 Bft)
25.02.2023 20:18 -1,9 C -3,9 C 75 % 1015,3 hPa 0,0 l/m 6,1 km/h (2 Bft) N-NW 343 0 min 0,0 UV-I 0 W/m -5,7 C -1,9 C 12,9 km/h (3 Bft)
25.02.2023 20:21 -1,8 C -3,9 C 75 % 1015,4 hPa 0,0 l/m 9,4 km/h (2 Bft) N 355 0 min 0,0 UV-I 0 W/m -5,6 C -4,9 C 16,1 km/h (3 Bft)
25.02.2023 20:24 -1,8 C -3,3 C 75 % 1015,4 hPa 0,0 l/m 9,7 km/h (2 Bft) N 360 0 min 0,0 UV-I 0 W/m -5,6 C -5,2 C 14,5 km/h (3 Bft)
25.02.2023 20:27 -1,8 C -3,3 C 75 % 1015,5 hPa 0,0 l/m 8,3 km/h (2 Bft) N 360 0 min 0,0 UV-I 0 W/m -5,6 C -3,8 C 16,1 km/h (3 Bft)
25.02.2023 20:30 -1,8 C -3,3 C 75 % 1015,4 hPa 0,0 l/m 8,3 km/h (2 Bft) N 355 0 min 0,0 UV-I 0 W/m -5,6 C -3,8 C 12,9 km/h (3 Bft)
25.02.2023 20:33 -1,9 C -3,3 C 75 % 1015,4 hPa 0,0 l/m 8,9 km/h (2 Bft) N-NW 348 0 min 0,0 UV-I 0 W/m -5,7 C -4,5 C 16,1 km/h (3 Bft)
25.02.2023 20:36 -1,9 C -3,9 C 75 % 1015,5 hPa 0,0 l/m 9,6 km/h (2 Bft) N 355 0 min 0,0 UV-I 0 W/m -5,7 C -5,2 C 17,7 km/h (3 Bft)
25.02.2023 20:39 -1,9 C -3,9 C 75 % 1015,5 hPa 0,0 l/m 10,2 km/h (2 Bft) N-NW 343 0 min 0,0 UV-I 0 W/m -5,7 C -5,7 C 14,5 km/h (3 Bft)
25.02.2023 20:42 -1,8 C -3,3 C 75 % 1015,5 hPa 0,0 l/m 11,7 km/h (2 Bft) N-NO 19 0 min 0,0 UV-I 0 W/m -5,6 C -6,8 C 16,1 km/h (3 Bft)
25.02.2023 20:45 -1,9 C -3,3 C 75 % 1015,6 hPa 0,0 l/m 8,9 km/h (2 Bft) N 355 0 min 0,0 UV-I 0 W/m -5,7 C -4,5 C 14,5 km/h (3 Bft)
25.02.2023 20:48 -1,9 C -3,3 C 75 % 1015,6 hPa 0,0 l/m 9,8 km/h (2 Bft) N-NW 343 0 min 0,0 UV-I 0 W/m -5,7 C -5,4 C 14,5 km/h (3 Bft)
25.02.2023 20:51 -1,9 C -3,3 C 75 % 1015,7 hPa 0,0 l/m 8,7 km/h (2 Bft) N 5 0 min 0,0 UV-I 0 W/m -5,7 C -4,3 C 14,5 km/h (3 Bft)
25.02.2023 20:54 -1,9 C -3,3 C 75 % 1015,8 hPa 0,0 l/m 9,3 km/h (2 Bft) N 355 0 min 0,0 UV-I 0 W/m -5,7 C -4,9 C 16,1 km/h (3 Bft)
25.02.2023 20:57 -2,1 C -3,9 C 76 % 1015,8 hPa 0,0 l/m 6,6 km/h (2 Bft) N 355 0 min 0,0 UV-I 0 W/m -5,7 C -2,3 C 11,3 km/h (2 Bft)
25.02.2023 21:00 -1,9 C -3,3 C 76 % 1015,8 hPa 0,0 l/m 11,6 km/h (2 Bft) N 5 0 min 0,0 UV-I 0 W/m -5,6 C -6,9 C 17,7 km/h (3 Bft)
25.02.2023 21:03 -1,9 C -3,3 C 76 % 1015,9 hPa 0,0 l/m 7,6 km/h (2 Bft) N 360 0 min 0,0 UV-I 0 W/m -5,6 C -3,2 C 12,9 km/h (3 Bft)
25.02.2023 21:06 -1,9 C -3,3 C 75 % 1015,9 hPa 0,0 l/m 11,5 km/h (2 Bft) N 349 0 min 0,0 UV-I 0 W/m -5,7 C -6,8 C 20,9 km/h (4 Bft)
25.02.2023 21:09 -1,9 C -3,3 C 75 % 1016,0 hPa 0,0 l/m 8,6 km/h (2 Bft) N 360 0 min 0,0 UV-I 0 W/m -5,7 C -4,2 C 16,1 km/h (3 Bft)
25.02.2023 21:12 -1,9 C -3,3 C 75 % 1016,1 hPa 0,0 l/m 9,2 km/h (2 Bft) N-NW 344 0 min 0,0 UV-I 0 W/m -5,7 C -4,8 C 14,5 km/h (3 Bft)
25.02.2023 21:15 -1,9 C -3,9 C 75 % 1016,1 hPa 0,0 l/m 7,3 km/h (2 Bft) N 350 0 min 0,0 UV-I 0 W/m -5,7 C -2,9 C 12,9 km/h (3 Bft)
25.02.2023 21:18 -2,1 C -3,9 C 75 % 1016,0 hPa 0,0 l/m 8,0 km/h (2 Bft) N-NW 342 0 min 0,0 UV-I 0 W/m -5,9 C -3,9 C 14,5 km/h (3 Bft)
25.02.2023 21:21 -2,1 C -3,9 C 75 % 1016,0 hPa 0,0 l/m 11,5 km/h (2 Bft) N-NW 348 0 min 0,0 UV-I 0 W/m -5,9 C -7,0 C 20,9 km/h (4 Bft)
25.02.2023 21:24 -2,0 C -3,3 C 75 % 1016,0 hPa 0,0 l/m 13,0 km/h (3 Bft) N-NO 16 0 min 0,0 UV-I 0 W/m -5,8 C -8,0 C 19,3 km/h (3 Bft)
25.02.2023 21:27 -2,1 C -3,3 C 75 % 1016,1 hPa 0,0 l/m 11,2 km/h (2 Bft) N-NW 345 0 min 0,0 UV-I 0 W/m -5,9 C -6,8 C 16,1 km/h (3 Bft)
25.02.2023 21:30 -2,1 C -3,9 C 76 % 1016,2 hPa 0,0 l/m 11,5 km/h (2 Bft) N-NW 347 0 min 0,0 UV-I 0 W/m -5,7 C -7,0 C 16,1 km/h (3 Bft)
25.02.2023 21:33 -2,1 C -3,9 C 76 % 1016,1 hPa 0,0 l/m 10,7 km/h (2 Bft) N 5 0 min 0,0 UV-I 0 W/m -5,7 C -6,4 C 14,5 km/h (3 Bft)
25.02.2023 21:36 -2,1 C -3,9 C 76 % 1016,2 hPa 0,0 l/m 12,8 km/h (3 Bft) N 360 0 min 0,0 UV-I 0 W/m -5,7 C -8,0 C 19,3 km/h (3 Bft)
25.02.2023 21:39 -2,2 C -3,9 C 76 % 1016,1 hPa 0,0 l/m 7,2 km/h (2 Bft) N 5 0 min 0,0 UV-I 0 W/m -5,8 C -3,1 C 14,5 km/h (3 Bft)
25.02.2023 21:42 -2,2 C -3,9 C 76 % 1016,2 hPa 0,0 l/m 11,0 km/h (2 Bft) N 349 0 min 0,0 UV-I 0 W/m -5,8 C -6,7 C 17,7 km/h (3 Bft)
25.02.2023 21:45 -2,3 C -3,9 C 76 % 1016,2 hPa 0,0 l/m 10,2 km/h (2 Bft) N 360 0 min 0,0 UV-I 0 W/m -5,9 C -6,2 C 16,1 km/h (3 Bft)
25.02.2023 21:48 -2,2 C -3,9 C 76 % 1016,3 hPa 0,0 l/m 14,0 km/h (3 Bft) N-NW 339 0 min 0,0 UV-I 0 W/m -5,8 C -9,0 C 20,9 km/h (4 Bft)
25.02.2023 21:51 -2,2 C -3,3 C 76 % 1016,3 hPa 0,0 l/m 13,2 km/h (3 Bft) N 360 0 min 0,0 UV-I 0 W/m -5,8 C -8,4 C 19,3 km/h (3 Bft)
25.02.2023 21:54 -2,2 C -3,3 C 76 % 1016,4 hPa 0,0 l/m 12,2 km/h (2 Bft) N 355 0 min 0,0 UV-I 0 W/m -5,8 C -7,7 C 19,3 km/h (3 Bft)
25.02.2023 21:57 -2,3 C -3,9 C 76 % 1016,4 hPa 0,0 l/m 10,4 km/h (2 Bft) N 355 0 min 0,0 UV-I 0 W/m -5,9 C -6,3 C 16,1 km/h (3 Bft)
25.02.2023 22:00 -2,3 C -3,9 C 76 % 1016,4 hPa 0,0 l/m 11,2 km/h (2 Bft) N 355 0 min 0,0 UV-I 0 W/m -5,9 C -7,0 C 17,7 km/h (3 Bft)
25.02.2023 22:03 -2,3 C -3,9 C 76 % 1016,5 hPa 0,0 l/m 13,2 km/h (3 Bft) N 351 0 min 0,0 UV-I 0 W/m -5,9 C -8,5 C 19,3 km/h (3 Bft)
25.02.2023 22:06 -2,3 C -3,9 C 76 % 1016,6 hPa 0,0 l/m 11,6 km/h (2 Bft) N-NW 347 0 min 0,0 UV-I 0 W/m -5,9 C -7,3 C 16,1 km/h (3 Bft)
25.02.2023 22:09 -2,3 C -3,9 C 76 % 1016,6 hPa 0,0 l/m 10,7 km/h (2 Bft) N 5 0 min 0,0 UV-I 0 W/m -5,9 C -6,6 C 16,1 km/h (3 Bft)
25.02.2023 22:12 -2,4 C -3,9 C 76 % 1016,6 hPa 0,0 l/m 9,0 km/h (2 Bft) N 355 0 min 0,0 UV-I 0 W/m -6,0 C -5,2 C 14,5 km/h (3 Bft)
25.02.2023 22:15 -2,4 C -3,9 C 76 % 1016,7 hPa 0,0 l/m 11,1 km/h (2 Bft) N 5 0 min 0,0 UV-I 0 W/m -6,0 C -7,0 C 16,1 km/h (3 Bft)
25.02.2023 22:18 -2,4 C -3,9 C 76 % 1016,6 hPa 0,0 l/m 10,1 km/h (2 Bft) N 5 0 min 0,0 UV-I 0 W/m -6,0 C -6,2 C 17,7 km/h (3 Bft)
25.02.2023 22:21 -2,4 C -3,9 C 77 % 1016,7 hPa 0,0 l/m 13,0 km/h (3 Bft) N 355 0 min 0,0 UV-I 0 W/m -5,9 C -8,5 C 19,3 km/h (3 Bft)
25.02.2023 22:24 -2,4 C -3,9 C 76 % 1016,7 hPa 0,0 l/m 11,8 km/h (2 Bft) N 355 0 min 0,0 UV-I 0 W/m -6,0 C -7,6 C 16,1 km/h (3 Bft)
25.02.2023 22:27 -2,5 C -3,9 C 76 % 1016,7 hPa 0,0 l/m 9,6 km/h (2 Bft) N 355 0 min 0,0 UV-I 0 W/m -6,1 C -5,8 C 14,5 km/h (3 Bft)
25.02.2023 22:30 -2,5 C -3,9 C 76 % 1016,9 hPa 0,0 l/m 9,5 km/h (2 Bft) N-NW 333 0 min 0,0 UV-I 0 W/m -6,1 C -5,8 C 14,5 km/h (3 Bft)
25.02.2023 22:33 -2,6 C -3,9 C 77 % 1016,8 hPa 0,0 l/m 8,6 km/h (2 Bft) N-NO 22 0 min 0,0 UV-I 0 W/m -6,1 C -5,0 C 14,5 km/h (3 Bft)
25.02.2023 22:36 -2,7 C -4,4 C 77 % 1016,9 hPa 0,0 l/m 8,2 km/h (2 Bft) N 350 0 min 0,0 UV-I 0 W/m -6,2 C -4,7 C 14,5 km/h (3 Bft)
25.02.2023 22:39 -2,7 C -4,4 C 77 % 1016,9 hPa 0,0 l/m 7,0 km/h (2 Bft) N 360 0 min 0,0 UV-I 0 W/m -6,2 C -3,4 C 11,3 km/h (2 Bft)
25.02.2023 22:42 -2,7 C -4,4 C 77 % 1016,9 hPa 0,0 l/m 7,5 km/h (2 Bft) N-NW 344 0 min 0,0 UV-I 0 W/m -6,2 C -3,9 C 12,9 km/h (3 Bft)
25.02.2023 22:45 -2,7 C -4,4 C 77 % 1016,9 hPa 0,0 l/m 7,5 km/h (2 Bft) N 351 0 min 0,0 UV-I 0 W/m -6,2 C -3,9 C 12,9 km/h (3 Bft)
25.02.2023 22:48 -2,8 C -4,4 C 77 % 1016,9 hPa 0,0 l/m 4,2 km/h (1 Bft) N-NW 338 0 min 0,0 UV-I 0 W/m -6,3 C -2,8 C 8,0 km/h (2 Bft)
25.02.2023 22:51 -2,8 C -5,0 C 77 % 1016,9 hPa 0,0 l/m 4,1 km/h (1 Bft) N-NW 346 0 min 0,0 UV-I 0 W/m -6,3 C -2,8 C 8,0 km/h (2 Bft)
25.02.2023 22:54 -2,9 C -5,0 C 78 % 1017,0 hPa 0,0 l/m 2,4 km/h (1 Bft) N 355 0 min 0,0 UV-I 0 W/m -6,2 C -2,9 C 6,4 km/h (2 Bft)
25.02.2023 22:57 -3,0 C -5,0 C 78 % 1017,0 hPa 0,0 l/m 4,4 km/h (1 Bft) N-NW 348 0 min 0,0 UV-I 0 W/m -6,3 C -3,0 C 9,7 km/h (2 Bft)
25.02.2023 23:00 -3,1 C -5,6 C 78 % 1017,0 hPa 0,0 l/m 3,7 km/h (1 Bft) N-NW 337 0 min 0,0 UV-I 0 W/m -6,4 C -3,1 C 8,0 km/h (2 Bft)
25.02.2023 23:03 -3,1 C -5,6 C 78 % 1017,1 hPa 0,0 l/m 2,3 km/h (1 Bft) N-NW 331 0 min 0,0 UV-I 0 W/m -6,4 C -3,1 C 9,7 km/h (2 Bft)
25.02.2023 23:06 -3,2 C -5,6 C 79 % 1017,1 hPa 0,0 l/m 4,1 km/h (1 Bft) NW 325 0 min 0,0 UV-I 0 W/m -6,3 C -3,2 C 8,0 km/h (2 Bft)
25.02.2023 23:09 -3,2 C -5,6 C 79 % 1017,1 hPa 0,0 l/m 2,3 km/h (1 Bft) N-NW 337 0 min 0,0 UV-I 0 W/m -6,3 C -3,2 C 6,4 km/h (2 Bft)
25.02.2023 23:12 -3,2 C -5,6 C 79 % 1017,1 hPa 0,0 l/m 2,1 km/h (1 Bft) N-NW 341 0 min 0,0 UV-I 0 W/m -6,3 C -3,2 C 4,8 km/h (1 Bft)
25.02.2023 23:15 -3,2 C -5,6 C 79 % 1017,1 hPa 0,0 l/m 2,0 km/h (1 Bft) N-NW 342 0 min 0,0 UV-I 0 W/m -6,3 C -3,2 C 4,8 km/h (1 Bft)
25.02.2023 23:18 -3,3 C -5,6 C 79 % 1017,1 hPa 0,0 l/m 1,1 km/h (1 Bft) N-NW 342 0 min 0,0 UV-I 0 W/m -6,4 C -3,3 C 3,2 km/h (1 Bft)
25.02.2023 23:21 -3,3 C -5,6 C 79 % 1017,1 hPa 0,0 l/m 1,9 km/h (1 Bft) N-NW 333 0 min 0,0 UV-I 0 W/m -6,4 C -3,3 C 4,8 km/h (1 Bft)
25.02.2023 23:24 -3,3 C -5,6 C 79 % 1017,1 hPa 0,0 l/m 1,8 km/h (1 Bft) N-NW 333 0 min 0,0 UV-I 0 W/m -6,4 C -3,3 C 4,8 km/h (1 Bft)
25.02.2023 23:27 -3,4 C -5,6 C 79 % 1017,1 hPa 0,0 l/m 2,7 km/h (1 Bft) N-NW 340 0 min 0,0 UV-I 0 W/m -6,5 C -3,4 C 6,4 km/h (2 Bft)
25.02.2023 23:30 -3,4 C -5,6 C 80 % 1017,2 hPa 0,0 l/m 2,3 km/h (1 Bft) N-NW 336 0 min 0,0 UV-I 0 W/m -6,3 C -3,4 C 6,4 km/h (2 Bft)
25.02.2023 23:33 -3,4 C -5,6 C 80 % 1017,2 hPa 0,0 l/m 2,6 km/h (1 Bft) NW 311 0 min 0,0 UV-I 0 W/m -6,3 C -3,4 C 6,4 km/h (2 Bft)
25.02.2023 23:36 -3,4 C -5,0 C 80 % 1017,2 hPa 0,0 l/m 2,4 km/h (1 Bft) N-NW 328 0 min 0,0 UV-I 0 W/m -6,3 C -3,4 C 8,0 km/h (2 Bft)
25.02.2023 23:39 -3,3 C -5,0 C 80 % 1017,2 hPa 0,0 l/m 2,0 km/h (1 Bft) N-NW 328 0 min 0,0 UV-I 0 W/m -6,2 C -3,3 C 4,8 km/h (1 Bft)
25.02.2023 23:42 -3,3 C -4,4 C 80 % 1017,1 hPa 0,0 l/m 2,5 km/h (1 Bft) NW 317 0 min 0,0 UV-I 0 W/m -6,2 C -3,3 C 6,4 km/h (2 Bft)
25.02.2023 23:45 -3,2 C -4,4 C 80 % 1017,2 hPa 0,0 l/m 2,2 km/h (1 Bft) N-NW 332 0 min 0,0 UV-I 0 W/m -6,1 C -3,2 C 6,4 km/h (2 Bft)
25.02.2023 23:48 -3,2 C -4,4 C 80 % 1017,2 hPa 0,0 l/m 2,0 km/h (1 Bft) N-NW 328 0 min 0,0 UV-I 0 W/m -6,1 C -3,2 C 4,8 km/h (1 Bft)
25.02.2023 23:51 -3,1 C -4,4 C 80 % 1017,1 hPa 0,0 l/m 1,9 km/h (1 Bft) N-NW 327 0 min 0,0 UV-I 0 W/m -6,0 C -3,1 C 4,8 km/h (1 Bft)
25.02.2023 23:54 -3,1 C -5,0 C 80 % 1017,2 hPa 0,0 l/m 1,1 km/h (1 Bft) N-NW 327 0 min 0,0 UV-I 0 W/m -6,0 C -3,1 C 4,8 km/h (1 Bft)
25.02.2023 23:57 -3,2 C -5,0 C 80 % 1017,2 hPa 0,0 l/m 2,1 km/h (1 Bft) N-NW 327 0 min 0,0 UV-I 0 W/m -6,1 C -3,2 C 4,8 km/h (1 Bft)
25.02.2023 23:58 -3,2 C -5,0 C 80 % 1017,2 hPa 0,0 l/m 1,6 km/h (1 Bft) N-NW 337 0 min 0,0 UV-I 0 W/m -6,1 C -3,2 C 3,2 km/h (1 Bft)
25.02.2023 23:59 -3,2 C -5,0 C 80 % 1017,3 hPa 0,0 l/m 1,6 km/h (1 Bft) N-NW 337 0 min 0,0 UV-I 0 W/m -6,1 C -3,2 C 1,6 km/h (1 Bft)
_ Min-Zeit 23:27 23:00 18:54 00:04 - 00:01 - - - - - 23:27 21:48 01:01
Minimum _ -3,4 C -5,6 C 72 % 1008,5 hPa - 0,0 km/h (0 Bft) - - - - - -6,5 C -9,0 C 0,0 km/h (0 Bft)
_ Max-Zeit 13:27 15:33 14:27 23:59 11:30 14:06 - - 11:27 13:12 15:33 13:15 13:42 13:57
Maximum _ 2,9 C 10,6 C 90 % 1017,3 hPa 0,2 l/m 20,1 km/h
N-NO (4 Bft)
- - 3 min 1,7 UV-I 460 W/m -0,1 C 2,9 C 32,2 km/h
N (5 Bft)
Durchschnitt _ 0,3 C 0,1 C 83 % 1011,7 hPa #1,6 l/m 6,7 km/h (2 Bft) W-NW - #42 min. 0,8 UV-I 113 W/m -2,3 C -1,2 C 12,9 km/h (3 Bft)